[[{"header":{"parameterUnit":"m.s-1","parameterCategory":1,"la1":30.6,"la2":29.2853,"lo1":-89.7004,"lo2":-87.6739,"dy":0.0162,"dx":0.0183,"nx":112,"ny":82,"refTime":"2024-04-06T12:00:00:Z","depth":0,"parameterNumber":2,"parameterNumberName":"U-component_of_WINDS"},"data":[0.0,0.0,0.0,0.0,0.0,0.0,0.0,0.0,0.0,0.0,0.0,0.0,0.0,0.0,0.0,0.0,0.0,0.0,0.0,0.0,0.0,0.0,0.0,0.0,0.0,0.0,0.0,0.0,0.0,0.0,0.0,0.0,0.0,0.0,0.0,0.0,0.0,0.0,0.0,0.0,0.0,0.0,0.0,0.0,0.0,0.0,0.0,0.0,0.0,0.0,0.0,0.0,0.0,0.0,0.0,0.0,0.0,0.0,0.0,0.0,0.0,0.0,0.0,0.0,0.0,0.0,0.0,0.0,0.0,0.0,0.0,0.0,0.0,0.0,0.0,0.0,0.0,0.0,0.0,0.0,0.0,0.0,0.0,0.0,0.0,0.0,0.0,0.0,0.0,0.0,-6.6999,-6.6999,-6.6307,-6.546,-6.4472,-6.2132,-6.1508,-6.3262,0.0,0.0,0.0,0.0,0.0,0.0,0.0,0.0,0.0,0.0,0.0,0.0,0.0,0.0,0.0,0.0,0.0,0.0,0.0,0.0,0.0,0.0,0.0,0.0,0.0,0.0,0.0,0.0,0.0,0.0,0.0,0.0,0.0,0.0,0.0,0.0,0.0,0.0,0.0,0.0,0.0,0.0,0.0,0.0,0.0,0.0,0.0,0.0,0.0,0.0,0.0,0.0,0.0,0.0,0.0,0.0,0.0,0.0,0.0,0.0,0.0,0.0,0.0,0.0,0.0,0.0,0.0,0.0,0.0,0.0,0.0,0.0,0.0,0.0,0.0,0.0,0.0,0.0,0.0,0.0,0.0,0.0,0.0,0.0,0.0,0.0,0.0,0.0,0.0,0.0,0.0,0.0,0.0,0.0,0.0,0.0,0.0,0.0,0.0,0.0,0.0,0.0,0.0,0.0,-6.6999,-6.6999,-6.586,-6.5459,-6.6451,-6.2499,-6.1548,-6.5286,0.0,0.0,0.0,0.0,0.0,0.0,0.0,0.0,0.0,0.0,0.0,0.0,0.0,0.0,0.0,0.0,0.0,0.0,0.0,0.0,0.0,0.0,0.0,0.0,0.0,0.0,0.0,0.0,0.0,0.0,0.0,0.0,0.0,0.0,0.0,0.0,0.0,0.0,0.0,0.0,0.0,0.0,0.0,0.0,0.0,0.0,0.0,0.0,0.0,0.0,0.0,0.0,0.0,0.0,0.0,0.0,0.0,0.0,0.0,0.0,0.0,0.0,0.0,0.0,0.0,0.0,0.0,0.0,0.0,0.0,0.0,0.0,0.0,0.0,0.0,0.0,0.0,0.0,0.0,0.0,0.0,0.0,0.0,0.0,0.0,0.0,0.0,0.0,0.0,0.0,0.0,0.0,0.0,0.0,0.0,0.0,0.0,0.0,0.0,0.0,0.0,0.0,0.0,-6.6999,-6.6999,-6.6999,-6.6384,-6.6011,-6.5856,-6.3175,-6.2549,-6.5228,-6.26,0.0,0.0,0.0,0.0,0.0,0.0,0.0,0.0,0.0,0.0,0.0,0.0,0.0,0.0,0.0,0.0,0.0,0.0,0.0,0.0,0.0,0.0,0.0,0.0,0.0,0.0,0.0,0.0,0.0,0.0,0.0,0.0,0.0,0.0,0.0,0.0,0.0,0.0,0.0,0.0,0.0,0.0,0.0,0.0,0.0,0.0,0.0,0.0,0.0,0.0,0.0,0.0,0.0,0.0,0.0,0.0,0.0,0.0,0.0,0.0,0.0,0.0,0.0,0.0,0.0,0.0,0.0,0.0,0.0,0.0,0.0,0.0,0.0,0.0,0.0,0.0,0.0,0.0,0.0,0.0,0.0,0.0,0.0,0.0,0.0,0.0,0.0,0.0,0.0,0.0,0.0,0.0,0.0,0.0,0.0,0.0,0.0,0.0,0.0,0.0,0.0,0.0,-6.7358,-6.7324,-6.6984,-6.6835,-6.6155,-6.4698,-6.3188,-6.3037,-6.4816,-6.3106,0.0,0.0,0.0,0.0,0.0,0.0,0.0,0.0,0.0,0.0,0.0,0.0,0.0,0.0,0.0,0.0,0.0,0.0,0.0,0.0,0.0,0.0,0.0,0.0,0.0,0.0,0.0,0.0,0.0,0.0,0.0,0.0,0.0,0.0,0.0,0.0,0.0,0.0,0.0,0.0,0.0,0.0,0.0,0.0,0.0,0.0,0.0,0.0,0.0,0.0,0.0,0.0,0.0,0.0,0.0,0.0,0.0,0.0,0.0,0.0,0.0,0.0,0.0,0.0,0.0,0.0,0.0,0.0,0.0,0.0,0.0,0.0,0.0,0.0,0.0,0.0,0.0,0.0,0.0,0.0,0.0,0.0,0.0,0.0,0.0,0.0,0.0,0.0,0.0,0.0,0.0,0.0,0.0,0.0,0.0,0.0,0.0,0.0,0.0,0.0,0.0,0.0,-6.8465,-6.8318,-6.6847,-6.6258,-6.5362,-6.3817,-6.1902,-6.1947,-6.4752,-6.3533,0.0,0.0,0.0,0.0,0.0,0.0,0.0,0.0,0.0,0.0,0.0,0.0,0.0,0.0,0.0,0.0,0.0,0.0,0.0,0.0,0.0,0.0,0.0,0.0,0.0,0.0,0.0,0.0,0.0,0.0,0.0,0.0,0.0,0.0,0.0,0.0,0.0,0.0,0.0,0.0,0.0,0.0,0.0,0.0,0.0,0.0,0.0,0.0,0.0,0.0,0.0,0.0,0.0,0.0,0.0,0.0,0.0,0.0,0.0,0.0,0.0,0.0,0.0,0.0,0.0,0.0,0.0,0.0,0.0,0.0,0.0,0.0,0.0,0.0,0.0,0.0,0.0,0.0,0.0,0.0,0.0,0.0,0.0,0.0,0.0,0.0,0.0,0.0,0.0,0.0,0.0,0.0,0.0,0.0,0.0,0.0,0.0,0.0,0.0,0.0,0.0,0.0,-6.8824,-6.8436,-6.6832,-6.6498,-6.5799,-6.4263,-6.2632,-6.2741,-6.5232,0.0,0.0,0.0,0.0,0.0,0.0,0.0,0.0,0.0,0.0,0.0,0.0,0.0,0.0,0.0,0.0,0.0,0.0,0.0,0.0,0.0,0.0,0.0,0.0,0.0,0.0,0.0,0.0,0.0,0.0,0.0,0.0,0.0,0.0,0.0,0.0,0.0,0.0,0.0,0.0,0.0,0.0,0.0,0.0,0.0,0.0,0.0,0.0,0.0,0.0,0.0,0.0,0.0,0.0,0.0,0.0,0.0,0.0,0.0,0.0,0.0,0.0,0.0,0.0,0.0,0.0,0.0,0.0,0.0,0.0,0.0,0.0,0.0,0.0,0.0,0.0,0.0,0.0,0.0,0.0,0.0,0.0,0.0,0.0,0.0,0.0,0.0,0.0,0.0,0.0,0.0,0.0,0.0,0.0,0.0,0.0,0.0,0.0,0.0,0.0,0.0,0.0,-6.9303,-6.9482,-6.903,-6.7509,-6.7136,-6.6261,-6.4263,-6.3082,-6.3225,-6.5211,0.0,0.0,0.0,0.0,0.0,0.0,0.0,0.0,0.0,0.0,0.0,0.0,0.0,0.0,0.0,0.0,0.0,0.0,0.0,0.0,0.0,0.0,0.0,0.0,0.0,0.0,0.0,0.0,0.0,0.0,0.0,0.0,0.0,0.0,0.0,0.0,0.0,0.0,0.0,0.0,0.0,0.0,0.0,0.0,0.0,0.0,0.0,0.0,0.0,0.0,0.0,0.0,0.0,0.0,0.0,0.0,0.0,0.0,0.0,0.0,0.0,0.0,0.0,0.0,0.0,0.0,0.0,0.0,0.0,0.0,0.0,0.0,0.0,0.0,0.0,0.0,0.0,0.0,0.0,0.0,0.0,0.0,0.0,0.0,0.0,0.0,0.0,0.0,0.0,0.0,0.0,0.0,0.0,0.0,0.0,0.0,0.0,0.0,0.0,0.0,0.0,0.0,-6.9991,-7.053,-7.0272,-6.8817,-6.8035,-6.6486,-6.3564,-6.2719,-6.3,0.0,0.0,0.0,0.0,0.0,0.0,0.0,0.0,0.0,0.0,0.0,0.0,0.0,0.0,0.0,0.0,0.0,0.0,0.0,0.0,0.0,0.0,0.0,0.0,0.0,0.0,0.0,0.0,0.0,0.0,0.0,0.0,0.0,0.0,0.0,0.0,0.0,0.0,0.0,0.0,0.0,0.0,0.0,0.0,0.0,0.0,0.0,0.0,0.0,0.0,0.0,0.0,0.0,0.0,0.0,0.0,0.0,0.0,0.0,0.0,0.0,0.0,0.0,0.0,0.0,0.0,0.0,0.0,0.0,0.0,0.0,0.0,0.0,0.0,0.0,0.0,0.0,0.0,0.0,0.0,0.0,0.0,0.0,0.0,0.0,0.0,0.0,0.0,0.0,0.0,0.0,0.0,0.0,0.0,0.0,0.0,0.0,0.0,0.0,0.0,0.0,0.0,0.0,-6.9089,-6.8268,-6.7122,-6.568,-6.5372,-6.4434,-6.255,-6.2196,-6.3019,-6.5068,0.0,0.0,0.0,0.0,0.0,0.0,0.0,0.0,0.0,0.0,0.0,0.0,0.0,0.0,0.0,0.0,0.0,0.0,0.0,0.0,0.0,0.0,0.0,0.0,0.0,0.0,0.0,0.0,0.0,0.0,0.0,0.0,0.0,0.0,0.0,0.0,0.0,0.0,0.0,0.0,0.0,0.0,0.0,0.0,0.0,0.0,0.0,0.0,0.0,0.0,0.0,0.0,0.0,0.0,0.0,0.0,0.0,0.0,0.0,0.0,0.0,0.0,0.0,0.0,0.0,0.0,0.0,0.0,0.0,0.0,0.0,0.0,0.0,0.0,0.0,0.0,0.0,0.0,0.0,0.0,0.0,0.0,0.0,0.0,0.0,0.0,0.0,0.0,0.0,0.0,0.0,0.0,0.0,0.0,0.0,0.0,0.0,0.0,0.0,0.0,0.0,0.0,-6.8817,-6.7907,-6.6706,-6.5253,-6.4563,-6.3865,-6.2937,-6.2321,-6.2878,-6.487,0.0,0.0,0.0,0.0,0.0,0.0,0.0,0.0,0.0,0.0,0.0,0.0,0.0,0.0,0.0,0.0,0.0,0.0,0.0,0.0,0.0,0.0,0.0,0.0,0.0,0.0,0.0,0.0,0.0,0.0,0.0,0.0,0.0,0.0,0.0,0.0,0.0,0.0,0.0,0.0,0.0,0.0,0.0,0.0,0.0,0.0,0.0,0.0,0.0,0.0,0.0,0.0,0.0,0.0,0.0,0.0,0.0,0.0,0.0,0.0,0.0,0.0,0.0,0.0,0.0,0.0,0.0,0.0,0.0,0.0,0.0,0.0,0.0,0.0,0.0,0.0,0.0,0.0,0.0,0.0,0.0,0.0,0.0,0.0,0.0,0.0,0.0,0.0,0.0,0.0,0.0,0.0,0.0,0.0,0.0,0.0,0.0,0.0,0.0,0.0,0.0,0.0,-6.9059,-6.8489,-6.7736,-6.6483,-6.5016,-6.4146,-6.4092,-6.2821,-6.2646,-6.4156,0.0,0.0,0.0,0.0,0.0,0.0,0.0,0.0,0.0,0.0,0.0,0.0,0.0,0.0,0.0,0.0,0.0,0.0,0.0,0.0,0.0,0.0,0.0,0.0,0.0,0.0,0.0,0.0,0.0,0.0,0.0,0.0,0.0,0.0,0.0,0.0,0.0,0.0,0.0,0.0,0.0,0.0,0.0,0.0,0.0,0.0,0.0,0.0,0.0,0.0,0.0,0.0,0.0,0.0,0.0,0.0,0.0,0.0,0.0,0.0,-6.9658,-7.0438,0.0,0.0,0.0,0.0,0.0,0.0,0.0,0.0,0.0,0.0,0.0,0.0,0.0,0.0,0.0,0.0,0.0,0.0,0.0,0.0,0.0,0.0,0.0,0.0,0.0,0.0,0.0,0.0,0.0,0.0,0.0,0.0,0.0,0.0,0.0,0.0,0.0,0.0,0.0,0.0,-7.0065,-6.7051,-6.5119,-6.6056,-6.4771,-6.363,-6.3107,-6.2778,-6.3095,-6.4083,-6.4201,0.0,0.0,0.0,0.0,0.0,0.0,0.0,0.0,0.0,0.0,0.0,0.0,0.0,0.0,0.0,0.0,0.0,0.0,0.0,0.0,0.0,0.0,0.0,0.0,0.0,0.0,0.0,0.0,0.0,0.0,0.0,0.0,0.0,0.0,0.0,0.0,0.0,0.0,0.0,0.0,0.0,0.0,0.0,0.0,0.0,0.0,0.0,0.0,0.0,0.0,0.0,0.0,0.0,0.0,0.0,0.0,0.0,0.0,0.0,-6.8747,-6.8996,0.0,0.0,0.0,0.0,0.0,0.0,0.0,0.0,0.0,0.0,0.0,0.0,0.0,0.0,0.0,0.0,0.0,0.0,0.0,0.0,0.0,0.0,0.0,0.0,0.0,0.0,0.0,0.0,0.0,0.0,0.0,0.0,0.0,0.0,0.0,0.0,0.0,0.0,0.0,0.0,-7.057,-6.7876,-6.5945,-6.6094,-6.5372,-6.4433,-6.333,-6.3227,-6.3347,-6.3538,-6.3511,0.0,0.0,0.0,0.0,0.0,0.0,0.0,0.0,0.0,0.0,0.0,0.0,0.0,0.0,0.0,0.0,0.0,0.0,0.0,0.0,0.0,0.0,0.0,0.0,0.0,0.0,0.0,0.0,0.0,0.0,0.0,0.0,0.0,0.0,0.0,0.0,0.0,0.0,0.0,0.0,0.0,0.0,0.0,0.0,0.0,0.0,0.0,0.0,0.0,0.0,0.0,0.0,0.0,-7.0564,-7.0024,-7.1985,-7.0107,-6.8566,-6.7372,-6.7624,-6.7184,-6.644,-6.895,0.0,0.0,0.0,0.0,0.0,0.0,0.0,0.0,0.0,0.0,0.0,0.0,0.0,0.0,0.0,0.0,0.0,0.0,0.0,0.0,0.0,0.0,-6.5843,-6.7074,-6.6411,-6.5572,-6.5849,0.0,0.0,0.0,0.0,0.0,0.0,0.0,0.0,0.0,0.0,0.0,-7.0918,-6.915,-6.7552,-6.6915,-6.6345,-6.5413,-6.3983,-6.3829,-6.3593,-6.3018,-6.2966,-6.3284,0.0,0.0,0.0,0.0,0.0,0.0,0.0,0.0,0.0,0.0,0.0,0.0,0.0,0.0,0.0,0.0,0.0,0.0,0.0,0.0,0.0,0.0,0.0,0.0,0.0,0.0,0.0,0.0,0.0,0.0,0.0,0.0,-6.9905,-6.9905,0.0,0.0,0.0,0.0,0.0,0.0,0.0,0.0,0.0,0.0,0.0,0.0,0.0,-7.3529,-7.3762,-7.2584,-7.2877,-7.4749,-7.017,-6.8812,-7.0329,-6.7372,-6.5897,-6.5766,-6.5739,0.0,-6.7566,-6.7995,0.0,0.0,0.0,0.0,0.0,0.0,0.0,0.0,0.0,0.0,0.0,0.0,0.0,0.0,0.0,0.0,0.0,0.0,0.0,0.0,0.0,0.0,-6.403,-6.426,-6.4107,-6.4004,-6.4049,-6.6119,-6.8012,-6.8228,-6.8355,-6.8911,0.0,0.0,0.0,0.0,0.0,0.0,-7.2024,-6.8497,-6.6799,-6.9291,-6.7157,-6.5188,-6.4456,-6.443,-6.4168,-6.3593,-6.3567,-6.3383,-6.3008,-6.4054,0.0,0.0,0.0,0.0,0.0,0.0,0.0,0.0,0.0,0.0,0.0,0.0,0.0,0.0,0.0,0.0,0.0,0.0,0.0,0.0,0.0,0.0,0.0,0.0,0.0,0.0,0.0,0.0,0.0,-7.032,-7.0649,-7.1009,-7.1278,-7.1607,0.0,0.0,0.0,0.0,0.0,0.0,0.0,0.0,0.0,-7.2679,-7.2075,-7.222,-7.3121,-7.0069,-7.0209,-7.3462,-6.8744,-6.7245,-6.8717,-6.6419,-6.5371,-6.5371,-6.5371,-6.5845,-6.6523,-6.7426,-6.8241,-6.8868,0.0,0.0,0.0,0.0,-6.8762,-6.7973,-6.7973,-6.7374,-6.6715,-6.7216,0.0,0.0,0.0,0.0,0.0,0.0,0.0,-6.7384,-6.7066,-6.5829,-6.4639,-6.4639,-6.4639,-6.4639,-6.4639,-6.5675,-6.6655,-6.6844,-6.7203,-6.8232,-7.063,-7.0606,0.0,0.0,0.0,-7.0047,-7.106,-6.929,-6.8263,-6.8717,-6.7553,-6.6261,-6.511,-6.5005,-6.477,-6.4195,-6.4168,-6.3907,-6.3332,-6.3623,-6.4129,0.0,0.0,0.0,0.0,0.0,0.0,0.0,0.0,0.0,0.0,0.0,0.0,0.0,0.0,0.0,0.0,0.0,0.0,0.0,0.0,0.0,0.0,0.0,0.0,0.0,0.0,0.0,0.0,-7.1158,-7.1398,-7.2056,-7.2146,-7.2355,0.0,0.0,0.0,0.0,0.0,0.0,-7.3545,-7.3917,-7.3645,-7.2557,-7.1307,-7.1452,-7.3111,-6.8366,-6.8214,-7.2443,-6.8062,-6.6679,-6.7783,-6.6601,-6.5766,-6.5371,-6.5371,-6.5371,-6.545,-6.6652,-6.7195,-6.7272,-6.8414,-6.8915,-6.8915,-6.8915,-6.8214,-6.7195,-6.7195,-6.6367,-6.5556,-6.6223,-6.6473,-6.6595,-6.7236,0.0,0.0,0.0,0.0,-6.7089,-6.7138,-6.6289,-6.5371,-6.5371,-6.5371,-6.5371,-6.5371,-6.5371,-6.5503,-6.5735,-6.62,-6.738,-7.0116,-6.9973,0.0,-7.1117,-7.0283,-6.9663,-7.0033,-6.9365,-6.8792,-6.8442,-6.763,-6.6652,-6.5529,-6.5371,-6.5214,-6.477,-6.4743,-6.4482,-6.3907,-6.3489,-6.363,-6.4459,0.0,0.0,0.0,0.0,0.0,0.0,0.0,0.0,0.0,0.0,0.0,0.0,0.0,0.0,0.0,0.0,0.0,0.0,0.0,0.0,0.0,0.0,0.0,0.0,0.0,0.0,0.0,0.0,0.0,-7.2774,-7.2864,0.0,0.0,0.0,0.0,-7.3851,-7.442,-7.413,-7.267,-7.4021,-7.409,-7.2586,-7.2443,-7.3181,-7.4731,-7.009,-6.9271,-7.2443,-6.9196,-6.7707,-6.7783,-6.7707,-6.6808,-6.5371,-6.5371,-6.5371,-6.5371,-6.545,-6.5529,-6.5529,-6.5608,-6.5608,-6.5608,-6.5608,-6.5608,-6.5529,-6.5529,-6.545,-6.5371,-6.5424,-6.5503,-6.5477,-6.5529,-6.6572,0.0,0.0,-6.6626,-6.7372,-6.5897,-6.545,-6.5371,-6.5371,-6.5371,-6.5371,-6.5371,-6.5371,-6.5371,-6.5371,-6.5477,-6.6028,-6.768,0.0,-6.7936,-6.8013,-6.7936,-6.8442,-6.9885,-6.7526,-6.6781,-6.9663,-6.7322,-6.545,-6.5371,-6.5371,-6.5371,-6.5345,-6.5345,-6.5083,-6.4508,-6.4456,-6.3933,-6.2911,-6.2859,0.0,0.0,0.0,0.0,0.0,0.0,0.0,0.0,0.0,0.0,0.0,0.0,0.0,0.0,0.0,0.0,0.0,0.0,0.0,0.0,0.0,0.0,0.0,0.0,0.0,0.0,0.0,0.0,-7.3462,-7.3552,0.0,-7.4151,-7.439,-7.451,-7.451,-7.4749,-7.4219,-7.2586,-7.405,-7.3672,-7.1016,-7.0943,-7.1741,-7.3322,-6.9644,-6.8895,-7.0943,-6.882,-6.7272,-6.6289,-6.6289,-6.5923,-6.5371,-6.5371,-6.5371,-6.5371,-6.5371,-6.5371,-6.5371,-6.5371,-6.5371,-6.5371,-6.5371,-6.5371,-6.5371,-6.5371,-6.5371,-6.5371,-6.5371,-6.5371,-6.5371,-6.5371,-6.5845,-6.6132,-6.5529,-6.5845,-6.6132,-6.5529,-6.5371,-6.5371,-6.5371,-6.5371,-6.5371,-6.5371,-6.5371,-6.5371,-6.5371,-6.5371,-6.5923,-6.7503,-6.6963,-6.6601,-6.7657,-6.7783,-6.763,-6.7168,-6.704,-6.6963,-6.7091,-6.6054,-6.5371,-6.5371,-6.5371,-6.5371,-6.5371,-6.5371,-6.5292,-6.5083,-6.4743,-6.4351,-6.3933,-6.3567,-6.3376,0.0,0.0,0.0,0.0,0.0,0.0,0.0,0.0,0.0,0.0,0.0,0.0,0.0,0.0,0.0,0.0,0.0,0.0,0.0,0.0,0.0,0.0,0.0,0.0,0.0,-7.3253,-7.3492,-7.4151,-7.424,-7.439,-7.4839,-7.4869,-7.4869,-7.4869,-7.4869,-7.4219,-7.2586,-7.405,-7.3672,-7.0988,-7.0943,-7.1452,-7.2515,-6.9913,-6.8792,-6.9318,-6.882,-6.7476,-6.5371,-6.5975,-6.5923,-6.5371,-6.5371,-6.5371,-6.5371,-6.5371,-6.5371,-6.5371,-6.5371,-6.5371,-6.5371,-6.5371,-6.5371,-6.5371,-6.5371,-6.5371,-6.5371,-6.5371,-6.5371,-6.5371,-6.5371,-6.5371,-6.5371,-6.5371,-6.5371,-6.5371,-6.5371,-6.5371,-6.5371,-6.5371,-6.5371,-6.5371,-6.5371,-6.5371,-6.5371,-6.5371,-6.5371,-6.5766,-6.6808,-6.6132,-6.5766,-6.6808,-6.6963,-6.6808,-6.6289,-6.6652,-6.6808,-6.6289,-6.5687,-6.5371,-6.5371,-6.5371,-6.5371,-6.5371,-6.5923,-6.5975,-6.5371,-6.5554,-6.5159,-6.4247,-6.3672,-6.3306,-6.3123,0.0,0.0,0.0,0.0,0.0,0.0,0.0,0.0,0.0,0.0,0.0,0.0,0.0,0.0,0.0,0.0,0.0,0.0,0.0,0.0,0.0,0.0,0.0,-7.3911,-7.3911,-7.4151,-7.4809,-7.4869,-7.4869,-7.4869,-7.4869,-7.4869,-7.4869,-7.4869,-7.4219,-7.2586,-7.405,-7.4149,-7.2586,-7.2515,-7.2515,-7.2586,-7.0943,-6.9393,-6.7936,-6.9393,-6.8414,-6.5529,-6.704,-6.6885,-6.5371,-6.5371,-6.5371,-6.5371,-6.5371,-6.5371,-6.5371,-6.5371,-6.5371,-6.5371,-6.5371,-6.5371,-6.5371,-6.5371,-6.5371,-6.5371,-6.5371,-6.5371,-6.5371,-6.5371,-6.5371,-6.5371,-6.5371,-6.5371,-6.5371,-6.5371,-6.5371,-6.5371,-6.5371,-6.5371,-6.5371,-6.5371,-6.5371,-6.5371,-6.5371,-6.5371,-6.5371,-6.5371,-6.5371,-6.5371,-6.5371,-6.5371,0.0,-6.7503,-6.6445,-6.6054,-6.7657,-6.6445,-6.5529,-6.545,-6.545,-6.545,-6.5371,-6.6885,-6.704,-6.5529,-6.6885,-6.6504,-6.3905,-6.3175,-6.3149,-6.3775,0.0,0.0,0.0,0.0,0.0,0.0,0.0,0.0,0.0,0.0,0.0,0.0,0.0,0.0,0.0,0.0,0.0,0.0,0.0,0.0,0.0,-7.4599,-7.4599,-7.4599,-7.4599,-7.4659,-7.4869,-7.4869,-7.4869,-7.4869,-7.4869,-7.4869,-7.4869,-7.4869,-7.4219,-7.2586,-7.405,-7.4149,-7.2586,-7.2515,-7.304,-7.4219,-7.1524,-7.0476,-7.119,-6.9318,-6.8013,-6.7118,-6.6367,-6.5845,-6.5371,-6.5371,-6.5371,-6.5371,-6.5371,-6.5371,-6.5371,-6.5371,-6.5371,-6.5371,-6.5371,-6.5371,-6.5371,-6.5371,-6.5371,-6.5371,-6.5371,-6.5371,-6.5371,-6.5371,-6.5371,-6.5371,-6.5371,-6.5371,-6.5371,-6.5371,-6.5371,-6.5371,-6.5371,-6.5371,-6.5371,-6.5371,-6.5371,-6.5371,-6.5371,-6.5371,-6.5371,-6.5371,-6.5371,-6.5371,-6.5371,-6.5371,-6.5529,-6.5975,-6.6652,-6.7349,-6.7707,-6.8442,-6.8338,-6.7272,-6.7118,-6.6679,-6.545,-6.5845,-6.6367,-6.7118,-6.6445,-6.6286,-6.6634,-6.4946,-6.4709,0.0,0.0,0.0,0.0,0.0,0.0,0.0,0.0,0.0,0.0,0.0,0.0,0.0,0.0,0.0,0.0,0.0,0.0,0.0,0.0,0.0,0.0,-7.4869,-7.4869,-7.4869,-7.4869,-7.4869,-7.4869,-7.4869,-7.4869,-7.4869,-7.4869,-7.4869,-7.4869,-7.4869,-7.4495,-7.3533,-7.4357,-7.4495,-7.3533,-7.3533,-7.3603,-7.3911,-7.2699,-7.1884,-7.1452,-7.0283,-6.942,-6.8744,-6.7118,-6.6445,-6.6367,-6.5687,-6.5371,-6.5371,-6.5371,-6.5371,-6.5371,0.0,0.0,0.0,0.0,-6.5371,-6.5371,-6.5371,-6.5371,-6.5371,-6.5371,-6.5371,-6.5371,-6.5371,-6.5371,-6.5371,-6.5371,-6.5371,-6.5371,-6.5371,-6.5371,-6.5371,-6.5371,-6.5371,-6.5371,-6.5371,-6.5371,-6.5371,-6.5371,-6.5371,0.0,-6.5371,-6.5975,-6.6211,-6.5529,-6.6497,-6.7168,-6.6523,-6.7195,-6.7783,-6.7783,-6.7985,-6.7756,-6.6885,-6.7426,0.0,0.0,0.0,-6.7476,-6.7783,-6.6645,0.0,0.0,0.0,-6.5752,-6.8269,-6.6066,0.0,0.0,-6.32,-6.3271,0.0,0.0,0.0,0.0,0.0,0.0,0.0,0.0,0.0,0.0,0.0,0.0,0.0,0.0,0.0,0.0,-7.4869,-7.4869,-7.4869,-7.4869,-7.4869,-7.4869,-7.4869,-7.4869,-7.4869,-7.4869,-7.4869,-7.4869,-7.4869,-7.4869,-7.4869,-7.4869,0.0,0.0,0.0,-7.4219,-7.2799,-7.3981,-7.3293,-7.0622,-7.1769,-7.1596,-7.0329,-6.8593,-6.7783,-6.7734,-6.6054,-6.5371,-6.5371,-6.5371,-6.5371,-6.5371,-6.5371,-6.5371,-6.5371,-6.5371,-6.5371,-6.5371,-6.5371,0.0,0.0,-6.5371,-6.5371,-6.5371,-6.5371,-6.5371,-6.5371,-6.5371,-6.5371,-6.5371,-6.5371,-6.5371,-6.5371,-6.5371,-6.5371,-6.5371,-6.5371,-6.5371,-6.5371,-6.5371,-6.5371,-6.545,-6.5608,-6.6652,-6.704,-6.5608,-6.7756,-6.9093,-6.7707,-6.7734,-6.7783,-6.7783,-6.6808,0.0,-6.5975,-6.7399,-6.8241,-6.8089,-6.9542,-6.9691,-6.8165,-6.7695,-6.7818,-6.829,-6.6223,-6.686,-7.0402,-6.8241,-6.8067,-6.9539,-6.5403,-6.491,0.0,0.0,0.0,0.0,0.0,0.0,0.0,0.0,0.0,0.0,0.0,0.0,0.0,0.0,0.0,-7.4869,-7.4869,-7.4869,-7.4869,-7.4869,-7.4869,-7.4869,-7.4869,-7.4869,-7.4869,-7.4869,-7.4869,-7.4869,-7.4869,-7.4869,-7.4869,-7.4869,-7.4869,-7.4869,-7.4869,-7.4731,-7.4426,-7.3462,-7.3322,-7.3981,-7.1668,0.0,-7.1913,-6.9121,-6.7783,-6.7734,-6.6054,-6.5371,-6.5371,-6.5371,-6.5371,-6.5371,-6.5371,-6.5371,-6.5371,-6.5371,-6.5371,-6.5371,-6.5371,-6.5371,-6.5371,-6.5371,-6.5371,-6.5371,-6.5371,-6.5371,0.0,-6.5371,-6.5371,-6.5371,-6.5371,-6.5371,-6.5371,-6.5371,-6.5371,-6.5371,-6.5371,-6.5371,-6.5371,-6.5371,-6.5371,-6.5845,-6.7118,-6.6523,-6.5766,-6.545,-6.5897,-6.6211,-6.5897,-6.6963,-6.7783,-6.7783,-6.9793,-7.0577,-6.929,-7.0651,-7.1016,-6.9737,-7.1162,-7.1307,-6.9737,-7.0829,-7.151,-7.1553,-6.9921,-6.9995,-7.2057,-7.0289,-7.0306,-7.1783,-6.8747,-6.768,0.0,0.0,0.0,0.0,0.0,0.0,0.0,0.0,0.0,0.0,0.0,-7.4869,-7.4869,0.0,-7.4869,-7.4869,-7.4869,-7.4869,-7.4869,-7.4869,-7.4869,-7.4869,-7.4869,-7.4869,-7.4869,-7.4869,-7.4869,-7.4869,-7.4869,-7.4869,-7.4869,-7.4869,-7.4869,-7.4869,-7.4869,-7.4869,-7.4869,-7.412,-7.412,-7.4869,-7.3293,-7.294,-7.3603,-7.1263,-7.0164,-7.009,-6.8414,-6.7756,-6.768,-6.6963,-6.6132,-6.5371,-6.5371,-6.5371,-6.5371,-6.5371,-6.5371,-6.5371,-6.5371,-6.5371,-6.5371,-6.5371,-6.5371,-6.5371,-6.5371,-6.5371,-6.5371,-6.5371,-6.5371,-6.5608,-6.6367,-6.6601,-6.6601,-6.6601,-6.6601,-6.6367,-6.5529,-6.6054,-6.6601,-6.6601,-6.7245,-6.8034,-6.8792,-6.763,-6.6885,-6.768,-6.9093,-6.9839,-6.9018,-6.9616,-7.0164,-7.0164,-7.087,-7.1016,-7.0181,-7.1596,-7.2128,-7.1379,-7.2799,-7.2657,-7.0181,-7.1668,-7.2515,-7.2515,-7.0943,-7.1307,-7.3702,-7.2057,-7.2128,-7.3672,-7.2269,-7.1072,0.0,0.0,0.0,0.0,0.0,0.0,0.0,-7.4869,-7.4869,-7.4869,-7.4869,-7.4869,-7.4869,-7.4869,-7.4869,-7.4869,-7.4869,-7.4869,-7.4869,-7.4869,-7.4869,-7.4869,-7.4869,-7.4869,-7.4869,-7.4869,-7.4869,-7.4869,-7.4869,-7.4869,-7.4869,-7.4869,-7.4869,-7.4869,-7.4869,-7.4869,-7.4869,-7.4869,-7.4869,-7.4869,-7.4869,-7.4869,-7.4869,-7.3252,-7.2515,-7.2443,-7.0769,-7.0107,-7.0033,-6.8744,-6.7322,-6.5923,-6.6211,-6.6132,-6.5845,-6.5529,-6.5371,-6.5371,-6.5371,-6.5371,-6.545,-6.5766,-6.5845,-6.5897,-6.6211,-6.6132,-6.5923,-6.6211,-6.5897,-6.5818,-6.7783,-6.8013,-6.786,-6.8165,-6.8214,-6.7936,-6.6575,-6.7322,-6.8214,-6.8214,-6.9243,-7.0181,-7.0476,-6.9542,-6.9046,-6.9959,-7.2057,-7.3181,-7.2128,-7.2057,-7.2057,-7.2057,-7.1162,-7.0696,-7.0988,-7.22,-7.294,-7.294,-7.4219,-7.3742,-7.1133,-7.2272,-7.294,-7.294,-7.1668,-7.2343,-7.4869,-7.3632,-7.3603,-7.4869,-7.4869,-7.3922,-7.3612,-7.427,-7.4779,-7.4869,-7.4869,-7.4869,0.0,-7.4869,-7.4869,-7.4869,-7.4869,-7.4869,-7.4869,-7.4869,-7.4869,-7.4869,-7.4869,-7.4869,-7.4869,-7.4869,-7.4869,-7.4869,-7.4869,-7.4869,-7.4869,-7.4869,-7.4869,-7.4869,-7.4869,-7.4869,-7.4869,-7.4869,-7.4869,-7.4869,-7.4869,-7.4869,-7.4869,-7.4869,-7.4869,-7.4869,-7.4869,-7.4869,-7.4869,-7.3252,-7.2515,-7.2443,-7.0769,-7.0107,-7.0107,-6.9885,-6.8943,-6.763,-6.9018,-6.8717,-6.7349,-6.5923,-6.5371,-6.5371,-6.5371,-6.5371,-6.5608,-6.704,-6.7503,-6.7783,-6.9168,-6.8641,-6.7783,-6.9168,-6.7526,-6.6054,-6.9065,-6.8792,-6.8165,-6.9514,-6.9811,-6.9811,-6.9588,-6.9737,-6.9811,-6.9811,-6.9959,-7.0549,-7.1985,-7.2057,-7.1553,-7.0255,-6.9243,-6.9046,-7.0181,-7.0402,-7.0402,-7.0402,-7.1452,-7.2799,-7.4258,-7.4495,-7.4663,-7.4663,-7.48,-7.4731,-7.4357,-7.4495,-7.4663,-7.4663,-7.4426,-7.4564,-7.4869,-7.4731,-7.4731,-7.4869,-7.4869,-7.477,-7.43,-7.4659,-7.4869,-7.4869,-7.4869,-7.4869,-7.4869,-7.4869,-7.4869,-7.4869,-7.4869,-7.4869,-7.4869,-7.4869,-7.4869,-7.4869,-7.4869,-7.4869,-7.4869,-7.4869,-7.5018,-7.5437,-7.5467,-7.5318,-7.4929,-7.4869,-7.5048,-7.5437,-7.5467,-7.5647,-7.6006,-7.6006,-7.6006,-7.6006,-7.6006,-7.6006,-7.6006,-7.6006,-7.6006,-7.6006,-7.6006,-7.6006,-7.6006,-7.5346,-7.5035,-7.4964,-7.4265,-7.3516,-7.2658,-7.224,-7.1114,-6.977,-7.0025,-6.9737,-6.8943,-6.7399,-6.6808,-6.6679,-6.5687,-6.5975,-6.6885,-6.758,-6.8366,-6.9243,-6.9885,-6.9663,-6.9243,-6.9885,-6.914,-6.8641,-7.0943,-7.1016,-7.0679,-7.1307,-7.1524,-7.1234,-7.0329,-7.0842,-7.1524,-7.1524,-7.2272,-7.3082,-7.3772,-7.3111,-7.2586,-7.287,-7.2343,-7.2128,-7.2799,-7.287,-7.287,-7.287,-7.3462,-7.4149,-7.4869,-7.4869,-7.4869,-7.4869,-7.4869,-7.4869,-7.4869,-7.4869,-7.4869,-7.4869,-7.4869,-7.4869,-7.4869,-7.4869,-7.4869,-7.4869,-7.4869,-7.4869,-7.4749,-7.4869,-7.4869,-7.4869,-7.4869,-7.4869,-7.4869,-7.4869,-7.4869,-7.4869,-7.4869,-7.4869,-7.4869,-7.4869,-7.4869,-7.4869,-7.4869,-7.4929,-7.5138,-7.5168,-7.5407,-7.6066,-7.6155,-7.5976,-7.5467,-7.5407,-7.5617,-7.6125,-7.6155,-7.6365,-7.6814,-7.6814,-7.6814,-7.6814,-7.6814,-7.6814,-7.6814,-7.6814,-7.6814,-7.6814,-7.6814,-7.6814,-7.6814,-7.6814,-7.6814,-7.6814,-7.6814,-7.6148,-7.5128,-7.4587,-7.3487,-7.2034,-7.1992,-7.1561,-7.0877,-6.9793,-6.8682,-6.7707,-6.6936,-6.7168,-6.7936,-6.882,-6.9839,-7.0842,-7.1307,-7.1133,-7.0842,-7.1307,-7.0769,-7.0549,-7.2657,-7.2799,-7.2586,-7.304,-7.3181,-7.287,-7.1668,-7.2343,-7.3181,-7.3181,-7.412,-7.4929,-7.5138,-7.4207,-7.3886,-7.5239,-7.5407,-7.5288,-7.4929,-7.4869,-7.4869,-7.4869,-7.4869,-7.4869,-7.4869,-7.4869,-7.4869,-7.4869,-7.4869,-7.4869,-7.4869,-7.4869,-7.4869,-7.4869,-7.4869,-7.4869,-7.4869,-7.4869,-7.4869,-7.4869,-7.4869,-7.4869,-7.4869,-7.4869,-7.4869,-7.4869,-7.4869,-7.4869,-7.4869,-7.4869,-7.4869,-7.4869,-7.4869,-7.4869,-7.4869,-7.4869,-7.4869,-7.4869,-7.4869,-7.5108,-7.5766,-7.5886,-7.6096,-7.6724,-7.6814,-7.6784,-7.6754,-7.6754,-7.6784,-7.6784,-7.6814,-7.6814,-7.6814,-7.6814,-7.6814,-7.6814,-7.6814,-7.6814,-7.6814,-7.6814,-7.6814,-7.6814,-7.6814,-7.6814,-7.6814,-7.6814,-7.6814,-7.6814,-7.6814,-7.6743,-7.6743,-7.6743,-7.5803,-7.4518,-7.6017,-7.5318,-7.3414,-7.3342,-7.0966,-6.8013,-6.9467,-6.9018,-6.8317,-7.1335,-7.2372,-7.2728,-7.4288,-7.3672,-7.2728,-7.4288,-7.2485,-7.0842,-7.3981,-7.3702,-7.287,-7.4426,-7.48,-7.48,-7.4731,-7.48,-7.48,-7.48,-7.4869,-7.5078,-7.5766,-7.5787,-7.5996,-7.6694,-7.6754,-7.6305,-7.5048,-7.4869,-7.4869,-7.4869,-7.4869,-7.4869,-7.4869,-7.4869,-7.4869,-7.4869,-7.4869,-7.4869,-7.4869,-7.4869,-7.4869,-7.4869,-7.4869,-7.4869,-7.4869,-7.4869,-7.4869,-7.4869,-7.4869,-7.4869,-7.4869,-7.4869,-7.4869,-7.4869,-7.4869,-7.4869,-7.4869,-7.4869,-7.4869,-7.4869,-7.4869,-7.5018,-7.5467,-7.5198,-7.5018,-7.5497,-7.5557,-7.5647,-7.5886,-7.6245,-7.6754,-7.7412,-7.7472,-7.7652,-7.81,-7.7352,-7.6993,-7.7442,-7.7472,-7.7682,-7.81,-7.813,-7.813,-7.813,-7.813,-7.813,-7.813,-7.813,-7.813,-7.813,-7.813,-7.813,-7.813,-7.813,-7.813,-7.813,-7.813,-7.813,-7.81,-7.7652,-7.7188,-7.6669,-7.6781,-7.6312,-7.5679,-7.5679,-7.4256,-7.208,-7.061,-7.0504,-7.1117,-7.2157,-7.3252,-7.4219,-7.4731,-7.4495,-7.4219,-7.4731,-7.412,-7.3533,-7.4663,-7.4495,-7.4219,-7.48,-7.5228,-7.5557,-7.5557,-7.5886,-7.6185,-7.6185,-7.6185,-7.6245,-7.6485,-7.6514,-7.6604,-7.6784,-7.6814,-7.6664,-7.6245,-7.6185,-7.6185,-7.6185,-7.6185,-7.6006,-7.5587,-7.5557,-7.5377,-7.4899,-7.4869,-7.4869,-7.4869,-7.4869,-7.4869,-7.4869,-7.4869,-7.4869,-7.4869,-7.4869,-7.4869,-7.4869,-7.4869,-7.4869,-7.4869,-7.4869,-7.4869,-7.4869,-7.4869,-7.4869,-7.4869,-7.4869,-7.4869,-7.4869,-7.4869,-7.5078,-7.5766,-7.5347,-7.5168,-7.6096,-7.6066,-7.6066,-7.6514,-7.6933,-7.7412,-7.8071,-7.816,-7.834,-7.8759,-7.8041,-7.7711,-7.813,-7.816,-7.834,-7.8759,-7.8789,-7.8789,-7.8789,-7.8789,-7.8789,-7.8789,-7.8789,-7.8789,-7.8789,-7.8789,-7.8789,-7.8789,-7.8789,-7.8789,-7.8789,-7.8789,-7.8789,-7.8759,-7.834,-7.816,-7.81,-7.7682,-7.7382,-7.7173,-7.7173,-7.6355,-7.504,-7.3154,-7.2793,-7.3326,-7.3855,-7.4761,-7.5587,-7.5587,-7.5587,-7.5587,-7.5587,-7.5587,-7.5587,-7.5587,-7.5587,-7.5587,-7.5587,-7.5916,-7.6245,-7.6245,-7.6544,-7.6814,-7.6814,-7.6814,-7.6904,-7.7143,-7.7382,-7.7532,-7.7532,-7.7532,-7.7352,-7.6874,-7.6814,-7.6814,-7.6814,-7.6814,-7.6664,-7.6275,-7.6245,-7.6036,-7.5617,-7.5377,-7.5258,-7.5258,-7.5018,-7.4869,-7.4869,-7.4869,-7.4869,-7.4869,-7.4869,-7.4869,-7.4869,-7.4869,-7.4869,-7.4869,-7.4869,-7.4869,-7.4869,-7.4869,-7.4869,-7.4869,-7.4869,-7.4869,-7.4869,-7.4869,-7.5078,-7.5826,-7.5377,-7.5318,-7.6664,-7.6365,-7.6395,-7.7622,-7.7831,-7.81,-7.8699,-7.8789,-7.8789,-7.8789,-7.8789,-7.8789,-7.8789,-7.8789,-7.8789,-7.8789,-7.8789,-7.8789,-7.8789,-7.8789,-7.8789,-7.8789,-7.8789,-7.8789,-7.8789,-7.8789,-7.8789,-7.8789,-7.8789,-7.8789,-7.8789,-7.8789,-7.8789,-7.8789,-7.8789,-7.8789,-7.8789,-7.8789,-7.84,-7.7861,-7.7861,-7.7472,-7.6933,-7.6933,-7.5892,-7.4867,-7.629,-7.6814,-7.6814,-7.6814,-7.6814,-7.6814,-7.6814,-7.6814,-7.6814,-7.6814,-7.6814,-7.6814,-7.6814,-7.6844,-7.6874,-7.6874,-7.6904,-7.6933,-7.6933,-7.6933,-7.7113,-7.7741,-7.837,-7.8789,-7.8789,-7.8789,-7.834,-7.7083,-7.6933,-7.6933,-7.6933,-7.6933,-7.6904,-7.6874,-7.6874,-7.6874,-7.6814,-7.6275,-7.5946,-7.5946,-7.5318,-7.4958,-7.4929,-7.4929,-7.4899,-7.4869,-7.4869,-7.4869,-7.4869,-7.4869,-7.4869,-7.4869,-7.4869,-7.4869,-7.4869,-7.4869,-7.4869,-7.4869,-7.4869,-7.4869,-7.4869,-7.4869,-7.5228,-7.6365,-7.5647,-7.5467,-7.7263,-7.7023,-7.6874,-7.7682,-7.822,-7.8609,-7.8759,-7.8789,-7.8789,-7.8789,-7.8789,-7.8789,-7.8789,-7.8789,-7.8789,-7.8789,-7.8789,-7.8789,-7.8789,-7.8789,-7.8789,-7.8789,-7.8789,-7.8789,-7.8789,-7.8789,-7.8789,-7.8789,-7.8789,-7.8789,-7.8789,-7.8789,-7.8789,-7.8789,-7.8789,-7.8789,-7.8789,-7.8789,-7.8699,-7.8549,-7.8549,-7.843,-7.828,-7.828,-7.7337,-7.629,-7.6673,-7.6814,-7.6814,-7.6814,-7.6814,-7.6814,-7.6814,-7.6814,-7.6814,-7.6814,-7.6814,-7.6814,-7.6814,-7.7203,-7.7562,-7.7562,-7.7951,-7.828,-7.828,-7.828,-7.834,-7.8519,-7.8669,-7.8789,-7.8789,-7.8789,-7.8669,-7.834,-7.828,-7.828,-7.828,-7.828,-7.81,-7.7592,-7.7562,-7.7352,-7.6874,-7.6694,-7.6604,-7.6604,-7.6425,-7.6125,-7.5647,-7.5647,-7.5377,-7.4869,-7.4869,-7.4869,-7.4869,-7.4869,-7.4869,-7.4869,-7.4869,-7.4869,-7.4869,-7.4869,-7.4869,-7.4869,-7.4869,-7.4869,-7.4869,-7.4869,-7.5288,-7.6604,-7.5766,-7.5617,-7.7861,-7.7442,-7.7173,-7.81,-7.8549,-7.8789,-7.8789,-7.8789,-7.8789,-7.8789,-7.8789,-7.8789,-7.8789,-7.8789,-7.8789,-7.8789,-7.8789,-7.8789,-7.8789,-7.8789,-7.8789,-7.8789,-7.8789,-7.8789,-7.8789,-7.8789,-7.8789,-7.8789,-7.8789,-7.8789,-7.8789,-7.8789,-7.8789,-7.8789,-7.8789,-7.8789,-7.8789,-7.8789,-7.8789,-7.8789,-7.8789,-7.8789,-7.8789,-7.8789,-7.831,-7.7682,-7.7682,-7.7682,-7.7682,-7.7682,-7.7682,-7.7682,-7.7682,-7.7682,-7.7682,-7.7682,-7.7682,-7.7682,-7.7682,-7.7981,-7.825,-7.825,-7.8519,-7.8789,-7.8789,-7.8789,-7.8789,-7.8789,-7.8789,-7.8789,-7.8789,-7.8789,-7.8789,-7.8789,-7.8789,-7.8789,-7.8789,-7.8789,-7.8639,-7.828,-7.825,-7.8071,-7.7711,-7.7412,-7.7263,-7.7263,-7.6993,-7.6664,-7.6305,-7.6305,-7.6125,-7.5736,-7.5467,-7.5318,-7.5318,-7.5018,-7.4869,-7.4937,-7.4937,-7.4869,-7.4937,-7.4937,-7.4869,-7.4937,-7.4937,-7.4869,-7.4869,-7.4869,-7.5288,-7.6604,-7.5826,-7.5856,-7.837,-7.7771,-7.7382,-7.8609,-7.8789,-7.8789,-7.8789,-7.8789,-7.8789,-7.8789,-7.8789,-7.8789,-7.8789,-7.8789,-7.8789,-7.8789,-7.8789,-7.8789,-7.8789,-7.8789,-7.8789,-7.8789,-7.8789,-7.8789,-7.8789,-7.8789,-7.8789,-7.8789,-7.8789,-7.8789,-7.8789,-7.8789,-7.8789,-7.8789,-7.8789,-7.8789,-7.8789,-7.8789,-7.8789,-7.8789,-7.8789,-7.8789,-7.8789,-7.8789,-7.8789,-7.8789,-7.8789,-7.8789,-7.8789,-7.8789,-7.8789,-7.8789,-7.8789,-7.8789,-7.8789,-7.8789,-7.8789,-7.8789,-7.8789,-7.8789,-7.8789,-7.8789,-7.8789,-7.8789,-7.8789,-7.8789,-7.8789,-7.8789,-7.8789,-7.8789,-7.8789,-7.8789,-7.8789,-7.8789,-7.8789,-7.8789,-7.8789,-7.8789,-7.8789,-7.8789,-7.8789,-7.8789,-7.8789,-7.825,-7.7951,-7.7951,-7.7382,-7.7053,-7.6963,-7.6963,-7.6904,-7.6814,-7.6275,-7.6036,-7.6006,-7.5318,-7.5018,-7.521,-7.5074,-7.4937,-7.521,-7.5074,-7.4937,-7.521,-7.5074,-7.4869,-7.4869,-7.4869,-7.5288,-7.6604,-7.6215,-7.6395,-7.846,-7.813,-7.7921,-7.8669,-7.8789,-7.8789,-7.8789,-7.8789,-7.8789,-7.8789,-7.8789,-7.8789,-7.8789,-7.8789,-7.8789,-7.8789,-7.8789,-7.8789,-7.8789,-7.8789,-7.8789,-7.8789,-7.8789,-7.8789,-7.8789,-7.8789,-7.8789,-7.8789,-7.8789,-7.8789,-7.8789,-7.8789,-7.8789,-7.8789,-7.8789,-7.8789,-7.8789,-7.8789,-7.8789,-7.8789,-7.8789,-7.8789,-7.8789,-7.8789,-7.8789,-7.8789,-7.8789,-7.8789,-7.8789,-7.8789,-7.8789,-7.8789,-7.8789,-7.8789,-7.8789,-7.8789,-7.8789,-7.8789,-7.8789,-7.8789,-7.8789,-7.8789,-7.8789,-7.8789,-7.8789,-7.8789,-7.8789,-7.8789,-7.8789,-7.8789,-7.8789,-7.8789,-7.8789,-7.8789,-7.8789,-7.8789,-7.8789,-7.8789,-7.8789,-7.8789,-7.8789,-7.8789,-7.8789,-7.8669,-7.8609,-7.8609,-7.8519,-7.819,-7.7652,-7.7652,-7.7382,-7.6814,-7.6724,-7.6664,-7.6664,-7.6006,-7.5736,-7.5346,-7.5142,-7.5006,-7.5278,-7.5278,-7.521,-7.5346,-7.5278,-7.5074,-7.4937,-7.4869,-7.5168,-7.6155,-7.6096,-7.6425,-7.8011,-7.8011,-7.8041,-7.8699,-7.8789,-7.8789,-7.8789,-7.8789,-7.8789,-7.8789,-7.8789,-7.8789,-7.8789,-7.8789,-7.8789,-7.8789,-7.8789,-7.8789,-7.8789,-7.8789,-7.8789,-7.8789,-7.8789,-7.8789,-7.8789,-7.8789,-7.8789,-7.8789,-7.8789,-7.8789,-7.8789,-7.8789,-7.8789,-7.8789,-7.8789,-7.8789,-7.8789,-7.8789,-7.8789,-7.8789,-7.8789,-7.8789,-7.8789,-7.8789,-7.8789,-7.8789,-7.8789,-7.8789,-7.8789,-7.8789,-7.8789,-7.8789,-7.8789,-7.8789,-7.8789,-7.8789,-7.8789,-7.8789,-7.8789,-7.8789,-7.8789,-7.8789,-7.8789,-7.8789,-7.8789,-7.8789,-7.8789,-7.8789,-7.8789,-7.8789,-7.8789,-7.8789,-7.8789,-7.8789,-7.8789,-7.8789,-7.8789,-7.8789,-7.8789,-7.8789,-7.8789,-7.8789,-7.8789,-7.8789,-7.8789,-7.8789,-7.8789,-7.8639,-7.834,-7.831,-7.816,-7.7861,-7.7502,-7.7352,-7.7322,-7.6694,-7.6395,-7.5617,-7.5346,-7.5074,-7.555,-7.555,-7.555,-7.5617,-7.5482,-7.5346,-7.5074,-7.4937,-7.5078,-7.5766,-7.6006,-7.6485,-7.7622,-7.7921,-7.819,-7.8729,-7.8789,-7.8789,-7.8789,-7.8789,-7.8789,-7.8789,-7.8789,-7.8789,-7.8789,-7.8789,-7.8789,-7.8789,-7.8789,-7.8789,-7.8789,-7.8789,-7.8789,-7.8789,-7.8789,-7.8789,-7.8789,-7.8789,-7.8789,-7.8789,-7.8789,-7.8789,-7.8789,-7.8789,-7.8789,-7.8789,-7.8789,-7.8789,-7.8789,-7.8789,-7.8789,-7.8789,-7.8789,-7.8789,-7.8789,-7.8789,-7.8789,-7.8789,-7.8789,-7.8789,-7.8789,-7.8789,-7.8789,-7.8789,-7.8789,-7.8789,-7.8789,-7.8789,-7.8789,-7.8789,-7.8789,-7.8789,-7.8789,-7.8789,-7.8789,-7.8789,-7.8789,-7.8789,-7.8849,-7.8998,-7.8998,-7.9058,-7.9208,-7.9208,-7.9208,-7.9208,-7.9208,-7.9208,-7.9208,-7.8968,-7.8789,-7.8789,-7.8789,-7.8789,-7.8789,-7.8789,-7.8789,-7.8789,-7.8789,-7.8789,-7.8789,-7.8789,-7.8789,-7.8789,-7.828,-7.8011,-7.8011,-7.7352,-7.7023,-7.6221,-7.5887,-7.555,-7.6221,-7.6155,-7.6021,-7.6355,-7.5887,-7.5414,-7.5346,-7.5074,-7.5078,-7.5766,-7.6365,-7.6963,-7.7682,-7.831,-7.8729,-7.8789,-7.8789,-7.8789,-7.8789,-7.8789,-7.8789,-7.8789,-7.8789,-7.8789,-7.8789,-7.8789,-7.8789,-7.8789,-7.8789,-7.8789,-7.8789,-7.8789,-7.8789,-7.8789,-7.8789,-7.8789,-7.8789,-7.8789,-7.8789,-7.8789,-7.8789,-7.8789,-7.8789,-7.8789,-7.8789,-7.8789,-7.8789,-7.8789,-7.8789,-7.8789,-7.8789,-7.8789,-7.8789,-7.8789,-7.8789,-7.8789,-7.8789,-7.8789,-7.8789,-7.8789,-7.8789,-7.8789,-7.8789,-7.8789,-7.8789,-7.8789,-7.8789,-7.8789,-7.8789,-7.8789,-7.8789,-7.8789,-7.8789,-7.8789,-7.8789,-7.8789,-7.8789,-7.8789,-7.8998,-7.9627,-7.9716,-7.9926,-8.0524,-8.0614,-8.0614,-8.0614,-8.0614,-8.0614,-8.0614,-7.9537,-7.8789,-7.8789,-7.8789,-7.8789,-7.8789,-7.8789,-7.8789,-7.8789,-7.8789,-7.8789,-7.8789,-7.8789,-7.8789,-7.8789,-7.8729,-7.8699,-7.8669,-7.8041,-7.7711,-7.6355,-7.5954,-7.555,-7.6355,-7.6221,-7.6021,-7.6155,-7.5752,-7.5346,-7.5142,-7.5006,-7.4958,-7.5228,-7.6125,-7.6904,-7.7173,-7.81,-7.8789,-7.8789,-7.8789,-7.8789,-7.8789,-7.8789,-7.8789,-7.8789,-7.8789,-7.8789,-7.8789,-7.8789,-7.8789,-7.8789,-7.8789,-7.8789,-7.8789,-7.8789,-7.8789,-7.8789,-7.8789,-7.8789,-7.8789,-7.8789,-7.8789,-7.8789,-7.8789,-7.8789,-7.8789,-7.8789,-7.8789,-7.8789,-7.8789,-7.8789,-7.8789,-7.8789,-7.8789,-7.8789,-7.8789,-7.8789,-7.8789,-7.8789,-7.8789,-7.8789,-7.8789,-7.8789,-7.8789,-7.8789,-7.8789,-7.8789,-7.8789,-7.8789,-7.8789,-7.8789,-7.8789,-7.8789,-7.8789,-7.8789,-7.8908,-7.9327,-7.9417,-7.9537,-7.9926,-7.9986,-8.0075,-8.0375,-8.0405,-8.0494,-8.0764,-8.0794,-8.0794,-8.0794,-8.0794,-8.0794,-8.0794,-8.0315,-7.9986,-7.9986,-7.9627,-7.9417,-7.9417,-7.9028,-7.8789,-7.8789,-7.8789,-7.8789,-7.8789,-7.8789,-7.8789,-7.8789,-7.8789,-7.8789,-7.8789,-7.8519,-7.84,-7.6554,-7.6221,-7.5887,-7.6488,-7.6324,-7.6057,-7.6155,-7.5752,-7.5346,-7.5074,-7.4937,-7.4869,-7.4869,-7.5796,-7.6604,-7.6784,-7.7771,-7.8579,-7.8759,-7.8789,-7.8789,-7.8789,-7.8789,-7.8789,-7.8789,-7.8789,-7.8789,-7.8789,-7.8789,-7.8789,-7.8789,-7.8789,-7.8789,-7.8789,-7.8789,-7.8789,-7.8789,-7.8789,-7.8789,-7.8789,-7.8789,-7.8789,-7.8789,-7.8789,-7.8789,-7.8789,-7.8789,-7.8789,-7.8789,-7.8789,-7.8789,-7.8789,-7.8789,-7.8789,-7.8789,-7.8789,-7.8789,-7.8789,-7.8789,-7.8789,-7.8789,-7.8789,-7.8789,-7.8789,-7.8789,-7.8789,-7.8789,-7.8789,-7.8789,-7.8789,-7.8789,-7.8938,-7.9088,-7.9088,-7.9238,-7.9507,-7.9986,-8.0105,-8.0255,-8.0704,-8.0794,-8.0853,-8.1063,-8.1093,-8.1153,-8.1362,-8.1392,-8.1392,-8.1392,-8.1392,-8.1392,-8.1392,-8.1392,-8.1212,-8.0823,-8.0375,-8.0105,-8.0105,-7.9477,-7.9088,-7.9088,-7.8908,-7.8789,-7.8789,-7.8789,-7.8789,-7.8789,-7.8789,-7.8789,-7.8789,-7.8789,-7.8789,-7.6818,-7.6752,-7.6554,-7.6884,-7.6752,-7.6488,-7.6488,-7.5954,-7.5414,-7.5414,-7.5142,-7.4869,-7.4869,-7.5437,-7.6125,-7.6724,-7.7382,-7.8041,-7.8699,-7.8789,-7.8789,-7.8789,-7.8789,-7.8789,-7.8789,-7.8789,-7.8789,-7.8789,-7.8789,-7.8789,-7.8789,-7.8789,-7.8789,-7.8789,-7.8789,-7.8789,-7.8789,-7.8789,-7.8789,-7.8789,-7.8789,-7.8789,-7.8789,-7.8789,-7.8789,-7.8789,-7.8789,-7.8789,-7.8789,-7.8789,-7.8789,-7.8789,-7.8789,-7.8789,-7.8789,-7.8789,-7.8789,-7.8789,-7.8789,-7.8789,-7.8789,-7.8789,-7.8789,-7.8789,-7.8789,-7.8789,-7.8789,-7.8789,-7.8789,-7.8789,-7.8789,-7.9297,-7.9806,-7.9806,-8.0315,-8.0764,-8.0794,-8.0794,-8.0794,-8.0794,-8.0794,-8.1003,-8.1661,-8.1781,-8.1991,-8.2649,-8.2814,-8.2814,-8.2814,-8.2814,-8.2814,-8.2814,-8.2814,-8.22,-8.0913,-8.0794,-8.0794,-8.0794,-8.0165,-7.9806,-7.9806,-7.9148,-7.8789,-7.8789,-7.8789,-7.8789,-7.8789,-7.8789,-7.8789,-7.8789,-7.8789,-7.8789,-7.662,-7.662,-7.6488,-7.6355,-7.6221,-7.6088,-7.5819,-7.5414,-7.5074,-7.5074,-7.4937,-7.4869,-7.4869,-7.5437,-7.6125,-7.6724,-7.7382,-7.8041,-7.8699,-7.8789,-7.8789,-7.8789,-7.8789,-7.8789,-7.8789,-7.8789,-7.8789,-7.8789,-7.8789,-7.8789,-7.8789,-7.8789,-7.8789,-7.8789,-7.8789,-7.8789,-7.8789,-7.8789,-7.8789,-7.8789,-7.8789,-7.8789,-7.8789,-7.8789,-7.8789,-7.8789,-7.8789,-7.8789,-7.8789,-7.8789,-7.8789,-7.8789,-7.8789,-7.8789,-7.8789,-7.8789,-7.8789,-7.8789,-7.8789,-7.9088,-7.9507,-7.9507,-7.9806,-8.0165,-8.0165,-7.9537,-7.8878,-7.9357,-7.9507,-7.9597,-8.0045,-8.0315,-8.0494,-8.0494,-8.0644,-8.0913,-8.1362,-8.1482,-8.1601,-8.205,-8.214,-8.22,-8.2409,-8.2439,-8.2529,-8.2814,-8.2844,-8.2844,-8.2844,-8.2844,-8.2844,-8.2844,-8.2844,-8.2589,-8.217,-8.1721,-8.1482,-8.1482,-8.0853,-8.0494,-8.0494,-7.9836,-7.9507,-7.9507,-7.9028,-7.8789,-7.8789,-7.8789,-7.8789,-7.8789,-7.8789,-7.8789,-7.6686,-7.6488,-7.6258,-7.6221,-7.5954,-7.5715,-7.5482,-7.5142,-7.4869,-7.4869,-7.4869,-7.4869,-7.4869,-7.5228,-7.5736,-7.6365,-7.7023,-7.7682,-7.834,-7.8639,-7.8789,-7.8789,-7.8789,-7.8789,-7.8789,-7.8789,-7.8789,-7.8789,-7.8789,-7.8789,-7.8789,-7.8789,-7.8789,-7.8789,-7.8789,-7.8789,-7.8789,-7.8789,-7.8789,-7.8789,-7.8789,-7.8789,-7.8789,-7.8789,-7.8789,-7.8789,-7.8789,-7.8789,0.0,-7.8789,-7.8789,-7.8789,-7.8789,-7.8789,-7.8819,-7.9088,-7.9178,-7.9208,-7.9477,-7.9836,-8.0195,-8.0195,-8.0464,-8.0794,-8.0794,-8.0225,-7.9627,-8.0075,-8.0195,-8.0285,-8.0704,-8.0973,-8.1183,-8.1183,-8.1362,-8.1661,-8.205,-8.214,-8.226,-8.2679,-8.2844,-8.2844,-8.2844,-8.2844,-8.2844,-8.2844,-8.2844,-8.2844,-8.2844,-8.2844,-8.2844,-8.2844,-8.2844,-8.2844,-8.2844,-8.238,-8.214,-8.214,-8.1542,-8.1183,-8.1183,-8.0524,-8.0075,-7.9806,-7.9387,-7.9058,-7.8789,-7.8789,-7.8789,-7.8789,-7.8789,-7.8789,0.0,-7.6391,-7.599,-7.6355,-7.5887,-7.5414,-7.5414,-7.5142,0.0,-7.4937,-7.4937,-7.4869,-7.4869,-7.4869,-7.5108,-7.5796,-7.6425,-7.7053,-7.7711,-7.837,-7.8789,-7.8789,-7.8789,-7.8789,-7.8789,-7.8789,-7.8789,-7.8789,-7.8789,-7.8789,-7.8789,-7.8789,-7.8789,-7.8789,-7.8789,-7.8789,-7.8789,-7.8789,-7.8789,-7.8789,-7.8789,-7.8789,-7.8789,-7.8789,-7.8789,-7.8789,-7.8789,-7.8789,-7.8789,-7.8789,-7.8789,-7.8789,-7.8849,-7.8849,-7.8938,-7.9627,-7.9896,-7.9986,-8.0584,-8.0823,-8.0883,-8.0913,-8.0943,-8.0943,-8.0943,-8.0883,-8.0823,-8.0853,-8.0883,-8.0883,-8.0913,-8.1392,-8.1841,-8.1841,-8.232,-8.2844,-8.2844,-8.2844,-8.2844,-8.2844,-8.2844,-8.2844,-8.2844,-8.2844,-8.2844,-8.2844,-8.2844,-8.2844,-8.2844,-8.2844,-8.2844,-8.2844,-8.2844,-8.2844,-8.2844,-8.2844,-8.2844,-8.2844,-8.22,-8.1841,-8.1841,-8.1212,-8.0584,-7.9956,-7.9866,-7.9477,-7.8789,-7.8789,-7.8789,-7.8789,-7.8789,-7.8789,-7.6288,0.0,-7.5887,-7.5414,-7.5346,-7.5414,0.0,-7.5142,-7.4937,-7.521,-7.5074,-7.4869,-7.4869,-7.4869,-7.5108,-7.5796,-7.6425,-7.7053,-7.7711,-7.837,-7.8789,-7.8789,-7.8789,-7.8789,-7.8789,-7.8789,-7.8789,-7.8789,-7.8789,-7.8789,-7.8789,-7.8789,-7.8789,-7.8789,-7.8789,-7.8789,-7.8789,-7.8789,-7.8789,-7.8789,-7.8789,-7.8789,-7.8789,-7.8789,-7.8789,-7.8789,-7.8789,-7.8789,-7.8789,-7.8789,-7.8789,-7.8849,-7.9357,-7.9567,-7.9656,-8.0315,-8.0554,-8.0584,-8.0764,-8.1123,-8.1631,-8.214,-8.229,-8.229,-8.229,-8.1601,-8.0913,-8.1422,-8.1542,-8.1661,-8.217,-8.2409,-8.2529,-8.2529,-8.2649,-8.2844,-8.2844,-8.2844,-8.2844,-8.2844,-8.2844,-8.2844,-8.2844,-8.2844,-8.2844,-8.2844,-8.2844,-8.2844,-8.2844,-8.2844,-8.2844,-8.2844,-8.2844,-8.2844,-8.2844,-8.2844,-8.2844,-8.2844,-8.2619,-8.2529,-8.2529,-8.1901,-8.1482,-8.1332,-8.0345,-7.9477,-7.8789,-7.8789,-7.8789,-7.8789,-7.8789,-7.8789,-7.5819,-7.5819,-7.5819,-7.5278,-7.5278,-7.5346,-7.521,-7.5006,-7.4937,-7.5142,-7.5006,-7.4937,-7.5074,-7.5006,-7.5057,-7.5584,-7.6285,-7.7173,-7.813,-7.8579,-7.8789,-7.8789,-7.8789,-7.8789,-7.8789,-7.8789,-7.8789,-7.8789,-7.8789,-7.8789,-7.8789,-7.8789,-7.8789,-7.8789,-7.8789,-7.8789,-7.8789,-7.8789,-7.8789,-7.8789,-7.8789,-7.8789,-7.8789,-7.8789,-7.8789,-7.8789,-7.8789,-7.8789,-7.8819,-7.9118,-7.9267,-7.9327,-8.0016,-8.0285,-8.0345,-8.1003,-8.1242,-8.1302,-8.1601,-8.1931,-8.229,-8.2649,-8.2844,-8.2844,-8.2844,-8.226,-8.1781,-8.214,-8.223,-8.232,-8.2754,-8.2844,-8.2844,-8.2844,-8.2844,-8.2844,-8.2844,-8.2844,-8.2844,-8.2844,-8.2844,-8.2844,-8.2844,-8.2844,-8.2844,-8.2844,-8.2844,-8.2844,-8.2844,-8.2844,-8.2844,-8.2844,-8.2844,-8.2844,-8.2844,-8.2844,-8.2844,-8.2844,-8.2844,-8.2844,-8.2844,-8.2409,-8.208,-8.1781,-8.0794,-7.9926,-7.9267,-7.9267,-7.9088,-7.8789,-7.8789,-7.8789,-7.555,-7.5752,-7.5923,-7.555,-7.5482,-7.5414,-7.5142,-7.5006,-7.4937,-7.4937,-7.4937,-7.5006,-7.5278,-7.5074,-7.5006,-7.5278,-7.6184,-7.7293,-7.8609,-7.8789,-7.8789,-7.8789,-7.8789,-7.8789,-7.8789,-7.8789,-7.8789,-7.8789,-7.8789,-7.8789,-7.8789,-7.8789,-7.8789,-7.8789,-7.8789,-7.8789,-7.8789,-7.8789,-7.8789,-7.8789,-7.8789,-7.8789,-7.8789,-7.8789,-7.8789,-7.8789,-7.8789,-7.8849,-7.8998,-7.9567,-7.9866,-8.0045,-8.0704,-8.0943,-8.1033,-8.1691,-8.1931,-8.202,-8.2559,-8.2844,-8.2844,-8.2844,-8.2844,-8.2844,-8.2844,-8.2844,-8.2844,-8.2844,-8.2844,-8.2844,-8.2844,-8.2844,-8.2844,-8.2844,-8.2844,-8.2844,-8.2844,-8.2844,-8.2844,-8.2844,-8.2844,-8.2844,-8.2844,-8.2844,-8.2844,-8.2844,-8.2844,-8.2844,-8.2844,-8.2844,-8.2844,-8.2844,-8.2844,-8.2844,-8.2844,-8.2844,-8.2844,-8.2844,-8.2844,-8.2844,-8.2844,-8.2844,-8.2439,-8.1781,-8.1242,-8.0614,-7.9956,-7.9866,-7.9507,-7.8938,-7.8849,-7.8789,-7.5917,-7.6155,-7.6324,-7.5923,-7.5887,-7.5917,-7.585,-7.558,-7.5346,-7.5346,-7.5074,-7.4937,-7.4937,-7.4937,-7.4937,-7.4937,-7.5976,-7.7293,-7.8609,-7.8789,-7.8789,-7.8789,-7.8789,-7.8789,-7.8789,-7.8789,-7.8789,-7.8789,-7.8789,-7.8789,-7.8789,-7.8789,-7.8789,-7.8789,-7.8789,-7.8789,-7.8789,-7.8789,-7.8789,-7.8789,-7.8789,-7.8789,-7.8789,-7.8789,-7.8789,-7.8789,-7.8789,-7.9118,-7.9656,-7.9776,-8.0135,-8.0704,-8.1362,-8.1631,-8.1721,-8.238,-8.2619,-8.2619,-8.2709,-8.2844,-8.2844,-8.2844,-8.2844,-8.2844,-8.2844,-8.2844,-8.2844,-8.2844,-8.2844,-8.2844,-8.2844,-8.2844,-8.2844,-8.2844,-8.2844,-8.2844,-8.2844,-8.2844,-8.2844,-8.2844,-8.2844,-8.2844,-8.2844,-8.2844,-8.2844,-8.2844,-8.2844,-8.2844,-8.2844,-8.2844,-8.2844,-8.2844,-8.2844,-8.2844,-8.2844,-8.2844,-8.2844,-8.2844,-8.2844,-8.2844,-8.2844,-8.2844,-8.2439,-8.1781,-8.1691,-8.1302,-8.0644,-8.0105,-7.9776,-7.9656,-7.9058,-7.8789,-7.5984,-7.6221,-7.6488,-7.6258,-7.6288,-7.6155,-7.5752,-7.5715,-7.5685,-7.5685,-7.555,-7.5482,-7.5482,-7.5278,-7.5194,-7.5446,-7.6215,-7.7173,-7.813,-7.8579,-7.8789,-7.8789,-7.8789,-7.8789,-7.8789,-7.8789,-7.8789,-7.8789,-7.8789,-7.8789,-7.8789,-7.8789,-7.8789,-7.8789,-7.8789,-7.8789,-7.8789,-7.8789,-7.8789,-7.8789,-7.8789,-7.8789,-7.8789,-7.8789,-7.8789,-7.8819,-7.9178,-7.9537,-7.9866,-8.0584,-8.1063,-8.1392,-8.205,-8.232,-8.235,-8.2649,-8.2844,-8.2844,-8.2844,-8.2844,-8.2844,-8.2844,-8.2844,-8.2844,-8.2844,-8.2844,-8.2844,-8.2844,-8.2844,-8.2844,-8.2844,-8.2844,-8.2844,-8.2844,-8.2844,-8.2844,-8.2844,-8.2844,-8.2844,-8.2844,-8.2844,-8.2844,-8.2844,-8.2844,-8.2844,-8.2844,-8.2844,-8.2844,-8.2844,-8.2844,-8.2844,-8.2844,-8.2844,-8.2844,-8.2844,-8.2844,-8.2844,-8.2844,-8.2844,-8.2844,-8.2844,-8.2844,-8.2694,-8.232,-8.232,-8.1991,-8.1332,-8.1033,-8.0704,-8.0345,-7.9656,-7.9357,-7.6021,-7.6221,-7.6421,-7.6488,-7.6554,-7.6421,-7.5685,-7.5819,-7.6021,-7.5789,-7.5819,-7.5819,-7.5789,-7.555,-7.5519,-7.5866,-7.6425,-7.7053,-7.7711,-7.837,-7.8789,-7.8789,-7.8789,-7.8789,-7.8789,-7.8789,-7.8789,-7.8789,-7.8789,-7.8789,-7.8789,-7.8789,-7.8789,-7.8789,-7.8789,-7.8789,-7.8789,-7.8789,-7.8789,-7.8789,-7.8789,-7.8789,-7.8789,-7.8789,-7.8789,-7.8819,-7.9507,-7.9896,-8.0135,-8.1302,-8.1871,-8.205,-8.2559,-8.2844,-8.2844,-8.2844,-8.2844,-8.2844,-8.2844,-8.2844,-8.2844,-8.2844,-8.2844,-8.2844,-8.2844,-8.2844,-8.2844,-8.2844,-8.2844,-8.2844,-8.2844,-8.2844,-8.2844,-8.2844,-8.2844,-8.2844,-8.2844,-8.2844,-8.2844,-8.2844,-8.2844,-8.2844,-8.2844,-8.2844,-8.2844,-8.2844,-8.2844,-8.2844,-8.2844,-8.2844,-8.2844,-8.2844,-8.2844,-8.2844,-8.2844,-8.2844,-8.2844,-8.2844,-8.2844,-8.2844,-8.2844,-8.2844,-8.2844,-8.2844,-8.2844,-8.2529,-8.202,-8.1871,-8.1512,-8.1003,-8.0345,-7.9956,-7.6221,-7.6221,-7.6118,-7.6421,-7.6752,-7.6752,-7.6057,-7.6191,-7.6288,-7.555,-7.5414,-7.5414,-7.5414,-7.5414,-7.5519,-7.5866,-7.6425,-7.7053,-7.7711,-7.837,-7.8789,-7.8789,-7.8789,-7.8789,-7.8789,-7.8789,-7.8789,-7.8789,-7.8789,-7.8789,-7.8789,-7.8789,-7.8789,-7.8789,-7.8789,-7.8789,-7.8789,-7.8789,-7.8789,-7.8789,-7.8789,-7.8789,-7.8789,-7.8789,-7.8789,-7.8819,-7.9507,-8.0165,-8.0794,-8.1482,-8.214,-8.2709,-8.2814,-8.2844,-8.2844,-8.2844,-8.2844,-8.2844,-8.2844,-8.2844,-8.2844,-8.2844,-8.2844,-8.2844,-8.2844,-8.2844,-8.2844,-8.2844,-8.2844,-8.2844,-8.2844,-8.2844,-8.2844,-8.2844,-8.2844,-8.2844,-8.2844,-8.2844,-8.2844,-8.2844,-8.2844,-8.2844,-8.2844,-8.2844,-8.2844,-8.2844,-8.2844,-8.2844,-8.2844,-8.2844,-8.2844,-8.2844,-8.2844,-8.2844,-8.2844,-8.2844,-8.2844,-8.2844,-8.2844,-8.2844,-8.2844,-8.2844,-8.2844,-8.2844,-8.2844,-8.2814,-8.2754,-8.208,-8.1751,-8.1691,-8.1033,-8.0405,-7.6355,-7.6554,-7.662,-7.6554,-7.6752,-7.6884,-7.6391,-7.6391,-7.6488,-7.6421,-7.6021,-7.5752,-7.5752,-7.5414,-7.5164,-7.5502,-7.6295,-7.6904,-7.7173,-7.81,-7.8789,-7.8789,-7.8789,-7.8789,-7.8789,-7.8789,-7.8789,-7.8789,-7.8789,-7.8789,-7.8789,-7.8789,-7.8789,-7.8789,-7.8789,-7.8789,-7.8789,-7.8789,-7.8789,-7.8789,-7.8789,-7.8789,-7.8789,-7.8789,-7.9028,-7.9477,-8.0135,-8.0794,-8.1452,-8.211,-8.2529,-8.2844,-8.2844,-8.2844,-8.2844,-8.2844,-8.2844,-8.2844,-8.2844,-8.2844,-8.2844,-8.2844,-8.2844,-8.2844,-8.2844,-8.2844,-8.2844,-8.2844,-8.2844,-8.2844,-8.2844,-8.2844,-8.2844,-8.2844,-8.2844,-8.2844,-8.2844,-8.2844,-8.2844,-8.2844,-8.2844,-8.2844,-8.2844,-8.2844,-8.2844,-8.2844,-8.2844,-8.2844,-8.2844,-8.2844,-8.2844,-8.2844,-8.2844,-8.2844,-8.2844,-8.2844,-8.2844,-8.2844,-8.2844,-8.2844,-8.2844,-8.2844,-8.2844,-8.2844,-8.2844,-8.2844,-8.2844,-8.2529,-8.238,-8.238,-8.1721,-8.1272,-7.6421,-7.6686,-7.6818,-7.6686,-7.6752,-7.6818,-7.6686,-7.6686,-7.662,-7.6488,-7.6221,-7.5917,-7.5715,-7.5414,-7.521,-7.521,-7.6115,-7.6814,-7.6814,-7.7951,-7.8789,-7.8789,-7.8789,-7.8789,-7.8789,-7.8789,-7.8789,-7.8789,-7.8789,-7.8789,-7.8789,-7.8789,-7.8789,-7.8789,-7.8789,-7.8789,-7.8789,-7.8789,-7.8789,-7.8789,-7.8789,-7.8789,-7.8789,-7.9028,-7.9387,-7.9866,-8.0734,-8.1362,-8.1841,-8.2499,-8.2844,-8.2844,-8.2844,-8.2844,-8.2844,-8.2844,-8.2844,-8.2844,-8.2844,-8.2844,-8.2844,-8.2844,-8.2844,-8.2844,-8.2844,-8.2844,-8.2844,-8.2844,-8.2844,-8.2844,-8.2844,-8.2844,-8.2844,-8.2844,-8.2844,-8.2844,-8.2844,-8.2844,-8.2844,-8.2844,-8.2844,-8.2844,-8.2844,-8.2844,-8.2844,-8.2844,-8.2844,-8.2844,-8.2844,-8.2844,-8.2844,-8.2844,-8.2844,-8.2844,-8.2844,-8.2844,-8.2844,-8.2844,-8.2844,-8.2844,-8.2844,-8.2844,-8.2844,-8.2844,-8.2844,-8.2844,-8.2844,-8.2844,-8.2844,-8.2814,-8.229,-8.1991,-7.6421,-7.6457,-7.662,-7.6884,-7.6752,-7.662,-7.6884,-7.7016,-7.6686,-7.5617,-7.5715,-7.5782,-7.5006,-7.5482,-7.5782,-7.5006,-7.5976,-7.6814,-7.6814,-7.7951,-7.8789,-7.8789,-7.8789,-7.8789,-7.8789,-7.8789,-7.8789,-7.8789,-7.8789,-7.8789,-7.8789,-7.8789,-7.8789,-7.8789,-7.8789,-7.8789,-7.8789,-7.8789,-7.8789,-7.8789,-7.8789,-7.8789,-7.8819,-7.9507,-7.9836,-7.9896,-8.1212,-8.1781,-8.1841,-8.2499,-8.2844,-8.2844,-8.2844,-8.2844,-8.2844,-8.2844,-8.2844,-8.2844,-8.2844,-8.2844,-8.2844,-8.2844,-8.2844,-8.2844,-8.2844,-8.2844,-8.2844,-8.2844,-8.2844,-8.2844,-8.2844,-8.2844,-8.2844,-8.2844,-8.2844,-8.2844,-8.2844,-8.2844,-8.2844,-8.2844,-8.2844,-8.2844,-8.2844,-8.2844,-8.2844,-8.2844,-8.2844,-8.2844,-8.2844,-8.2844,-8.2844,-8.2844,-8.2844,-8.2844,-8.2844,-8.2844,-8.2844,-8.2844,-8.2844,-8.2844,-8.2844,-8.2844,-8.2844,-8.2844,-8.2844,-8.2844,-8.2844,-8.2844,-8.2844,-8.2844,-8.2844,-8.2409,-7.6752,-7.6884,-7.6884,-7.695,-7.695,-7.6818,-7.6686,-7.6488,-7.6118,-7.5482,-7.5482,-7.5482,-7.5278,-7.521,-7.521,-7.521,-7.5755,-7.6335,-7.6754,-7.7562,-7.828,-7.8729,-7.8789,-7.8789,-7.8789,-7.8789,-7.8789,-7.8789,-7.8789,-7.8789,-7.8789,-7.8789,-7.8789,-7.8789,-7.8789,-7.8789,-7.8789,-7.8789,-7.8789,-7.8789,-7.9297,-7.9507,-7.9507,-7.9716,-8.0315,-8.1212,-8.1601,-8.205,-8.2499,-8.2754,-8.2844,-8.2844,-8.2844,-8.2844,-8.2844,-8.2844,-8.2844,-8.2844,-8.2844,-8.2844,-8.2844,-8.2844,-8.2844,-8.2844,-8.2844,-8.2844,-8.2844,-8.2844,-8.2844,-8.2844,-8.2844,-8.2844,-8.2844,-8.2844,-8.2844,-8.2844,-8.2844,-8.2844,-8.2844,-8.2844,-8.2844,-8.2844,-8.2844,-8.2844,-8.2844,-8.2844,-8.2844,-8.2844,-8.2844,-8.2844,-8.2844,-8.2844,-8.2844,-8.2844,-8.2844,-8.2844,-8.2844,-8.2844,-8.2844,-8.2844,-8.2844,-8.2844,-8.2844,-8.2844,-8.2844,-8.2844,-8.2844,-8.2844,-8.2844,-8.2844,-8.2844,-8.2649,-7.6818,-7.6884,-7.695,-7.6818,-7.6818,-7.6686,-7.6355,-7.6021,-7.5685,-7.5414,-7.5414,-7.5346,-7.521,-7.5142,-7.5142,-7.521,-7.5605,-7.6125,-7.6754,-7.7382,-7.8041,-7.8699,-7.8789,-7.8789,-7.8789,-7.8789,-7.8789,-7.8789,-7.8789,-7.8789,-7.8789,-7.8789,-7.8789,-7.8789,-7.8789,-7.8789,-7.8789,-7.8789,-7.8938,-7.9208,-7.9627,-8.0105,-8.0584,-8.0584,-8.1033,-8.1781,-8.205,-8.2409,-8.2844,-8.2844,-8.2844,-8.2844,-8.2844,-8.2844,-8.2844,-8.2844,-8.2844,-8.2844,-8.2844,-8.2844,-8.2844,-8.2844,-8.2844,-8.2844,-8.2844,-8.2844,-8.2844,-8.2844,-8.2844,-8.2844,-8.2844,-8.2844,-8.2844,-8.2844,-8.2844,-8.2844,-8.2844,-8.2844,-8.2844,-8.2844,-8.2844,-8.2844,-8.2844,-8.2844,-8.2844,-8.2844,-8.2844,-8.2844,-8.2844,-8.2844,-8.2844,-8.2844,-8.2844,-8.2844,-8.2844,-8.2844,-8.2844,-8.2844,-8.2844,-8.2844,-8.2844,-8.2844,-8.2844,-8.2844,-8.2844,-8.2844,-8.2844,-8.2844,-8.2844,-8.2844,-8.2844,-8.2844,-7.662,-7.6752,-7.6884,-7.662,-7.6554,-7.6421,-7.6118,-7.5685,-7.5414,-7.5414,-7.5414,-7.5278,-7.4937,-7.5142,-7.5278,-7.4937,-7.5407,-7.6036,-7.6724,-7.7352,-7.7981,-7.8699,-7.8789,-7.8789,-7.8789,-7.8789,-7.8789,-7.8789,-7.8789,-7.8789,-7.8789,-7.8789,-7.8789,-7.8789,-7.8789,-7.8789,-7.8789,-7.8849,-7.9208,-7.9806,-7.9926,-8.0614,-8.1781,-8.1781,-8.1811,-8.1901,-8.2499,-8.2844,-8.2844,-8.2844,-8.2844,-8.2844,-8.2844,-8.2844,-8.2844,-8.2844,-8.2844,-8.2844,-8.2844,-8.2844,-8.2844,-8.2844,-8.2844,-8.2844,-8.2844,-8.2844,-8.2844,-8.2844,-8.2844,-8.2844,-8.2844,-8.2844,-8.2844,-8.2844,-8.2844,-8.2844,-8.2844,-8.2844,-8.2844,-8.2844,-8.2844,-8.2844,-8.2844,-8.2844,-8.2844,-8.2844,-8.2844,-8.2844,-8.2844,-8.2844,-8.2844,-8.2844,-8.2844,-8.2844,-8.2844,-8.2844,-8.2844,-8.2844,-8.2844,-8.2844,-8.2844,-8.2844,-8.2844,-8.2844,-8.2844,-8.2844,-8.2844,-8.2844,-8.2844,-8.2844,-8.2844,-8.2844,-7.6752,-7.6752,-7.6686,-7.6818,-7.6686,-7.6488,-7.6421,-7.5887,-7.5414,-7.5414,-7.5414,-7.5278,-7.4937,-7.4937,-7.5006,-7.4869,-7.4988,-7.5497,-7.6664,-7.6933,-7.7472,-7.8639,-7.8789,-7.8789,-7.8789,-7.8789,-7.8789,-7.8789,-7.8789,-7.8789,-7.8789,-7.8789,-7.8789,-7.8789,-7.8789,-7.8789,-7.8789,-7.9327,-7.9686,-7.9836,-8.0853,-8.1512,-8.1781,-8.1781,-8.205,-8.2559,-8.2784,-8.2844,-8.2844,-8.2844,-8.2844,-8.2844,-8.2844,-8.2844,-8.2844,-8.2844,-8.2844,-8.2844,-8.2844,-8.2844,-8.2844,-8.2844,-8.2844,-8.2844,-8.2844,-8.2844,-8.2844,-8.2844,-8.2844,-8.2844,-8.2844,-8.2844,-8.2844,-8.2844,-8.2844,-8.2844,-8.2844,-8.2844,-8.2844,-8.2844,-8.2844,-8.2844,-8.2844,-8.2844,-8.2844,-8.2844,-8.2844,-8.2844,-8.2844,-8.2844,-8.2844,-8.2844,-8.2844,-8.2844,-8.2844,-8.2844,-8.2844,-8.2844,-8.2844,-8.2844,-8.2844,-8.2844,-8.2844,-8.2844,-8.2844,-8.2844,-8.2844,-8.2844,-8.2844,-8.2844,-8.2844,-8.2844,-7.6686,-7.6752,-7.6818,-7.695,-7.6752,-7.6488,-7.6488,-7.6221,-7.5887,-7.5685,-7.5414,-7.5142,-7.5142,-7.5006,-7.4869,-7.4869,-7.4869,-7.5318,-7.6634,-7.6814,-7.7322,-7.8639,-7.8789,-7.8789,-7.8789,-7.8789,-7.8789,-7.8789,-7.8789,-7.8789,-7.8789,-7.8789,-7.8789,-7.8789,-7.8789,-7.8938,-7.9297,-7.9627,-8.0135,-8.0764,-8.1452,-8.1931,-8.226,-8.226,-8.2439,-8.2844,-8.2844,-8.2844,-8.2844,-8.2844,-8.2844,-8.2844,-8.2844,-8.2844,-8.2844,-8.2844,-8.2844,-8.2844,-8.2844,-8.2844,-8.2844,-8.2844,-8.2844,-8.2844,-8.2844,-8.2844,-8.2844,-8.2844,-8.2844,-8.2844,-8.2844,-8.2844,-8.2844,-8.2844,-8.2844,-8.2844,-8.2844,-8.2844,-8.2844,-8.2844,-8.2844,-8.2844,-8.2844,-8.2844,-8.2844,-8.2844,-8.2844,-8.2844,-8.2844,-8.2844,-8.2844,-8.2844,-8.2844,-8.2844,-8.2844,-8.2844,-8.2844,-8.2844,-8.2844,-8.2844,-8.2844,-8.2844,-8.2844,-8.2844,-8.2844,-8.2844,-8.2844,-8.2844,-8.2844,-8.2844,-8.2844,-8.2844,-7.662,-7.6818,-7.7016,-7.7016,-7.6752,-7.6554,-7.6554,-7.6488,-7.6355,-7.6252,-7.5617,-7.521,-7.5414,-7.521,-7.5006,-7.5006,-7.4937,-7.5318,-7.6634,-7.6814,-7.7322,-7.8639,-7.8789,-7.8789,-7.8789,-7.8789,-7.8789,-7.8789,-7.8789,-7.8789,-7.8789,-7.8789,-7.8789,-7.8789,-7.8789,-7.9118,-7.9806,-7.9926,-8.0584,-8.1781,-8.1901,-8.223,-8.2844,-8.2844,-8.2844,-8.2844,-8.2844,-8.2844,-8.2844,-8.2844,-8.2844,-8.2844,-8.2844,-8.2844,-8.2844,-8.2844,-8.2844,-8.2844,-8.2844,-8.2844,-8.2844,-8.2844,-8.2844,-8.2844,-8.2844,-8.2844,-8.2844,-8.2844,-8.2844,-8.2844,-8.2844,-8.2844,-8.2844,-8.2844,-8.2844,-8.2844,-8.2844,-8.2844,-8.2844,-8.2844,-8.2844,-8.2844,-8.2844,-8.2858,-8.2948,-8.2948,-8.3008,-8.3098,-8.3098,-8.3098,-8.3068,-8.2948,-8.2948,-8.2888,-8.2769,-8.2844,-8.2844,-8.2844,-8.2844,-8.2844,-8.2844,-8.2844,-8.2844,-8.2844,-8.2844,-8.2844,-8.2844,-8.2844,-8.2844,-8.2844,-8.2844,-8.2844,-7.6752,-7.695,-7.7016,-7.7016,-7.6752,-7.662,-7.6884,-7.6488,-7.6252,-7.6752,-7.6554,-7.6191,-7.5856,-7.555,-7.5346,-7.5346,-7.5074,-7.5318,-7.6634,-7.6814,-7.7322,-7.8639,-7.8789,-7.8789,-7.8789,-7.8789,-7.8789,-7.8789,-7.8789,-7.8789,-7.8789,-7.8789,-7.8789,-7.8789,-7.8789,-7.9118,-7.9806,-8.0375,-8.1033,-8.1781,-8.235,-8.2679,-8.2844,-8.2844,-8.2844,-8.2844,-8.2844,-8.2844,-8.2844,-8.2844,-8.2844,-8.2844,-8.2844,-8.2844,-8.2844,-8.2844,-8.2844,-8.2844,-8.2844,-8.2844,-8.2844,-8.2844,-8.2844,-8.2844,-8.2844,-8.2844,-8.2844,-8.2844,-8.2844,-8.2844,-8.2844,-8.2844,-8.2844,-8.2844,-8.2844,-8.2844,-8.2844,-8.2844,-8.2844,-8.2844,-8.2844,-8.2844,-8.2844,-8.3217,-8.3606,-8.3606,-8.4085,-8.4444,-8.4444,-8.4444,-8.4235,-8.3666,-8.3606,-8.3367,-8.2798,-8.2844,-8.2844,-8.2844,-8.2844,-8.2844,-8.2844,-8.2844,-8.2844,-8.2844,-8.2844,-8.2844,-8.2844,-8.2844,-8.2844,-8.2844,-8.2844,-8.2844,-7.6884,-7.7016,-7.7016,-7.7016,-7.6752,-7.662,-7.695,-7.662,-7.6421,-7.6884,-7.6884,-7.6686,-7.6324,-7.5752,-7.5414,-7.5414,-7.5404,-7.5766,-7.6694,-7.7143,-7.7741,-7.8669,-7.8789,-7.8789,-7.8789,-7.8789,-7.8789,-7.8789,-7.8789,-7.8789,-7.8789,-7.8789,-7.8789,-7.8789,-7.9178,-7.9686,-8.0345,-8.1033,-8.1691,-8.232,-8.2619,-8.2844,-8.2844,-8.2844,-8.2844,-8.2844,-8.2844,-8.2844,-8.2844,-8.2844,-8.2844,-8.2844,-8.2844,-8.2844,-8.2844,-8.2844,-8.2844,-8.2844,-8.2844,-8.2844,-8.2844,-8.2844,-8.2844,-8.2844,-8.2844,-8.2844,-8.2844,-8.2844,-8.2844,-8.2844,-8.2844,-8.2844,-8.2844,-8.2844,-8.2844,-8.2844,-8.2844,-8.2844,-8.2844,-8.2844,-8.3068,-8.3307,-8.3307,-8.3547,-8.3726,-8.3726,-8.3666,-8.3636,-8.3636,-8.3636,-8.3517,-8.3217,-8.3187,-8.3068,-8.2769,-8.2844,-8.2844,-8.2844,-8.2844,-8.2844,-8.2844,-8.2844,-8.2844,-8.2844,-8.2844,-8.2844,-8.2844,-8.2844,-8.2844,-8.2844,-8.2844,-8.2844,-7.7016,-7.7016,-7.7016,-7.7016,-7.6818,-7.6686,-7.695,-7.6818,-7.6686,-7.695,-7.7016,-7.695,-7.6686,-7.6021,-7.555,-7.555,-7.5743,-7.6125,-7.6754,-7.7382,-7.8041,-7.8699,-7.8789,-7.8789,-7.8789,-7.8789,-7.8789,-7.8789,-7.8789,-7.8789,-7.8789,-7.8789,-7.8878,-7.9058,-7.9567,-8.0225,-8.1033,-8.1691,-8.229,-8.2844,-8.2844,-8.2844,-8.2844,-8.2844,-8.2844,-8.2844,-8.2844,-8.2844,-8.2844,-8.2844,-8.2844,-8.2844,-8.2844,-8.2844,-8.2844,-8.2844,-8.2844,-8.2844,-8.2844,-8.2844,-8.2844,-8.2844,-8.2844,-8.2844,-8.2844,-8.2844,-8.2844,-8.2844,-8.2844,-8.2844,-8.2844,-8.2844,-8.2844,-8.2844,-8.2844,-8.2844,-8.2844,-8.2844,-8.2844,-8.2844,-8.3158,-8.3487,-8.3487,-8.3636,-8.3726,-8.3726,-8.3457,-8.3247,-8.3247,-8.3247,-8.3187,-8.3038,-8.3008,-8.2948,-8.2769,-8.2844,-8.2844,-8.2844,-8.2844,-8.2844,-8.2844,-8.2844,-8.2844,-8.2844,-8.2844,-8.2844,-8.2844,-8.2844,-8.2844,-8.2844,-8.2844,-8.2844,-7.7016,-7.7016,-7.7016,-7.7016,-7.695,-7.695,-7.7016,-7.695,-7.695,-7.7016,-7.7016,-7.7016,-7.695,-7.6421,-7.5954,-7.5856,-7.5918,-7.6125,-7.6754,-7.7382,-7.8041,-7.8699,-7.8789,-7.8789,-7.8789,-7.8789,-7.8789,-7.8789,-7.8789,-7.8789,-7.8789,-7.8789,-7.9088,-7.9746,-7.9806,-8.0434,-8.1721,-8.238,-8.2814,-8.2844,-8.2844,-8.2844,-8.2844,-8.2844,-8.2844,-8.2844,-8.2844,-8.2844,-8.2844,-8.2844,-8.2844,-8.2844,-8.2844,-8.2844,-8.2844,-8.2844,-8.2844,-8.2844,-8.2844,-8.2844,-8.2844,-8.2844,-8.2844,-8.2844,-8.2844,-8.2844,-8.2844,-8.2844,-8.2844,-8.2844,-8.2844,-8.2844,-8.2844,-8.2844,-8.2844,-8.2844,-8.2844,-8.2844,-8.2844,-8.2844,-8.2798,-8.2828,-8.2828,-8.3337,-8.3726,-8.3726,-8.4235,-8.4624,-8.4624,-8.4624,-8.4384,-8.3756,-8.3666,-8.3427,-8.2828,-8.2844,-8.2844,-8.2844,-8.2844,-8.2844,-8.2844,-8.2844,-8.2844,-8.2844,-8.2844,-8.2844,-8.2844,-8.2844,-8.2844,-8.2844,-8.2844,-8.2844,-7.7016,-7.7016,-7.7016,-7.7016,-7.7016,-7.7016,-7.7016,-7.7016,-7.7016,-7.7016,-7.7016,-7.7016,-7.7016,-7.6421,-7.5984,-7.5954,-7.628,-7.6574,-7.6784,-7.7771,-7.8519,-7.8759,-7.8789,-7.8789,-7.8789,-7.8789,-7.8789,-7.8789,-7.8789,-7.8789,-7.8789,-7.8789,-7.9118,-7.9806,-8.0225,-8.1093,-8.2409,-8.2649,-8.2844,-8.2844,-8.2844,-8.2844,-8.2844,-8.2844,-8.2844,-8.2844,-8.2844,-8.2844,-8.2844,-8.2844,-8.2844,-8.2844,-8.2844,-8.2844,-8.2844,-8.2844,-8.2844,-8.2844,-8.2844,-8.2844,-8.2844,-8.2844,-8.2844,-8.2844,-8.2844,-8.2844,-8.2844,-8.2844,-8.2844,-8.2844,-8.2844,-8.2844,-8.2844,-8.2844,-8.2844,-8.2844,-8.2844,-8.2844,-8.2844,-8.2844,-8.3098,-8.3397,-8.3397,-8.3576,-8.3726,-8.3726,-8.3576,-8.3457,-8.3457,-8.3457,-8.3367,-8.3128,-8.3098,-8.3008,-8.2769,-8.2844,-8.2844,-8.2844,-8.2844,-8.2844,-8.2844,-8.2844,-8.2844,-8.2844,-8.2844,-8.2844,-8.2844,-8.2844,-8.2844,-8.2844,-8.2844,-8.2844,-7.7016,-7.7016,-7.7016,-7.7016,-7.7016,-7.7016,-7.7016,-7.7016,-7.7016,-7.7016,-7.7016,-7.7016,-7.7016,-7.6421,-7.5984,-7.5954,-7.646,-7.6814,-7.6814,-7.7951,-7.8789,-7.8789,-7.8789,-7.8789,-7.8789,-7.8789,-7.8789,-7.8789,-7.8789,-7.8789,-7.8789,-7.8998,-7.9537,-8.0434,-8.1123,-8.1871,-8.2814,-8.2844,-8.2844,-8.2844,-8.2844,-8.2844,-8.2844,-8.2844,-8.2844,-8.2844,-8.2844,-8.2844,-8.2844,-8.2844,-8.2844,-8.2844,-8.2844,-8.2844,-8.2844,-8.2844,-8.2844,-8.2844,-8.2844,-8.2844,-8.2844,-8.2844,-8.2844,-8.2844,-8.2844,-8.2844,-8.2844,-8.2844,-8.2844,-8.2844,-8.2844,-8.2844,-8.2844,-8.2844,-8.2844,-8.2844,-8.2844,-8.2844,-8.2844,-8.2844,-8.3098,-8.3397,-8.3397,-8.3397,-8.3397,-8.3397,-8.3038,-8.2844,-8.2844,-8.2844,-8.2844,-8.2844,-8.2844,-8.2844,-8.2844,-8.2844,-8.2844,-8.2844,-8.2844,-8.2844,-8.2844,-8.2844,-8.2844,-8.2844,-8.2844,-8.2844,-8.2844,-8.2844,-8.2844,-8.2844,-8.2844,-8.2844,0.0,0.0,0.0,-7.7016,-7.7016,-7.7016,-7.7016,-7.7016,-7.7016,-7.7016,-7.7016,-7.7016,-7.7016,-7.6421,-7.5954,-7.5923,-7.643,-7.6814,-7.6814,-7.7951,-7.8759,-7.8789,-7.8789,-7.8789,-7.8789,-7.8789,-7.8789,-7.8789,-7.8789,-7.8789,-7.8789,-7.9447,-8.0434,-8.1751,-8.2409,-8.2844,-8.2844,-8.2844,-8.2844,-8.2844,-8.2844,-8.2844,-8.2844,-8.2844,-8.2844,-8.2844,-8.2844,-8.2844,-8.2844,-8.2844,-8.2844,-8.2844,-8.2844,-8.2844,-8.2844,-8.2844,-8.2844,-8.2844,-8.2844,-8.2844,-8.2844,-8.2844,-8.2844,-8.2844,-8.2844,-8.2844,-8.2844,-8.2844,-8.2844,-8.2844,-8.2844,-8.2844,-8.2844,-8.2844,-8.2844,-8.2844,-8.2844,-8.2844,-8.2844,-8.2844,-8.2844,-8.2844,-8.2844,-8.2844,-8.2844,-8.2844,-8.2844,-8.2844,-8.2844,-8.2844,-8.2844,-8.2844,-8.2844,-8.2844,-8.2844,-8.2844,-8.2844,-8.2844,-8.2844,-8.2844,-8.2844,-8.2844,-8.2844,-8.2844,-8.2844,-8.2844,-8.2844,-8.2844,-8.2844,-8.2844,-8.2844,-8.2844,-7.7139,0.0,0.0,0.0,0.0,0.0,-7.7016,-7.7016,-7.7016,-7.7016,-7.7016,-7.7016,-7.7016,-7.6421,-7.5954,-7.5954,-7.6069,-7.6305,-7.6754,-7.7562,-7.825,-7.8729,-7.8789,-7.8789,-7.8789,-7.8789,-7.8789,-7.8789,-7.8789,-7.8789,-7.8789,-7.9896,-8.0913,-8.1751,-8.2409,-8.2844,-8.2844,-8.2844,-8.2844,-8.2844,-8.2844,-8.2844,-8.2844,-8.2844,-8.2844,-8.2844,-8.2844,-8.2844,-8.2844,-8.2844,-8.2844,-8.2844,-8.2844,-8.2844,-8.2844,-8.2844,-8.2844,-8.2844,-8.2844,-8.2844,-8.2844,-8.2844,-8.2844,-8.2844,-8.2844,-8.2844,-8.2844,-8.2844,-8.2844,-8.2844,-8.2844,-8.2844,-8.2844,-8.2844,-8.2844,-8.2844,-8.2844,-8.2844,-8.2844,-8.2844,-8.2844,-8.2844,-8.2844,-8.2844,-8.2844,-8.2844,-8.2844,-8.2844,-8.2844,-8.2844,-8.2844,-8.2844,-8.2844,-8.2844,-8.2844,-8.2844,-8.2844,-8.2844,-8.2844,-8.2844,-8.2844,-8.2844,-8.2844,-8.2844,-8.2844,-8.2844,-8.2844,-8.2844,-8.2844,-8.2844,-8.2844,-8.2844,-7.7631,-7.7447,-7.7385,-7.7077,0.0,0.0,-7.7016,-7.7016,-7.7016,-7.7016,-7.7016,-7.7016,-7.7016,-7.6421,-7.6045,-7.6318,-7.6099,-7.6125,-7.6754,-7.7622,-7.837,-7.8729,-7.8789,-7.8789,-7.8789,-7.8789,-7.8789,-7.8789,-7.8789,-7.9028,-7.9597,-8.0375,-8.1242,-8.217,-8.2559,-8.2844,-8.2844,-8.2844,-8.2844,-8.2844,-8.2844,-8.2844,-8.2844,-8.2844,-8.2844,-8.2844,-8.2844,-8.2844,-8.2844,-8.2844,-8.2844,-8.2844,-8.2844,-8.2844,-8.2844,-8.2844,-8.2844,-8.2844,-8.2844,-8.2844,-8.2844,-8.2844,-8.2844,-8.2844,-8.2844,-8.2844,-8.2844,-8.2844,-8.2844,-8.2844,-8.2844,-8.2844,-8.2844,-8.2844,-8.2844,-8.2844,-8.2844,-8.2844,-8.2844,-8.2844,-8.2844,-8.2844,-8.2844,-8.2844,-8.2844,-8.2844,-8.2844,-8.2844,-8.2844,-8.2844,-8.2844,-8.2844,-8.2844,-8.2844,-8.2844,-8.2844,-8.2844,-8.2844,-8.2844,-8.2844,-8.2844,-8.2844,-8.2844,-8.2844,-8.2844,-8.2844,-8.2844,-8.2844,-8.2844,-8.2844,-8.2844,-8.2844,-7.8339,-7.8154,-7.797,-7.7293,-7.7139,0.0,-7.7046,-7.7016,-7.7016,-7.7016,-7.7016,-7.7016,-7.7016,-7.6488,-7.6233,-7.678,-7.6439,-7.6215,-7.6844,-7.7951,-7.8699,-7.8789,-7.8789,-7.8789,-7.8789,-7.8789,-7.8789,-7.8789,-7.8789,-7.9387,-8.0734,-8.0794,-8.1392,-8.2709,-8.2844,-8.2844,-8.2844,-8.2844,-8.2844,-8.2844,-8.2844,-8.2844,-8.2844,-8.2844,-8.2844,-8.2844,-8.2844,-8.2844,-8.2844,-8.2844,-8.2844,-8.2844,-8.2844,-8.2844,-8.2844,-8.2844,-8.2844,-8.2844,-8.2844,-8.2844,-8.2844,-8.2844,-8.2844,-8.2844,-8.2844,-8.2844,-8.2844,-8.2844,-8.2844,-8.2844,-8.2844,-8.2844,-8.2844,-8.2844,-8.2844,-8.2844,-8.2844,-8.2844,-8.2844,-8.2844,-8.2844,-8.2844,-8.2844,-8.2844,-8.2844,-8.2844,-8.2844,-8.2844,-8.2844,-8.2844,-8.2844,-8.2844,-8.2844,-8.2844,-8.2844,-8.2844,-8.2844,-8.2844,-8.2844,-8.2844,-8.2844,-8.2844,-8.2844,-8.2844,-8.2844,-8.2844,-8.2844,-8.2844,-8.2844,-8.2844,-8.2844,-8.2844,-7.9078,-7.8893,-7.8709,-7.8001,-7.7816,0.0,-7.7139,-7.7016,-7.7016,-7.7016,-7.7016,-7.7016,-7.7016,-7.6686,-7.6452,-7.6574,-7.691,-7.7224,-7.7532,-7.7831,-7.819,-7.8729,-7.8789,-7.8789,-7.8789,-7.8789,-7.8789,-7.8789,-7.8789,-7.9387,-8.0734,-8.0794,-8.1392,-8.2709,-8.2844,-8.2844,-8.2844,-8.2844,-8.2844,-8.2844,-8.2844,-8.2844,-8.2844,-8.2844,-8.2844,-8.2844,-8.2844,-8.2844,-8.2844,-8.2844,-8.2844,-8.2844,-8.2844,-8.2844,-8.2844,-8.2844,-8.2844,-8.2844,-8.2844,-8.2844,-8.2844,-8.2844,-8.2844,-8.2844,-8.2844,-8.2844,-8.2844,-8.2844,-8.2844,-8.2844,-8.2844,-8.2844,-8.2844,-8.2844,-8.2844,-8.2844,-8.2844,-8.2844,-8.2844,-8.2844,-8.2844,-8.2844,-8.2844,-8.2844,-8.2844,-8.2844,-8.2844,-8.2844,-8.2844,-8.2844,-8.2844,-8.2844,-8.2844,-8.2844,-8.2844,-8.2844,-8.2844,-8.2844,-8.2844,-8.2844,-8.2844,-8.2844,-8.2844,-8.2844,-8.2844,-8.2844,-8.2844,-8.2844,-8.2844,-8.2844,-8.2844,-8.2844,-7.9786,-7.9601,-7.9447,-7.8739,-7.8555,0.0,0.0,-7.7785,-7.7539,-7.7539,-7.7262,-7.7016,-7.7016,-7.6752,-7.6579,-7.6946,-7.7221,-7.7614,-7.8278,-7.8284,-7.843,-7.8759,-7.8789,-7.8789,-7.8789,-7.8789,-7.8789,-7.8789,-7.8789,-7.9387,-8.0734,-8.0794,-8.1392,-8.2709,-8.2844,-8.2844,-8.2844,-8.2844,-8.2844,-8.2844,-8.2844,-8.2844,-8.2844,-8.2844,-8.2844,-8.2844,-8.2844,-8.2844,-8.2844,-8.2844,-8.2844,-8.2844,-8.2844,-8.2844,-8.2844,-8.2844,-8.2844,-8.2844,-8.2844,-8.2844,-8.2844,-8.2844,-8.292,-8.3071,-8.2844,-8.2844,-8.2844,-8.2844,-8.2844,-8.2844,-8.2844,-8.2844,-8.2844,-8.2844,-8.2844,-8.2844,-8.2844,-8.2844,-8.2844,-8.2844,-8.2844,-8.2844,-8.2844,-8.2844,-8.2844,-8.2844,-8.2844,-8.2844,-8.2844,-8.2844,-8.2844,-8.2844,-8.2844,-8.2844,-8.2844,-8.2844,-8.2844,-8.2844,-8.2844,-8.2844,-8.2844,-8.2844,-8.2844,-8.2844,-8.2844,-8.2844,-8.2844,-8.2844,-8.2844,-8.2844,-8.2844,-8.2844,-8.0432,-8.0278,-8.0124,-7.9447,-7.9293,-7.9263,0.0,0.0,0.0,-7.8247,-7.7785,-7.7416,-7.7416,-7.7217,-7.7141,-7.7502,-7.7692,-7.8083,-7.8755,-7.8921,-7.9005,-7.9005,-7.8861,-7.8861,-7.8933,-7.8861,-7.8789,-7.8789,-7.8789,-7.9387,-8.0734,-8.0794,-8.1392,-8.2709,-8.2844,-8.2844,-8.2844,-8.2844,-8.2844,-8.2844,-8.2844,-8.2844,-8.2844,-8.2844,-8.2844,-8.2844,-8.2844,-8.2844,-8.2844,-8.2844,-8.2844,-8.2844,-8.2844,-8.2844,-8.2844,-8.2844,-8.2844,-8.2844,-8.2844,-8.2844,-8.2844,-8.2844,-8.2995,-8.3221,-8.292,-8.2844,-8.2844,-8.2844,-8.2844,-8.2844,-8.2844,-8.2844,-8.2844,-8.2844,-8.2844,-8.2844,-8.2844,-8.2844,-8.2844,-8.2844,-8.2844,-8.2844,-8.2844,-8.2844,-8.2844,-8.2844,-8.2844,-8.2844,-8.2844,-8.2844,-8.2844,-8.2844,-8.2844,-8.2844,-8.2844,-8.2844,-8.2844,-8.2844,-8.2844,-8.2844,-8.2844,-8.2844,-8.2844,-8.2844,-8.2844,-8.2844,-8.2844,-8.2844,-8.2844,-8.2844,-8.2844,-8.2844,-8.0986,-8.0956,-8.0802,-8.0155,-8.0001,-7.9847,-7.9232,0.0,-7.8986,-7.8986,0.0,-7.8862,-7.8862,0.0,0.0,-7.8057,-7.8702,-7.9101,-7.862,-7.9281,-7.9759,-7.9759,-7.922,-7.8933,-7.9291,-7.9005,-7.8789,-7.8789,-7.8789,-7.9387,-8.0734,-8.0794,-8.1392,-8.2709,-8.2844,-8.2844,-8.2844,-8.2844,-8.2844,-8.2844,-8.2844,-8.2844,-8.2844,-8.2844,-8.2844,-8.2844,-8.2844,-8.2844,-8.2844,-8.2844,-8.2844,-8.2844,-8.2844,-8.2844,-8.2844,-8.2844,-8.2844,-8.2844,-8.2844,-8.2844,-8.2844,-8.2844,-8.2844,-8.2844,-8.2844,-8.2844,-8.2844,-8.2844,-8.2844,-8.2844,-8.2844,-8.2844,-8.2844,-8.2844,-8.2844,-8.2844,-8.2844,-8.2844,-8.2844,-8.2844,-8.2844,-8.2844,-8.2844,-8.2844,-8.2844,-8.2844,-8.2844,-8.2844,-8.2844,-8.2844,-8.2844,-8.2844,-8.2844,-8.2844,-8.2844,-8.2844,-8.2844,-8.2844,-8.2844,-8.2844,-8.2844,-8.2844,-8.2844,-8.2844,-8.2844,-8.2844,-8.2844,-8.2844,-8.2844,-8.2844,-8.2844,-8.2844,-8.1079,-8.1079,-8.1017,-8.074,-8.0679,-8.0586,-8.0309,-7.994,-7.9694,-7.9694,0.0,0.0,0.0,0.0,0.0,0.0,-7.9108,-7.9491,-7.9452,-7.9673,-7.99,-7.99,-7.9617,-7.9434,-7.9363,-7.922,-7.9076,-7.8789,-7.9005,-7.9605,-8.0734,-8.0794,-8.1392,-8.2709,-8.2844,-8.2844,-8.2844,-8.2844,-8.2844,-8.2844,-8.2844,-8.2844,-8.2844,-8.2844,-8.2844,-8.2844,-8.2844,-8.292,-8.3146,-8.3146,-8.3146,-8.3146,-8.3146,-8.2995,-8.2844,-8.2844,-8.2844,-8.2844,-8.2844,-8.2844,-8.2844,-8.3071,-8.2995,-8.2844,-8.3071,-8.2995,-8.2844,-8.2844,-8.2844,-8.2844,-8.2844,-8.2844,-8.2844,-8.2844,-8.2844,-8.2844,-8.2844,-8.2844,-8.2844,-8.2844,-8.2844,-8.2844,-8.2844,-8.2844,-8.2844,-8.2844,-8.2844,-8.2844,-8.2844,-8.2844,-8.2844,-8.2844,-8.2844,-8.2844,-8.2844,-8.2844,-8.2844,-8.2844,-8.2844,-8.2844,-8.2844,-8.2844,-8.2844,-8.2844,-8.2844,-8.2844,-8.2844,-8.2844,-8.2844,-8.2844,-8.2844,-8.2844,-8.1079,-8.1079,-8.1079,-8.1079,-8.1079,-8.1079,-8.1079,-8.0709,-8.0371,-8.0371,-7.9971,0.0,0.0,0.0,-7.957,-7.9417,0.0,-7.9966,-8.0056,-8.0164,-8.0182,-8.0182,-8.0111,-7.99,-7.9576,-7.9505,-7.9363,-7.9005,-7.922,-7.9821,-8.0734,-8.0794,-8.1392,-8.2709,-8.2844,-8.2844,-8.2844,-8.2844,-8.2844,-8.2844,-8.2844,-8.2844,-8.2844,-8.2844,-8.2844,-8.2844,-8.2844,-8.3071,-8.3371,-8.3371,-8.3446,-8.3521,-8.3521,-8.3371,-8.3071,-8.2844,-8.2844,-8.2844,-8.2844,-8.2844,-8.2844,-8.3146,-8.3071,-8.2844,-8.3146,-8.3071,-8.2844,-8.2844,-8.2844,-8.2844,-8.2844,-8.2844,-8.2844,-8.2844,-8.2844,-8.2844,-8.2844,-8.2844,-8.2844,-8.2844,-8.2844,-8.2844,-8.2844,-8.2844,-8.2844,-8.2844,-8.2844,-8.2844,-8.2844,-8.2844,-8.2844,-8.2844,-8.2844,-8.2844,-8.2844,-8.2844,-8.2844,-8.2844,-8.2844,-8.2844,-8.2844,-8.2844,-8.2844,-8.2844,-8.2844,-8.2844,-8.2844,-8.2844,-8.2844,-8.2844,-8.2844,-8.2844,-8.1079,-8.1079,-8.1079,-8.1079,-8.1079,-8.1079,-8.1079,-8.1048,-8.1048,-8.1048,-8.1017,-8.1017,-8.1017,-8.1017,-8.0802,-8.0186,-8.0617,0.0,0.0,-8.0679,-8.1079,-8.1079,-8.0701,-8.0322,-7.99,-7.99,-7.9759,-7.9363,-7.9363,-7.9821,-8.0734,-8.0794,-8.1392,-8.2709,-8.2844,-8.2844,-8.2844,-8.2844,-8.2844,-8.2844,-8.2844,-8.2844,-8.2844,-8.2844,-8.2844,-8.2844,-8.2844,-8.3071,-8.3371,-8.3371,-8.3596,-8.3863,-8.3863,-8.3863,-8.3789,-8.3041,-8.2844,-8.2844,-8.2844,-8.2844,-8.2844,-8.2844,-8.2844,-8.2844,-8.2844,-8.2844,-8.2844,-8.2844,-8.2844,-8.2844,-8.2844,-8.2844,-8.2844,-8.2844,-8.2844,-8.2844,-8.2844,-8.2844,-8.2844,-8.2844,-8.2844,-8.2844,-8.2844,-8.2844,-8.2844,-8.2844,-8.2844,-8.2844,-8.2844,-8.2844,-8.2844,-8.2844,-8.2844,-8.2844,-8.2844,-8.2844,-8.2844,-8.2844,-8.2844,-8.2844,-8.2844,-8.2844,-8.2844,-8.2844,-8.2844,-8.2844,-8.2844,-8.2844,-8.2844,-8.2844,-8.2844,-8.2844,-8.1079,-8.1079,-8.1079,-8.1079,-8.1079,-8.1079,-8.1079,-8.1079,-8.1079,-8.1079,-8.1079,-8.1079,-8.1079,-8.1079,-8.1017,-8.0771,-8.0925,-8.0986,0.0,-8.0925,-8.1079,-8.1079,-8.0771,-8.0322,-7.9971,-7.99,-7.9617,-7.9076,-7.922,-7.9821,-8.0734,-8.0794,-8.1392,-8.2709,-8.2844,-8.2844,-8.2844,-8.2844,-8.2844,-8.2844,-8.2844,-8.2844,-8.2844,-8.2844,-8.2844,-8.2844,-8.2844,-8.3071,-8.3371,-8.3371,-8.3596,-8.3938,-8.3938,-8.3938,-8.3863,-8.3371,-8.3221,-8.3146,-8.292,-8.2844,-8.2844,-8.2844,-8.2844,-8.2844,-8.2844,-8.2844,-8.2844,-8.2844,-8.2844,-8.2844,-8.2844,-8.2844,-8.2844,-8.2844,-8.2844,-8.2844,-8.2844,-8.2844,-8.2844,-8.2844,-8.2844,-8.2844,-8.2844,-8.2844,-8.2844,-8.2844,-8.2844,-8.2844,-8.2844,-8.2844,-8.2844,-8.2844,-8.2844,-8.2844,-8.2844,-8.2844,-8.2844,-8.2844,-8.2844,-8.2844,-8.2844,-8.2844,-8.2844,-8.2844,-8.2844,-8.2844,-8.2844,-8.2844,-8.2844,-8.2844,-8.2844,-8.2844,-8.114,-8.1079,-8.1079,-8.1079,-8.1079,-8.1079,-8.1079,-8.1079,-8.1079,-8.1079,-8.1079,-8.1079,-8.1079,-8.1079,-8.1079,0.0,0.0,0.0,0.0,-8.1079,-8.1079,-8.1079,-8.084,-8.0562,-8.0111,-8.0111,-7.983,-7.9076,-7.922,-7.9821,-8.0734,-8.0794,-8.1392,-8.2709,-8.2844,-8.2844,-8.2844,-8.2844,-8.2844,-8.2844,-8.3008,-8.3098,-8.3128,-8.3367,-8.3533,-8.3685,-8.3445,-8.3628,-8.4153,-8.3761,-8.3863,-8.4307,-8.4129,-8.4203,-8.4307,-8.3715,-8.3596,-8.3491,-8.3266,-8.3191,-8.3191,-8.3071,-8.3071,-8.3191,-8.3071,-8.3146,-8.3221,-8.3071,-8.2995,-8.2995,-8.2844,-8.2844,-8.2844,-8.2844,-8.2844,-8.2844,-8.2844,-8.2844,-8.2844,-8.2844,-8.2844,-8.2844,-8.2844,-8.2844,-8.2844,-8.2844,-8.2844,-8.2844,-8.2844,-8.2844,-8.2844,-8.2844,-8.2844,-8.2844,-8.2844,-8.2844,-8.2844,-8.2844,-8.2844,-8.2844,-8.2844,-8.2844,-8.2858,-8.3098,-8.2888,-8.2888,-8.3098,-8.2858,-8.2844,-8.2844,-8.2844,-8.2844]},{"header":{"parameterUnit":"m.s-1","parameterCategory":1,"la1":30.6,"la2":29.2853,"lo1":-89.7004,"lo2":-87.6739,"dy":0.0162,"dx":0.0183,"nx":112,"ny":82,"refTime":"2024-04-06T12:00:00:Z","depth":0,"parameterNumber":3,"parameterNumberName":"V-component_of_WINDS"},"data":[0.0,0.0,0.0,0.0,0.0,0.0,0.0,0.0,0.0,0.0,0.0,0.0,0.0,0.0,0.0,0.0,0.0,0.0,0.0,0.0,0.0,0.0,0.0,0.0,0.0,0.0,0.0,0.0,0.0,0.0,0.0,0.0,0.0,0.0,0.0,0.0,0.0,0.0,0.0,0.0,0.0,0.0,0.0,0.0,0.0,0.0,0.0,0.0,0.0,0.0,0.0,0.0,0.0,0.0,0.0,0.0,0.0,0.0,0.0,0.0,0.0,0.0,0.0,0.0,0.0,0.0,0.0,0.0,0.0,0.0,0.0,0.0,0.0,0.0,0.0,0.0,0.0,0.0,0.0,0.0,0.0,0.0,0.0,0.0,0.0,0.0,0.0,0.0,0.0,0.0,5.6219,5.6219,5.6009,5.628,5.7292,5.8576,5.8496,5.6712,0.0,0.0,0.0,0.0,0.0,0.0,0.0,0.0,0.0,0.0,0.0,0.0,0.0,0.0,0.0,0.0,0.0,0.0,0.0,0.0,0.0,0.0,0.0,0.0,0.0,0.0,0.0,0.0,0.0,0.0,0.0,0.0,0.0,0.0,0.0,0.0,0.0,0.0,0.0,0.0,0.0,0.0,0.0,0.0,0.0,0.0,0.0,0.0,0.0,0.0,0.0,0.0,0.0,0.0,0.0,0.0,0.0,0.0,0.0,0.0,0.0,0.0,0.0,0.0,0.0,0.0,0.0,0.0,0.0,0.0,0.0,0.0,0.0,0.0,0.0,0.0,0.0,0.0,0.0,0.0,0.0,0.0,0.0,0.0,0.0,0.0,0.0,0.0,0.0,0.0,0.0,0.0,0.0,0.0,0.0,0.0,0.0,0.0,0.0,0.0,0.0,0.0,0.0,0.0,5.6219,5.6219,5.7251,5.7532,5.6504,5.9439,5.9696,5.5883,0.0,0.0,0.0,0.0,0.0,0.0,0.0,0.0,0.0,0.0,0.0,0.0,0.0,0.0,0.0,0.0,0.0,0.0,0.0,0.0,0.0,0.0,0.0,0.0,0.0,0.0,0.0,0.0,0.0,0.0,0.0,0.0,0.0,0.0,0.0,0.0,0.0,0.0,0.0,0.0,0.0,0.0,0.0,0.0,0.0,0.0,0.0,0.0,0.0,0.0,0.0,0.0,0.0,0.0,0.0,0.0,0.0,0.0,0.0,0.0,0.0,0.0,0.0,0.0,0.0,0.0,0.0,0.0,0.0,0.0,0.0,0.0,0.0,0.0,0.0,0.0,0.0,0.0,0.0,0.0,0.0,0.0,0.0,0.0,0.0,0.0,0.0,0.0,0.0,0.0,0.0,0.0,0.0,0.0,0.0,0.0,0.0,0.0,0.0,0.0,0.0,0.0,0.0,5.6219,5.6219,5.6219,5.6823,5.7256,5.7374,5.969,6.0008,5.7203,5.8248,0.0,0.0,0.0,0.0,0.0,0.0,0.0,0.0,0.0,0.0,0.0,0.0,0.0,0.0,0.0,0.0,0.0,0.0,0.0,0.0,0.0,0.0,0.0,0.0,0.0,0.0,0.0,0.0,0.0,0.0,0.0,0.0,0.0,0.0,0.0,0.0,0.0,0.0,0.0,0.0,0.0,0.0,0.0,0.0,0.0,0.0,0.0,0.0,0.0,0.0,0.0,0.0,0.0,0.0,0.0,0.0,0.0,0.0,0.0,0.0,0.0,0.0,0.0,0.0,0.0,0.0,0.0,0.0,0.0,0.0,0.0,0.0,0.0,0.0,0.0,0.0,0.0,0.0,0.0,0.0,0.0,0.0,0.0,0.0,0.0,0.0,0.0,0.0,0.0,0.0,0.0,0.0,0.0,0.0,0.0,0.0,0.0,0.0,0.0,0.0,0.0,0.0,5.652,5.6742,5.7083,5.6957,5.7508,5.9026,6.0357,6.0345,5.8489,5.9365,0.0,0.0,0.0,0.0,0.0,0.0,0.0,0.0,0.0,0.0,0.0,0.0,0.0,0.0,0.0,0.0,0.0,0.0,0.0,0.0,0.0,0.0,0.0,0.0,0.0,0.0,0.0,0.0,0.0,0.0,0.0,0.0,0.0,0.0,0.0,0.0,0.0,0.0,0.0,0.0,0.0,0.0,0.0,0.0,0.0,0.0,0.0,0.0,0.0,0.0,0.0,0.0,0.0,0.0,0.0,0.0,0.0,0.0,0.0,0.0,0.0,0.0,0.0,0.0,0.0,0.0,0.0,0.0,0.0,0.0,0.0,0.0,0.0,0.0,0.0,0.0,0.0,0.0,0.0,0.0,0.0,0.0,0.0,0.0,0.0,0.0,0.0,0.0,0.0,0.0,0.0,0.0,0.0,0.0,0.0,0.0,0.0,0.0,0.0,0.0,0.0,0.0,5.7449,5.8349,5.9794,5.9398,5.9631,6.1225,6.2173,6.1409,5.856,5.9766,0.0,0.0,0.0,0.0,0.0,0.0,0.0,0.0,0.0,0.0,0.0,0.0,0.0,0.0,0.0,0.0,0.0,0.0,0.0,0.0,0.0,0.0,0.0,0.0,0.0,0.0,0.0,0.0,0.0,0.0,0.0,0.0,0.0,0.0,0.0,0.0,0.0,0.0,0.0,0.0,0.0,0.0,0.0,0.0,0.0,0.0,0.0,0.0,0.0,0.0,0.0,0.0,0.0,0.0,0.0,0.0,0.0,0.0,0.0,0.0,0.0,0.0,0.0,0.0,0.0,0.0,0.0,0.0,0.0,0.0,0.0,0.0,0.0,0.0,0.0,0.0,0.0,0.0,0.0,0.0,0.0,0.0,0.0,0.0,0.0,0.0,0.0,0.0,0.0,0.0,0.0,0.0,0.0,0.0,0.0,0.0,0.0,0.0,0.0,0.0,0.0,0.0,5.775,5.845,6.0044,6.0007,6.0426,6.2058,6.3319,6.2604,5.9252,0.0,0.0,0.0,0.0,0.0,0.0,0.0,0.0,0.0,0.0,0.0,0.0,0.0,0.0,0.0,0.0,0.0,0.0,0.0,0.0,0.0,0.0,0.0,0.0,0.0,0.0,0.0,0.0,0.0,0.0,0.0,0.0,0.0,0.0,0.0,0.0,0.0,0.0,0.0,0.0,0.0,0.0,0.0,0.0,0.0,0.0,0.0,0.0,0.0,0.0,0.0,0.0,0.0,0.0,0.0,0.0,0.0,0.0,0.0,0.0,0.0,0.0,0.0,0.0,0.0,0.0,0.0,0.0,0.0,0.0,0.0,0.0,0.0,0.0,0.0,0.0,0.0,0.0,0.0,0.0,0.0,0.0,0.0,0.0,0.0,0.0,0.0,0.0,0.0,0.0,0.0,0.0,0.0,0.0,0.0,0.0,0.0,0.0,0.0,0.0,0.0,0.0,5.8152,5.8303,5.8958,6.0519,6.0582,6.1251,6.3289,6.4192,6.3501,6.0545,0.0,0.0,0.0,0.0,0.0,0.0,0.0,0.0,0.0,0.0,0.0,0.0,0.0,0.0,0.0,0.0,0.0,0.0,0.0,0.0,0.0,0.0,0.0,0.0,0.0,0.0,0.0,0.0,0.0,0.0,0.0,0.0,0.0,0.0,0.0,0.0,0.0,0.0,0.0,0.0,0.0,0.0,0.0,0.0,0.0,0.0,0.0,0.0,0.0,0.0,0.0,0.0,0.0,0.0,0.0,0.0,0.0,0.0,0.0,0.0,0.0,0.0,0.0,0.0,0.0,0.0,0.0,0.0,0.0,0.0,0.0,0.0,0.0,0.0,0.0,0.0,0.0,0.0,0.0,0.0,0.0,0.0,0.0,0.0,0.0,0.0,0.0,0.0,0.0,0.0,0.0,0.0,0.0,0.0,0.0,0.0,0.0,0.0,0.0,0.0,0.0,0.0,5.873,5.9182,6.015,6.1692,6.1394,6.2271,6.525,6.509,6.4109,0.0,0.0,0.0,0.0,0.0,0.0,0.0,0.0,0.0,0.0,0.0,0.0,0.0,0.0,0.0,0.0,0.0,0.0,0.0,0.0,0.0,0.0,0.0,0.0,0.0,0.0,0.0,0.0,0.0,0.0,0.0,0.0,0.0,0.0,0.0,0.0,0.0,0.0,0.0,0.0,0.0,0.0,0.0,0.0,0.0,0.0,0.0,0.0,0.0,0.0,0.0,0.0,0.0,0.0,0.0,0.0,0.0,0.0,0.0,0.0,0.0,0.0,0.0,0.0,0.0,0.0,0.0,0.0,0.0,0.0,0.0,0.0,0.0,0.0,0.0,0.0,0.0,0.0,0.0,0.0,0.0,0.0,0.0,0.0,0.0,0.0,0.0,0.0,0.0,0.0,0.0,0.0,0.0,0.0,0.0,0.0,0.0,0.0,0.0,0.0,0.0,0.0,0.0,6.0857,6.201,6.3419,6.4967,6.4945,6.5712,6.7667,6.7727,6.6263,6.3248,0.0,0.0,0.0,0.0,0.0,0.0,0.0,0.0,0.0,0.0,0.0,0.0,0.0,0.0,0.0,0.0,0.0,0.0,0.0,0.0,0.0,0.0,0.0,0.0,0.0,0.0,0.0,0.0,0.0,0.0,0.0,0.0,0.0,0.0,0.0,0.0,0.0,0.0,0.0,0.0,0.0,0.0,0.0,0.0,0.0,0.0,0.0,0.0,0.0,0.0,0.0,0.0,0.0,0.0,0.0,0.0,0.0,0.0,0.0,0.0,0.0,0.0,0.0,0.0,0.0,0.0,0.0,0.0,0.0,0.0,0.0,0.0,0.0,0.0,0.0,0.0,0.0,0.0,0.0,0.0,0.0,0.0,0.0,0.0,0.0,0.0,0.0,0.0,0.0,0.0,0.0,0.0,0.0,0.0,0.0,0.0,0.0,0.0,0.0,0.0,0.0,0.0,6.1692,6.2635,6.3857,6.5396,6.6131,6.686,6.7788,6.846,6.7576,6.4729,0.0,0.0,0.0,0.0,0.0,0.0,0.0,0.0,0.0,0.0,0.0,0.0,0.0,0.0,0.0,0.0,0.0,0.0,0.0,0.0,0.0,0.0,0.0,0.0,0.0,0.0,0.0,0.0,0.0,0.0,0.0,0.0,0.0,0.0,0.0,0.0,0.0,0.0,0.0,0.0,0.0,0.0,0.0,0.0,0.0,0.0,0.0,0.0,0.0,0.0,0.0,0.0,0.0,0.0,0.0,0.0,0.0,0.0,0.0,0.0,0.0,0.0,0.0,0.0,0.0,0.0,0.0,0.0,0.0,0.0,0.0,0.0,0.0,0.0,0.0,0.0,0.0,0.0,0.0,0.0,0.0,0.0,0.0,0.0,0.0,0.0,0.0,0.0,0.0,0.0,0.0,0.0,0.0,0.0,0.0,0.0,0.0,0.0,0.0,0.0,0.0,0.0,6.1773,6.2347,6.3165,6.4482,6.6016,6.6861,6.6805,6.8108,6.8216,6.6581,0.0,0.0,0.0,0.0,0.0,0.0,0.0,0.0,0.0,0.0,0.0,0.0,0.0,0.0,0.0,0.0,0.0,0.0,0.0,0.0,0.0,0.0,0.0,0.0,0.0,0.0,0.0,0.0,0.0,0.0,0.0,0.0,0.0,0.0,0.0,0.0,0.0,0.0,0.0,0.0,0.0,0.0,0.0,0.0,0.0,0.0,0.0,0.0,0.0,0.0,0.0,0.0,0.0,0.0,0.0,0.0,0.0,0.0,0.0,0.0,6.4251,6.2868,0.0,0.0,0.0,0.0,0.0,0.0,0.0,0.0,0.0,0.0,0.0,0.0,0.0,0.0,0.0,0.0,0.0,0.0,0.0,0.0,0.0,0.0,0.0,0.0,0.0,0.0,0.0,0.0,0.0,0.0,0.0,0.0,0.0,0.0,0.0,0.0,0.0,0.0,0.0,0.0,6.3226,6.6469,6.8471,6.7513,6.8854,6.9592,6.9171,6.9417,6.8705,6.6651,6.6483,0.0,0.0,0.0,0.0,0.0,0.0,0.0,0.0,0.0,0.0,0.0,0.0,0.0,0.0,0.0,0.0,0.0,0.0,0.0,0.0,0.0,0.0,0.0,0.0,0.0,0.0,0.0,0.0,0.0,0.0,0.0,0.0,0.0,0.0,0.0,0.0,0.0,0.0,0.0,0.0,0.0,0.0,0.0,0.0,0.0,0.0,0.0,0.0,0.0,0.0,0.0,0.0,0.0,0.0,0.0,0.0,0.0,0.0,0.0,6.6243,6.5189,0.0,0.0,0.0,0.0,0.0,0.0,0.0,0.0,0.0,0.0,0.0,0.0,0.0,0.0,0.0,0.0,0.0,0.0,0.0,0.0,0.0,0.0,0.0,0.0,0.0,0.0,0.0,0.0,0.0,0.0,0.0,0.0,0.0,0.0,0.0,0.0,0.0,0.0,0.0,0.0,6.3541,6.6411,6.8437,6.8293,6.9038,6.9703,7.0181,7.0221,6.9586,6.8136,6.8107,0.0,0.0,0.0,0.0,0.0,0.0,0.0,0.0,0.0,0.0,0.0,0.0,0.0,0.0,0.0,0.0,0.0,0.0,0.0,0.0,0.0,0.0,0.0,0.0,0.0,0.0,0.0,0.0,0.0,0.0,0.0,0.0,0.0,0.0,0.0,0.0,0.0,0.0,0.0,0.0,0.0,0.0,0.0,0.0,0.0,0.0,0.0,0.0,0.0,0.0,0.0,0.0,0.0,6.5802,6.6887,6.5818,6.7702,6.9318,7.0532,6.8216,6.7773,6.8501,6.5862,0.0,0.0,0.0,0.0,0.0,0.0,0.0,0.0,0.0,0.0,0.0,0.0,0.0,0.0,0.0,0.0,0.0,0.0,0.0,0.0,0.0,0.0,6.8481,6.7221,6.7876,6.8199,6.5849,0.0,0.0,0.0,0.0,0.0,0.0,0.0,0.0,0.0,0.0,0.0,6.3855,6.5765,6.7405,6.8093,6.8702,6.9537,7.0749,7.0889,7.0628,6.9989,6.9931,6.9062,0.0,0.0,0.0,0.0,0.0,0.0,0.0,0.0,0.0,0.0,0.0,0.0,0.0,0.0,0.0,0.0,0.0,0.0,0.0,0.0,0.0,0.0,0.0,0.0,0.0,0.0,0.0,0.0,0.0,0.0,0.0,0.0,5.8528,5.8528,0.0,0.0,0.0,0.0,0.0,0.0,0.0,0.0,0.0,0.0,0.0,0.0,0.0,6.2109,6.1893,6.4217,6.4476,6.2722,6.7468,6.8963,6.7472,7.0532,7.2071,7.2244,7.1899,0.0,6.9967,6.9495,0.0,0.0,0.0,0.0,0.0,0.0,0.0,0.0,0.0,0.0,0.0,0.0,0.0,0.0,0.0,0.0,0.0,0.0,0.0,0.0,0.0,0.0,7.0338,7.0128,7.0268,7.0309,6.9897,6.7725,6.5822,6.5599,6.5579,6.5109,0.0,0.0,0.0,0.0,0.0,0.0,6.5136,6.8946,7.07,6.8092,7.0306,7.1924,7.1586,7.1557,7.1266,7.0628,7.0599,7.0239,6.9366,6.8241,0.0,0.0,0.0,0.0,0.0,0.0,0.0,0.0,0.0,0.0,0.0,0.0,0.0,0.0,0.0,0.0,0.0,0.0,0.0,0.0,0.0,0.0,0.0,0.0,0.0,0.0,0.0,0.0,0.0,5.9006,5.9282,5.9583,5.9809,6.0085,0.0,0.0,0.0,0.0,0.0,0.0,0.0,0.0,0.0,6.3458,6.4613,6.4743,6.3843,6.7517,6.7652,6.4283,6.9196,7.0707,6.9168,7.1538,7.2602,7.2602,7.2602,7.2172,7.1494,7.0589,6.9747,6.9018,0.0,0.0,0.0,0.0,6.7572,6.842,6.842,6.901,6.9539,6.8399,0.0,0.0,0.0,0.0,0.0,0.0,0.0,6.8124,6.9146,7.0593,7.1789,7.1789,7.1789,7.1789,7.1789,7.0736,6.9326,6.7724,6.7644,6.7052,6.4579,6.5125,0.0,0.0,0.0,6.7202,6.6701,6.8538,6.9616,6.9168,7.0413,7.1524,7.2153,7.2195,7.1934,7.1295,7.1266,7.0976,7.0337,6.9281,6.8171,0.0,0.0,0.0,0.0,0.0,0.0,0.0,0.0,0.0,0.0,0.0,0.0,0.0,0.0,0.0,0.0,0.0,0.0,0.0,0.0,0.0,0.0,0.0,0.0,0.0,0.0,0.0,0.0,5.9709,5.991,6.0462,6.0537,6.0713,0.0,0.0,0.0,0.0,0.0,0.0,6.2814,6.2437,6.3177,6.5187,6.6495,6.6339,6.4683,6.957,6.9719,6.5371,6.9867,7.1348,7.0192,7.1421,7.2244,7.2602,7.2602,7.2602,7.253,7.132,7.0809,7.0736,6.9467,6.8915,6.8915,6.8915,6.9719,7.0809,7.0809,7.1639,7.2329,7.0705,7.0201,6.987,6.827,0.0,0.0,0.0,0.0,6.9776,7.0594,7.1711,7.2602,7.2602,7.2602,7.2602,7.2602,7.2602,7.1955,6.9878,6.976,6.9168,6.6393,6.7278,0.0,6.6754,6.7576,6.8159,6.7778,6.8463,6.9093,6.9495,7.0339,7.132,7.2459,7.2602,7.2427,7.1934,7.1905,7.1615,7.0976,7.0512,6.9592,6.8074,0.0,0.0,0.0,0.0,0.0,0.0,0.0,0.0,0.0,0.0,0.0,0.0,0.0,0.0,0.0,0.0,0.0,0.0,0.0,0.0,0.0,0.0,0.0,0.0,0.0,0.0,0.0,0.0,0.0,6.1065,6.114,0.0,0.0,0.0,0.0,6.1969,6.2446,6.3453,6.5003,6.364,6.3559,6.5213,6.5371,6.4603,6.2985,6.7833,6.8669,6.5371,6.8744,7.0266,7.0192,7.0266,7.1174,7.2602,7.2602,7.2602,7.2602,7.253,7.2459,7.2459,7.2387,7.2387,7.2387,7.2387,7.2387,7.2459,7.2459,7.253,7.2602,7.2501,7.243,7.2401,7.23,7.1234,0.0,0.0,7.1291,7.0532,7.2071,7.253,7.2602,7.2602,7.2602,7.2602,7.2602,7.2602,7.2602,7.2443,7.2401,7.1899,7.0237,0.0,7.0044,6.9969,7.0044,6.9495,6.7931,7.0385,7.1146,6.8159,7.0634,7.253,7.2602,7.2602,7.2602,7.2573,7.2573,7.2282,7.1644,7.1586,7.1005,6.9717,6.9659,0.0,0.0,0.0,0.0,0.0,0.0,0.0,0.0,0.0,0.0,0.0,0.0,0.0,0.0,0.0,0.0,0.0,0.0,0.0,0.0,0.0,0.0,0.0,0.0,0.0,0.0,0.0,0.0,6.1642,6.1718,0.0,6.222,6.2421,6.2521,6.2521,6.2722,6.3529,6.5213,6.3665,6.4042,6.6805,6.6883,6.6027,6.4443,6.829,6.9046,6.6883,6.9121,7.0736,7.1711,7.1711,7.21,7.2602,7.2602,7.2602,7.2602,7.2602,7.2602,7.2602,7.2602,7.2602,7.2602,7.2602,7.2602,7.2602,7.2602,7.2602,7.2602,7.2602,7.2602,7.2602,7.2602,7.2172,7.1855,7.2459,7.2172,7.1855,7.2459,7.2602,7.2602,7.2602,7.2602,7.2602,7.2602,7.2602,7.2602,7.2602,7.2602,7.21,7.0515,7.1028,7.1421,7.0368,7.0192,7.0339,7.0781,7.0955,7.1028,7.0854,7.1928,7.2602,7.2602,7.2602,7.2602,7.2602,7.2602,7.2515,7.2282,7.1905,7.1469,7.1005,7.0599,6.9771,0.0,0.0,0.0,0.0,0.0,0.0,0.0,0.0,0.0,0.0,0.0,0.0,0.0,0.0,0.0,0.0,0.0,0.0,0.0,0.0,0.0,0.0,0.0,0.0,0.0,6.1466,6.1667,6.222,6.2295,6.2421,6.2797,6.2822,6.2822,6.2822,6.2822,6.3529,6.5213,6.3665,6.4042,6.6778,6.6883,6.6339,6.5292,6.7958,6.9093,6.8566,6.9121,7.0487,7.2602,7.2,7.21,7.2602,7.2602,7.2602,7.2602,7.2602,7.2602,7.2602,7.2602,7.2602,7.2602,7.2602,7.2602,7.2602,7.2602,7.2602,7.2602,7.2602,7.2602,7.2602,7.2602,7.2602,7.2602,7.2602,7.2602,7.2602,7.2602,7.2602,7.2602,7.2602,7.2602,7.2602,7.2602,7.2602,7.2602,7.2602,7.2602,7.2244,7.1174,7.1855,7.2244,7.1174,7.1028,7.1174,7.1711,7.132,7.1174,7.1711,7.2316,7.2602,7.2602,7.2602,7.2602,7.2602,7.21,7.2,7.2602,7.1697,7.1264,7.1353,7.0715,7.0308,7.0105,0.0,0.0,0.0,0.0,0.0,0.0,0.0,0.0,0.0,0.0,0.0,0.0,0.0,0.0,0.0,0.0,0.0,0.0,0.0,0.0,0.0,0.0,0.0,6.2019,6.2019,6.222,6.2772,6.2822,6.2822,6.2822,6.2822,6.2822,6.2822,6.2822,6.3529,6.5213,6.3665,6.361,6.5213,6.5292,6.5292,6.5213,6.6883,6.849,7.0044,6.849,6.9467,7.2459,7.0955,7.1101,7.2602,7.2602,7.2602,7.2602,7.2602,7.2602,7.2602,7.2602,7.2602,7.2602,7.2602,7.2602,7.2602,7.2602,7.2602,7.2602,7.2602,7.2602,7.2602,7.2602,7.2602,7.2602,7.2602,7.2602,7.2602,7.2602,7.2602,7.2602,7.2602,7.2602,7.2602,7.2602,7.2602,7.2602,7.2602,7.2602,7.2602,7.2602,7.2602,7.2602,7.2602,7.2602,0.0,7.0515,7.1566,7.1928,7.0368,7.1566,7.2459,7.253,7.253,7.253,7.2602,7.1101,7.0955,7.2459,7.1101,7.0387,7.0663,7.0163,7.0134,7.0674,0.0,0.0,0.0,0.0,0.0,0.0,0.0,0.0,0.0,0.0,0.0,0.0,0.0,0.0,0.0,0.0,0.0,0.0,0.0,0.0,0.0,6.2596,6.2596,6.2596,6.2596,6.2647,6.2822,6.2822,6.2822,6.2822,6.2822,6.2822,6.2822,6.2822,6.3529,6.5213,6.3665,6.361,6.5213,6.5292,6.4763,6.3529,6.6261,6.7319,6.6677,6.8566,6.9969,7.0882,7.1639,7.2172,7.2602,7.2602,7.2602,7.2602,7.2602,7.2602,7.2602,7.2602,7.2602,7.2602,7.2602,7.2602,7.2602,7.2602,7.2602,7.2602,7.2602,7.2602,7.2602,7.2602,7.2602,7.2602,7.2602,7.2602,7.2602,7.2602,7.2602,7.2602,7.2602,7.2602,7.2602,7.2602,7.2602,7.2602,7.2602,7.2602,7.2602,7.2602,7.2602,7.2602,7.2602,7.2602,7.2459,7.2,7.132,7.0662,7.0266,6.9495,6.9542,7.0736,7.0882,7.1348,7.253,7.2172,7.1639,7.0882,7.1566,7.1394,7.0372,7.0876,7.0617,0.0,0.0,0.0,0.0,0.0,0.0,0.0,0.0,0.0,0.0,0.0,0.0,0.0,0.0,0.0,0.0,0.0,0.0,0.0,0.0,0.0,0.0,6.2822,6.2822,6.2822,6.2822,6.2822,6.2822,6.2822,6.2822,6.2822,6.2822,6.2822,6.2822,6.2822,6.3204,6.4203,6.3367,6.3204,6.4203,6.4203,6.4123,6.3827,6.5029,6.587,6.6339,6.7576,6.8517,6.9196,7.0882,7.1566,7.1639,7.2316,7.2602,7.2602,7.2602,7.2602,7.2602,0.0,0.0,0.0,0.0,7.2602,7.2602,7.2602,7.2602,7.2602,7.2602,7.2602,7.2602,7.2602,7.2602,7.2602,7.2602,7.2602,7.2602,7.2602,7.2602,7.2602,7.2602,7.2602,7.2602,7.2602,7.2602,7.2602,7.2602,7.2602,0.0,7.2602,7.2,7.1783,7.2459,7.1465,7.0781,7.1494,7.0809,7.0192,7.0192,6.9941,7.0164,7.1101,7.0589,0.0,0.0,0.0,7.0487,7.0192,7.0845,0.0,0.0,0.0,7.0664,6.8567,6.9619,0.0,0.0,6.882,6.785,0.0,0.0,0.0,0.0,0.0,0.0,0.0,0.0,0.0,0.0,0.0,0.0,0.0,0.0,0.0,0.0,6.2822,6.2822,6.2822,6.2822,6.2822,6.2822,6.2822,6.2822,6.2822,6.2822,6.2822,6.2822,6.2822,6.2822,6.2822,6.2822,0.0,0.0,0.0,6.3529,6.4975,6.3746,6.4418,6.7165,6.6053,6.6183,6.7472,6.9346,7.0192,7.0294,7.1928,7.2602,7.2602,7.2602,7.2602,7.2602,7.2602,7.2602,7.2602,7.2602,7.2602,7.2602,7.2602,0.0,0.0,7.2602,7.2602,7.2602,7.2602,7.2602,7.2602,7.2602,7.2602,7.2602,7.2602,7.2602,7.2602,7.2602,7.2602,7.2602,7.2602,7.2602,7.2602,7.2602,7.2602,7.253,7.2387,7.132,7.0955,7.2387,7.0164,6.8792,7.0266,7.0294,7.0192,7.0192,7.1174,0.0,7.2,7.056,6.9747,6.9895,6.8338,6.8187,6.9821,6.9188,6.9012,6.9644,7.0705,6.9995,6.7395,6.8539,6.8216,6.6715,6.847,6.7806,0.0,0.0,0.0,0.0,0.0,0.0,0.0,0.0,0.0,0.0,0.0,0.0,0.0,0.0,0.0,6.2822,6.2822,6.2822,6.2822,6.2822,6.2822,6.2822,6.2822,6.2822,6.2822,6.2822,6.2822,6.2822,6.2822,6.2822,6.2822,6.2822,6.2822,6.2822,6.2822,6.2985,6.3286,6.4283,6.4443,6.3746,6.6105,0.0,6.5896,6.882,7.0192,7.0294,7.1928,7.2602,7.2602,7.2602,7.2602,7.2602,7.2602,7.2602,7.2602,7.2602,7.2602,7.2602,7.2602,7.2602,7.2602,7.2602,7.2602,7.2602,7.2602,7.2602,0.0,7.2602,7.2602,7.2602,7.2602,7.2602,7.2602,7.2602,7.2602,7.2602,7.2602,7.2602,7.2602,7.2602,7.2602,7.2172,7.0882,7.1494,7.2244,7.253,7.2071,7.1783,7.2071,7.1028,7.0192,7.0192,6.8138,6.7269,6.8538,6.7192,6.6805,6.8083,6.665,6.6495,6.8083,6.6775,6.6103,6.6288,6.767,6.7593,6.5739,6.7287,6.7157,6.5633,6.6243,6.622,0.0,0.0,0.0,0.0,0.0,0.0,0.0,0.0,0.0,0.0,0.0,6.2822,6.2822,0.0,6.2822,6.2822,6.2822,6.2822,6.2822,6.2822,6.2822,6.2822,6.2822,6.2822,6.2822,6.2822,6.2822,6.2822,6.2822,6.2822,6.2822,6.2822,6.2822,6.2822,6.2822,6.2822,6.2822,6.3584,6.3584,6.2822,6.4418,6.4816,6.4123,6.6599,6.7756,6.7833,6.9467,7.0164,7.0237,7.1028,7.1855,7.2602,7.2602,7.2602,7.2602,7.2602,7.2602,7.2602,7.2602,7.2602,7.2602,7.2602,7.2602,7.2602,7.2602,7.2602,7.2602,7.2602,7.2602,7.2387,7.1639,7.1421,7.1421,7.1421,7.1421,7.1639,7.2459,7.1928,7.1421,7.1421,7.0707,6.9839,6.9093,7.0339,7.1101,7.0237,6.8792,6.8034,6.8868,6.8263,6.7756,6.7756,6.696,6.6805,6.7625,6.6183,6.5661,6.6417,6.4975,6.5134,6.7625,6.6105,6.5292,6.5292,6.6883,6.6495,6.4068,6.5739,6.5661,6.4042,6.422,6.4558,0.0,0.0,0.0,0.0,0.0,0.0,0.0,6.2822,6.2822,6.2822,6.2822,6.2822,6.2822,6.2822,6.2822,6.2822,6.2822,6.2822,6.2822,6.2822,6.2822,6.2822,6.2822,6.2822,6.2822,6.2822,6.2822,6.2822,6.2822,6.2822,6.2822,6.2822,6.2822,6.2822,6.2822,6.2822,6.2822,6.2822,6.2822,6.2822,6.2822,6.2822,6.2822,6.4523,6.5292,6.5371,6.701,6.7702,6.7778,6.9196,7.0634,7.21,7.1783,7.1855,7.2172,7.2459,7.2602,7.2602,7.2602,7.2602,7.253,7.2244,7.2172,7.2071,7.1783,7.1855,7.21,7.1783,7.2071,7.2143,7.0192,6.9969,7.0118,6.9821,6.9719,7.0044,7.1393,7.0634,6.9719,6.9719,6.8641,6.7625,6.7319,6.8338,6.8895,6.7855,6.5739,6.4603,6.5661,6.5739,6.5739,6.5739,6.665,6.7088,6.6778,6.5582,6.4816,6.4816,6.3529,6.3962,6.6623,6.5503,6.4816,6.4816,6.6105,6.5424,6.2822,6.4148,6.4123,6.2822,6.2822,6.3275,6.1768,6.232,6.2747,6.2822,6.2822,6.2822,0.0,6.2822,6.2822,6.2822,6.2822,6.2822,6.2822,6.2822,6.2822,6.2822,6.2822,6.2822,6.2822,6.2822,6.2822,6.2822,6.2822,6.2822,6.2822,6.2822,6.2822,6.2822,6.2822,6.2822,6.2822,6.2822,6.2822,6.2822,6.2822,6.2822,6.2822,6.2822,6.2822,6.2822,6.2822,6.2822,6.2822,6.4523,6.5292,6.5371,6.701,6.7702,6.7702,6.7931,6.8943,7.0339,6.8868,6.9168,7.0662,7.21,7.2602,7.2602,7.2602,7.2602,7.2387,7.0955,7.0515,7.0192,6.8717,6.9243,7.0192,6.8717,7.0385,7.1928,6.8765,6.9093,6.9821,6.8311,6.8007,6.8007,6.8235,6.8083,6.8007,6.8007,6.7855,6.7242,6.5818,6.5739,6.6288,6.7549,6.8641,6.8895,6.7625,6.7395,6.7395,6.7395,6.6339,6.4975,6.3423,6.3204,6.3067,6.3067,6.2904,6.2985,6.3367,6.3204,6.3067,6.3067,6.3286,6.3123,6.2822,6.2985,6.2985,6.2822,6.2822,6.2879,6.2345,6.2647,6.2822,6.2822,6.2822,6.2822,6.2822,6.2822,6.2822,6.2822,6.2822,6.2822,6.2822,6.2822,6.2822,6.2822,6.2822,6.2822,6.2822,6.2822,6.2948,6.3299,6.3324,6.3199,6.2873,6.2822,6.2973,6.3299,6.3324,6.3475,6.3776,6.3776,6.3776,6.3776,6.3776,6.3776,6.3776,6.3776,6.3776,6.3776,6.3776,6.3776,6.3776,6.4494,6.4797,6.4879,6.556,6.634,6.7164,6.6925,6.7781,6.9164,6.8067,6.8083,6.8943,7.056,7.1174,7.1348,7.2316,7.2,7.1101,7.0441,6.957,6.8641,6.7931,6.8159,6.8641,6.7931,6.8689,6.9243,6.6883,6.6805,6.7218,6.6495,6.6261,6.6572,6.7472,6.6933,6.6261,6.6261,6.5503,6.4657,6.3988,6.4683,6.5213,6.4896,6.5424,6.5661,6.4975,6.4896,6.4896,6.4896,6.4283,6.361,6.2822,6.2822,6.2822,6.2822,6.2822,6.2822,6.2822,6.2822,6.2822,6.2822,6.2822,6.2822,6.2822,6.2822,6.2822,6.2822,6.2822,6.2822,6.2722,6.2822,6.2822,6.2822,6.2822,6.2822,6.2822,6.2822,6.2822,6.2822,6.2822,6.2822,6.2822,6.2822,6.2822,6.2822,6.2822,6.2873,6.3048,6.3073,6.3274,6.3827,6.3902,6.3751,6.3324,6.3274,6.345,6.3877,6.3902,6.4078,6.4454,6.4454,6.4454,6.4454,6.4454,6.4454,6.4454,6.4454,6.4454,6.4454,6.4454,6.4454,6.4454,6.4454,6.4454,6.4454,6.4454,6.518,6.6176,6.5844,6.6605,6.806,6.7134,6.7024,6.7407,6.8585,6.9587,7.0266,7.1,7.0781,7.0044,6.9121,6.8034,6.6933,6.6495,6.6623,6.6933,6.6495,6.701,6.7242,6.5134,6.4975,6.5213,6.4763,6.4603,6.4896,6.6105,6.5424,6.4603,6.4603,6.3584,6.2873,6.3048,6.4082,6.4511,6.3413,6.3274,6.3174,6.2873,6.2822,6.2822,6.2822,6.2822,6.2822,6.2822,6.2822,6.2822,6.2822,6.2822,6.2822,6.2822,6.2822,6.2822,6.2822,6.2822,6.2822,6.2822,6.2822,6.2822,6.2822,6.2822,6.2822,6.2822,6.2822,6.2822,6.2822,6.2822,6.2822,6.2822,6.2822,6.2822,6.2822,6.2822,6.2822,6.2822,6.2822,6.2822,6.2822,6.2822,6.3023,6.3576,6.3676,6.3852,6.4379,6.4454,6.4429,6.4404,6.4404,6.4429,6.4429,6.4454,6.4454,6.4454,6.4454,6.4454,6.4454,6.4454,6.4454,6.4454,6.4454,6.4454,6.4454,6.4454,6.4454,6.4454,6.4454,6.4454,6.4454,6.4454,6.4538,6.4538,6.4538,6.5461,6.6803,6.5212,6.5185,6.6103,6.6183,6.7936,6.9969,6.8414,6.8868,6.9672,6.6521,6.545,6.5055,6.3448,6.4042,6.5055,6.3448,6.5266,6.6933,6.3746,6.4068,6.4896,6.3286,6.2904,6.2904,6.2985,6.2904,6.2904,6.2904,6.2822,6.2998,6.3576,6.3734,6.391,6.4354,6.4404,6.4028,6.2973,6.2822,6.2822,6.2822,6.2822,6.2822,6.2822,6.2822,6.2822,6.2822,6.2822,6.2822,6.2822,6.2822,6.2822,6.2822,6.2822,6.2822,6.2822,6.2822,6.2822,6.2822,6.2822,6.2822,6.2822,6.2822,6.2822,6.2822,6.2822,6.2822,6.2822,6.2822,6.2822,6.2822,6.2822,6.2948,6.3324,6.3099,6.2948,6.335,6.34,6.3475,6.3676,6.3977,6.4404,6.4957,6.5007,6.5157,6.5534,6.4906,6.4605,6.4982,6.5007,6.5183,6.5534,6.5559,6.5559,6.5559,6.5559,6.5559,6.5559,6.5559,6.5559,6.5559,6.5559,6.5559,6.5559,6.5559,6.5559,6.5559,6.5559,6.5559,6.5534,6.5157,6.5344,6.5772,6.4857,6.4746,6.5066,6.5066,6.6276,6.7954,6.7743,6.7345,6.6754,6.5687,6.4523,6.3529,6.2985,6.3204,6.3529,6.2985,6.3584,6.4203,6.3067,6.3204,6.3529,6.2904,6.3124,6.34,6.34,6.3676,6.3927,6.3927,6.3927,6.3977,6.4178,6.4203,6.4279,6.4429,6.4454,6.4329,6.3977,6.3927,6.3927,6.3927,6.3927,6.3776,6.3425,6.34,6.3249,6.2847,6.2822,6.2822,6.2822,6.2822,6.2822,6.2822,6.2822,6.2822,6.2822,6.2822,6.2822,6.2822,6.2822,6.2822,6.2822,6.2822,6.2822,6.2822,6.2822,6.2822,6.2822,6.2822,6.2822,6.2822,6.2822,6.2998,6.3576,6.3224,6.3073,6.3852,6.3827,6.3827,6.4203,6.4555,6.4957,6.5509,6.5584,6.5735,6.6086,6.5484,6.5208,6.5559,6.5584,6.5735,6.6086,6.6112,6.6112,6.6112,6.6112,6.6112,6.6112,6.6112,6.6112,6.6112,6.6112,6.6112,6.6112,6.6112,6.6112,6.6112,6.6112,6.6112,6.6086,6.5735,6.5584,6.5534,6.5183,6.4931,6.4756,6.4756,6.5358,6.6098,6.6449,6.6265,6.5734,6.5198,6.4276,6.3425,6.3425,6.3425,6.3425,6.3425,6.3425,6.3425,6.3425,6.3425,6.3425,6.3425,6.3701,6.3977,6.3977,6.4228,6.4454,6.4454,6.4454,6.453,6.4731,6.4931,6.5057,6.5057,6.5057,6.4906,6.4505,6.4454,6.4454,6.4454,6.4454,6.4329,6.4002,6.3977,6.3802,6.345,6.3249,6.3149,6.3149,6.2948,6.2822,6.2822,6.2822,6.2822,6.2822,6.2822,6.2822,6.2822,6.2822,6.2822,6.2822,6.2822,6.2822,6.2822,6.2822,6.2822,6.2822,6.2822,6.2822,6.2822,6.2822,6.2998,6.3626,6.3249,6.3199,6.4329,6.4078,6.4103,6.5132,6.5308,6.5534,6.6036,6.6112,6.6112,6.6112,6.6112,6.6112,6.6112,6.6112,6.6112,6.6112,6.6112,6.6112,6.6112,6.6112,6.6112,6.6112,6.6112,6.6112,6.6112,6.6112,6.6112,6.6112,6.6112,6.6112,6.6112,6.6112,6.6112,6.6112,6.6112,6.6112,6.6112,6.6112,6.5785,6.5333,6.5333,6.5007,6.4555,6.4555,6.5537,6.6529,6.5014,6.4454,6.4454,6.4454,6.4454,6.4454,6.4454,6.4454,6.4454,6.4454,6.4454,6.4454,6.4454,6.4479,6.4505,6.4505,6.453,6.4555,6.4555,6.4555,6.4705,6.5233,6.576,6.6112,6.6112,6.6112,6.5735,6.468,6.4555,6.4555,6.4555,6.4555,6.453,6.4505,6.4505,6.4505,6.4454,6.4002,6.3726,6.3726,6.3199,6.2898,6.2873,6.2873,6.2847,6.2822,6.2822,6.2822,6.2822,6.2822,6.2822,6.2822,6.2822,6.2822,6.2822,6.2822,6.2822,6.2822,6.2822,6.2822,6.2822,6.2822,6.3124,6.4078,6.3475,6.3324,6.4831,6.463,6.4505,6.5183,6.5634,6.5961,6.6086,6.6112,6.6112,6.6112,6.6112,6.6112,6.6112,6.6112,6.6112,6.6112,6.6112,6.6112,6.6112,6.6112,6.6112,6.6112,6.6112,6.6112,6.6112,6.6112,6.6112,6.6112,6.6112,6.6112,6.6112,6.6112,6.6112,6.6112,6.6112,6.6112,6.6112,6.6112,6.6036,6.5911,6.5911,6.581,6.5685,6.5685,6.547,6.5014,6.4622,6.4454,6.4454,6.4454,6.4454,6.4454,6.4454,6.4454,6.4454,6.4454,6.4454,6.4454,6.4454,6.4781,6.5082,6.5082,6.5409,6.5685,6.5685,6.5685,6.5735,6.5886,6.6011,6.6112,6.6112,6.6112,6.6011,6.5735,6.5685,6.5685,6.5685,6.5685,6.5534,6.5107,6.5082,6.4906,6.4505,6.4354,6.4279,6.4279,6.4128,6.3877,6.3475,6.3475,6.3249,6.2822,6.2822,6.2822,6.2822,6.2822,6.2822,6.2822,6.2822,6.2822,6.2822,6.2822,6.2822,6.2822,6.2822,6.2822,6.2822,6.2822,6.3174,6.4279,6.3576,6.345,6.5333,6.4982,6.4756,6.5534,6.5911,6.6112,6.6112,6.6112,6.6112,6.6112,6.6112,6.6112,6.6112,6.6112,6.6112,6.6112,6.6112,6.6112,6.6112,6.6112,6.6112,6.6112,6.6112,6.6112,6.6112,6.6112,6.6112,6.6112,6.6112,6.6112,6.6112,6.6112,6.6112,6.6112,6.6112,6.6112,6.6112,6.6112,6.6112,6.6112,6.6112,6.6112,6.6112,6.6112,6.571,6.5183,6.5183,6.5183,6.5183,6.5183,6.5183,6.5183,6.5183,6.5183,6.5183,6.5183,6.5183,6.5183,6.5183,6.5434,6.566,6.566,6.5886,6.6112,6.6112,6.6112,6.6112,6.6112,6.6112,6.6112,6.6112,6.6112,6.6112,6.6112,6.6112,6.6112,6.6112,6.6112,6.5986,6.5685,6.566,6.5509,6.5208,6.4957,6.4831,6.4831,6.4605,6.4329,6.4028,6.4028,6.3877,6.355,6.3324,6.3199,6.3199,6.2948,6.2822,6.2741,6.2741,6.2822,6.2741,6.2741,6.2822,6.2741,6.2741,6.2822,6.2822,6.2822,6.3174,6.4279,6.3626,6.3651,6.576,6.5258,6.4931,6.5961,6.6112,6.6112,6.6112,6.6112,6.6112,6.6112,6.6112,6.6112,6.6112,6.6112,6.6112,6.6112,6.6112,6.6112,6.6112,6.6112,6.6112,6.6112,6.6112,6.6112,6.6112,6.6112,6.6112,6.6112,6.6112,6.6112,6.6112,6.6112,6.6112,6.6112,6.6112,6.6112,6.6112,6.6112,6.6112,6.6112,6.6112,6.6112,6.6112,6.6112,6.6112,6.6112,6.6112,6.6112,6.6112,6.6112,6.6112,6.6112,6.6112,6.6112,6.6112,6.6112,6.6112,6.6112,6.6112,6.6112,6.6112,6.6112,6.6112,6.6112,6.6112,6.6112,6.6112,6.6112,6.6112,6.6112,6.6112,6.6112,6.6112,6.6112,6.6112,6.6112,6.6112,6.6112,6.6112,6.6112,6.6112,6.6112,6.6112,6.566,6.5409,6.5409,6.4931,6.4655,6.458,6.458,6.453,6.4454,6.4002,6.3802,6.3776,6.3199,6.2948,6.2413,6.2577,6.2741,6.2413,6.2577,6.2741,6.2413,6.2577,6.2822,6.2822,6.2822,6.3174,6.4279,6.3952,6.4103,6.5835,6.5559,6.5383,6.6011,6.6112,6.6112,6.6112,6.6112,6.6112,6.6112,6.6112,6.6112,6.6112,6.6112,6.6112,6.6112,6.6112,6.6112,6.6112,6.6112,6.6112,6.6112,6.6112,6.6112,6.6112,6.6112,6.6112,6.6112,6.6112,6.6112,6.6112,6.6112,6.6112,6.6112,6.6112,6.6112,6.6112,6.6112,6.6112,6.6112,6.6112,6.6112,6.6112,6.6112,6.6112,6.6112,6.6112,6.6112,6.6112,6.6112,6.6112,6.6112,6.6112,6.6112,6.6112,6.6112,6.6112,6.6112,6.6112,6.6112,6.6112,6.6112,6.6112,6.6112,6.6112,6.6112,6.6112,6.6112,6.6112,6.6112,6.6112,6.6112,6.6112,6.6112,6.6112,6.6112,6.6112,6.6112,6.6112,6.6112,6.6112,6.6112,6.6112,6.6011,6.5961,6.5961,6.5886,6.5609,6.5157,6.5157,6.4931,6.4454,6.4379,6.4329,6.4329,6.3776,6.355,6.2249,6.2495,6.2659,6.2331,6.2331,6.2413,6.2249,6.2331,6.2577,6.2741,6.2822,6.3073,6.3902,6.3852,6.4128,6.5459,6.5459,6.5484,6.6036,6.6112,6.6112,6.6112,6.6112,6.6112,6.6112,6.6112,6.6112,6.6112,6.6112,6.6112,6.6112,6.6112,6.6112,6.6112,6.6112,6.6112,6.6112,6.6112,6.6112,6.6112,6.6112,6.6112,6.6112,6.6112,6.6112,6.6112,6.6112,6.6112,6.6112,6.6112,6.6112,6.6112,6.6112,6.6112,6.6112,6.6112,6.6112,6.6112,6.6112,6.6112,6.6112,6.6112,6.6112,6.6112,6.6112,6.6112,6.6112,6.6112,6.6112,6.6112,6.6112,6.6112,6.6112,6.6112,6.6112,6.6112,6.6112,6.6112,6.6112,6.6112,6.6112,6.6112,6.6112,6.6112,6.6112,6.6112,6.6112,6.6112,6.6112,6.6112,6.6112,6.6112,6.6112,6.6112,6.6112,6.6112,6.6112,6.6112,6.6112,6.6112,6.6112,6.6112,6.5986,6.5735,6.571,6.5584,6.5333,6.5032,6.4906,6.4881,6.4354,6.4103,6.1919,6.2249,6.2577,6.2002,6.2002,6.2002,6.1919,6.2084,6.2249,6.2577,6.2741,6.2998,6.3576,6.3776,6.4178,6.5132,6.5383,6.5609,6.6061,6.6112,6.6112,6.6112,6.6112,6.6112,6.6112,6.6112,6.6112,6.6112,6.6112,6.6112,6.6112,6.6112,6.6112,6.6112,6.6112,6.6112,6.6112,6.6112,6.6112,6.6112,6.6112,6.6112,6.6112,6.6112,6.6112,6.6112,6.6112,6.6112,6.6112,6.6112,6.6112,6.6112,6.6112,6.6112,6.6112,6.6112,6.6112,6.6112,6.6112,6.6112,6.6112,6.6112,6.6112,6.6112,6.6112,6.6112,6.6112,6.6112,6.6112,6.6112,6.6112,6.6112,6.6112,6.6112,6.6112,6.6112,6.6112,6.6112,6.6112,6.6112,6.6112,6.6162,6.6287,6.6287,6.6338,6.6463,6.6463,6.6463,6.6463,6.6463,6.6463,6.6463,6.6262,6.6112,6.6112,6.6112,6.6112,6.6112,6.6112,6.6112,6.6112,6.6112,6.6112,6.6112,6.6112,6.6112,6.6112,6.5685,6.5459,6.5459,6.4906,6.463,6.1174,6.1589,6.2002,6.1174,6.1257,6.1423,6.1008,6.1589,6.2167,6.2249,6.2577,6.2998,6.3576,6.4078,6.458,6.5183,6.571,6.6061,6.6112,6.6112,6.6112,6.6112,6.6112,6.6112,6.6112,6.6112,6.6112,6.6112,6.6112,6.6112,6.6112,6.6112,6.6112,6.6112,6.6112,6.6112,6.6112,6.6112,6.6112,6.6112,6.6112,6.6112,6.6112,6.6112,6.6112,6.6112,6.6112,6.6112,6.6112,6.6112,6.6112,6.6112,6.6112,6.6112,6.6112,6.6112,6.6112,6.6112,6.6112,6.6112,6.6112,6.6112,6.6112,6.6112,6.6112,6.6112,6.6112,6.6112,6.6112,6.6112,6.6112,6.6112,6.6112,6.6112,6.6112,6.6112,6.6112,6.6112,6.6112,6.6112,6.6112,6.6287,6.6815,6.689,6.7066,6.7568,6.7643,6.7643,6.7643,6.7643,6.7643,6.7643,6.6739,6.6112,6.6112,6.6112,6.6112,6.6112,6.6112,6.6112,6.6112,6.6112,6.6112,6.6112,6.6112,6.6112,6.6112,6.6061,6.6036,6.6011,6.5484,6.5208,6.1008,6.1506,6.2002,6.1008,6.1174,6.1423,6.1257,6.1754,6.2249,6.2495,6.2659,6.2898,6.3124,6.3877,6.453,6.4756,6.5534,6.6112,6.6112,6.6112,6.6112,6.6112,6.6112,6.6112,6.6112,6.6112,6.6112,6.6112,6.6112,6.6112,6.6112,6.6112,6.6112,6.6112,6.6112,6.6112,6.6112,6.6112,6.6112,6.6112,6.6112,6.6112,6.6112,6.6112,6.6112,6.6112,6.6112,6.6112,6.6112,6.6112,6.6112,6.6112,6.6112,6.6112,6.6112,6.6112,6.6112,6.6112,6.6112,6.6112,6.6112,6.6112,6.6112,6.6112,6.6112,6.6112,6.6112,6.6112,6.6112,6.6112,6.6112,6.6112,6.6112,6.6112,6.6112,6.6212,6.6564,6.6639,6.6739,6.7066,6.7116,6.7191,6.7442,6.7467,6.7543,6.7769,6.7794,6.7794,6.7794,6.7794,6.7794,6.7794,6.7392,6.7116,6.7116,6.6815,6.6639,6.6639,6.6312,6.6112,6.6112,6.6112,6.6112,6.6112,6.6112,6.6112,6.6112,6.6112,6.6112,6.6112,6.5886,6.5785,6.0757,6.1174,6.1589,6.0841,6.0983,6.1316,6.1257,6.1754,6.2249,6.2577,6.2741,6.2822,6.2822,6.3601,6.4279,6.4429,6.5258,6.5936,6.6086,6.6112,6.6112,6.6112,6.6112,6.6112,6.6112,6.6112,6.6112,6.6112,6.6112,6.6112,6.6112,6.6112,6.6112,6.6112,6.6112,6.6112,6.6112,6.6112,6.6112,6.6112,6.6112,6.6112,6.6112,6.6112,6.6112,6.6112,6.6112,6.6112,6.6112,6.6112,6.6112,6.6112,6.6112,6.6112,6.6112,6.6112,6.6112,6.6112,6.6112,6.6112,6.6112,6.6112,6.6112,6.6112,6.6112,6.6112,6.6112,6.6112,6.6112,6.6112,6.6112,6.6237,6.6363,6.6363,6.6488,6.6714,6.7116,6.7216,6.7342,6.7719,6.7794,6.7844,6.802,6.8045,6.8095,6.8271,6.8296,6.8296,6.8296,6.8296,6.8296,6.8296,6.8296,6.8145,6.7819,6.7442,6.7216,6.7216,6.6689,6.6363,6.6363,6.6212,6.6112,6.6112,6.6112,6.6112,6.6112,6.6112,6.6112,6.6112,6.6112,6.6112,6.0423,6.0507,6.0757,6.0339,6.0507,6.0841,6.0841,6.1506,6.2167,6.2167,6.2495,6.2822,6.2822,6.3299,6.3877,6.4379,6.4931,6.5484,6.6036,6.6112,6.6112,6.6112,6.6112,6.6112,6.6112,6.6112,6.6112,6.6112,6.6112,6.6112,6.6112,6.6112,6.6112,6.6112,6.6112,6.6112,6.6112,6.6112,6.6112,6.6112,6.6112,6.6112,6.6112,6.6112,6.6112,6.6112,6.6112,6.6112,6.6112,6.6112,6.6112,6.6112,6.6112,6.6112,6.6112,6.6112,6.6112,6.6112,6.6112,6.6112,6.6112,6.6112,6.6112,6.6112,6.6112,6.6112,6.6112,6.6112,6.6112,6.6112,6.6112,6.6538,6.6965,6.6965,6.7392,6.7769,6.7794,6.7794,6.7794,6.7794,6.7794,6.797,6.8522,6.8622,6.8798,6.9351,6.9336,6.9336,6.9336,6.9336,6.9336,6.9336,6.9336,6.8974,6.7894,6.7794,6.7794,6.7794,6.7267,6.6965,6.6965,6.6413,6.6112,6.6112,6.6112,6.6112,6.6112,6.6112,6.6112,6.6112,6.6112,6.6112,6.0674,6.0674,6.0841,6.1008,6.1174,6.134,6.1672,6.2167,6.2577,6.2577,6.2741,6.2822,6.2822,6.3299,6.3877,6.4379,6.4931,6.5484,6.6036,6.6112,6.6112,6.6112,6.6112,6.6112,6.6112,6.6112,6.6112,6.6112,6.6112,6.6112,6.6112,6.6112,6.6112,6.6112,6.6112,6.6112,6.6112,6.6112,6.6112,6.6112,6.6112,6.6112,6.6112,6.6112,6.6112,6.6112,6.6112,6.6112,6.6112,6.6112,6.6112,6.6112,6.6112,6.6112,6.6112,6.6112,6.6112,6.6112,6.6112,6.6363,6.6714,6.6714,6.6965,6.7267,6.7267,6.6739,6.6187,6.6589,6.6714,6.6789,6.7166,6.7392,6.7543,6.7543,6.7668,6.7894,6.8271,6.8371,6.8472,6.8848,6.8924,6.8974,6.915,6.9175,6.925,6.9336,6.9361,6.9361,6.9361,6.9361,6.9361,6.9361,6.9361,6.93,6.8949,6.8572,6.8371,6.8371,6.7844,6.7543,6.7543,6.699,6.6714,6.6714,6.6312,6.6112,6.6112,6.6112,6.6112,6.6112,6.6112,6.6112,6.059,6.0841,6.1066,6.1174,6.1506,6.1862,6.2084,6.2495,6.2822,6.2822,6.2822,6.2822,6.2822,6.3124,6.355,6.4078,6.463,6.5183,6.5735,6.5986,6.6112,6.6112,6.6112,6.6112,6.6112,6.6112,6.6112,6.6112,6.6112,6.6112,6.6112,6.6112,6.6112,6.6112,6.6112,6.6112,6.6112,6.6112,6.6112,6.6112,6.6112,6.6112,6.6112,6.6112,6.6112,6.6112,6.6112,6.6112,0.0,6.6112,6.6112,6.6112,6.6112,6.6112,6.6137,6.6363,6.6438,6.6463,6.6689,6.699,6.7292,6.7292,6.7518,6.7794,6.7794,6.7317,6.6815,6.7191,6.7292,6.7367,6.7719,6.7945,6.812,6.812,6.8271,6.8522,6.8848,6.8924,6.9024,6.9376,6.9361,6.9361,6.9361,6.9361,6.9361,6.9361,6.9361,6.9361,6.9361,6.9361,6.9361,6.9361,6.9361,6.9361,6.9361,6.9125,6.8924,6.8924,6.8422,6.812,6.812,6.7568,6.7191,6.6965,6.6614,6.6338,6.6112,6.6112,6.6112,6.6112,6.6112,6.6112,0.0,6.09,6.1399,6.1008,6.1589,6.2167,6.2167,6.2495,0.0,6.2741,6.2741,6.2822,6.2822,6.2822,6.3023,6.3601,6.4128,6.4655,6.5208,6.576,6.6112,6.6112,6.6112,6.6112,6.6112,6.6112,6.6112,6.6112,6.6112,6.6112,6.6112,6.6112,6.6112,6.6112,6.6112,6.6112,6.6112,6.6112,6.6112,6.6112,6.6112,6.6112,6.6112,6.6112,6.6112,6.6112,6.6112,6.6112,6.6112,6.6112,6.6112,6.6112,6.6162,6.6162,6.6237,6.6815,6.7041,6.7116,6.7618,6.7819,6.7869,6.7894,6.7919,6.7919,6.7919,6.7869,6.7819,6.7844,6.7869,6.7869,6.7894,6.8296,6.8673,6.8673,6.9074,6.9361,6.9361,6.9361,6.9361,6.9361,6.9361,6.9361,6.9361,6.9361,6.9361,6.9361,6.9361,6.9361,6.9361,6.9361,6.9361,6.9361,6.9361,6.9361,6.9361,6.9361,6.9361,6.9361,6.8974,6.8673,6.8673,6.8145,6.7618,6.7091,6.7015,6.6689,6.6112,6.6112,6.6112,6.6112,6.6112,6.6112,6.1091,0.0,6.1589,6.2167,6.2249,6.2167,0.0,6.2495,6.2741,6.2413,6.2577,6.2822,6.2822,6.2822,6.3023,6.3601,6.4128,6.4655,6.5208,6.576,6.6112,6.6112,6.6112,6.6112,6.6112,6.6112,6.6112,6.6112,6.6112,6.6112,6.6112,6.6112,6.6112,6.6112,6.6112,6.6112,6.6112,6.6112,6.6112,6.6112,6.6112,6.6112,6.6112,6.6112,6.6112,6.6112,6.6112,6.6112,6.6112,6.6112,6.6112,6.6162,6.6589,6.6764,6.684,6.7392,6.7593,6.7618,6.7769,6.807,6.8497,6.8924,6.9049,6.9049,6.9049,6.8472,6.7894,6.8321,6.8422,6.8522,6.8949,6.915,6.925,6.925,6.9351,6.9361,6.9361,6.9361,6.9361,6.9361,6.9361,6.9361,6.9361,6.9361,6.9361,6.9361,6.9361,6.9361,6.9361,6.9361,6.9361,6.9361,6.9361,6.9361,6.9361,6.9361,6.9361,6.9361,6.9325,6.925,6.925,6.8723,6.8371,6.8246,6.7417,6.6689,6.6112,6.6112,6.6112,6.6112,6.6112,6.6112,6.1672,6.1672,6.1672,6.2331,6.2331,6.2249,6.2413,6.2659,6.2741,6.2495,6.2659,6.2741,6.2577,6.2659,6.2841,6.3002,6.3869,6.4756,6.5559,6.5936,6.6112,6.6112,6.6112,6.6112,6.6112,6.6112,6.6112,6.6112,6.6112,6.6112,6.6112,6.6112,6.6112,6.6112,6.6112,6.6112,6.6112,6.6112,6.6112,6.6112,6.6112,6.6112,6.6112,6.6112,6.6112,6.6112,6.6112,6.6112,6.6137,6.6388,6.6513,6.6564,6.7141,6.7367,6.7417,6.797,6.817,6.8221,6.8472,6.8748,6.9049,6.9351,6.9361,6.9361,6.9361,6.9024,6.8622,6.8924,6.8999,6.9074,6.9285,6.9361,6.9361,6.9361,6.9361,6.9361,6.9361,6.9361,6.9361,6.9361,6.9361,6.9361,6.9361,6.9361,6.9361,6.9361,6.9361,6.9361,6.9361,6.9361,6.9361,6.9361,6.9361,6.9361,6.9361,6.9361,6.9361,6.9361,6.9361,6.9361,6.9361,6.915,6.8874,6.8622,6.7794,6.7066,6.6513,6.6513,6.6363,6.6112,6.6112,6.6112,6.2002,6.1754,6.1482,6.2002,6.2084,6.2167,6.2495,6.2659,6.2741,6.2741,6.2741,6.2659,6.2331,6.2577,6.2659,6.2331,6.3502,6.4856,6.5961,6.6112,6.6112,6.6112,6.6112,6.6112,6.6112,6.6112,6.6112,6.6112,6.6112,6.6112,6.6112,6.6112,6.6112,6.6112,6.6112,6.6112,6.6112,6.6112,6.6112,6.6112,6.6112,6.6112,6.6112,6.6112,6.6112,6.6112,6.6112,6.6162,6.6287,6.6764,6.7015,6.7166,6.7719,6.7919,6.7995,6.8547,6.8748,6.8823,6.9275,6.9361,6.9361,6.9361,6.9361,6.9361,6.9361,6.9361,6.9361,6.9361,6.9361,6.9361,6.9361,6.9361,6.9361,6.9361,6.9361,6.9361,6.9361,6.9361,6.9361,6.9361,6.9361,6.9361,6.9361,6.9361,6.9361,6.9361,6.9361,6.9361,6.9361,6.9361,6.9361,6.9361,6.9361,6.9361,6.9361,6.9361,6.9361,6.9361,6.9361,6.9361,6.9361,6.9361,6.9175,6.8622,6.817,6.7643,6.7091,6.7015,6.6714,6.6237,6.6162,6.6112,6.1614,6.1257,6.0983,6.1482,6.1589,6.1614,6.1696,6.2027,6.2249,6.2249,6.2577,6.2741,6.2741,6.2741,6.2741,6.2741,6.3751,6.4856,6.5961,6.6112,6.6112,6.6112,6.6112,6.6112,6.6112,6.6112,6.6112,6.6112,6.6112,6.6112,6.6112,6.6112,6.6112,6.6112,6.6112,6.6112,6.6112,6.6112,6.6112,6.6112,6.6112,6.6112,6.6112,6.6112,6.6112,6.6112,6.6112,6.6388,6.684,6.694,6.7241,6.7719,6.8271,6.8497,6.8572,6.9125,6.9325,6.9325,6.9401,6.9361,6.9361,6.9361,6.9361,6.9361,6.9361,6.9361,6.9361,6.9361,6.9361,6.9361,6.9361,6.9361,6.9361,6.9361,6.9361,6.9361,6.9361,6.9361,6.9361,6.9361,6.9361,6.9361,6.9361,6.9361,6.9361,6.9361,6.9361,6.9361,6.9361,6.9361,6.9361,6.9361,6.9361,6.9361,6.9361,6.9361,6.9361,6.9361,6.9361,6.9361,6.9361,6.9361,6.9175,6.8622,6.8547,6.8221,6.7668,6.7216,6.694,6.684,6.6338,6.6112,6.1531,6.1174,6.0841,6.1066,6.1091,6.1257,6.1754,6.1862,6.1837,6.1837,6.2002,6.2084,6.2084,6.2331,6.2677,6.3167,6.3952,6.4756,6.5559,6.5936,6.6112,6.6112,6.6112,6.6112,6.6112,6.6112,6.6112,6.6112,6.6112,6.6112,6.6112,6.6112,6.6112,6.6112,6.6112,6.6112,6.6112,6.6112,6.6112,6.6112,6.6112,6.6112,6.6112,6.6112,6.6112,6.6137,6.6438,6.6739,6.7015,6.7618,6.802,6.8296,6.8848,6.9074,6.91,6.9351,6.9361,6.9361,6.9361,6.9361,6.9361,6.9361,6.9361,6.9361,6.9361,6.9361,6.9361,6.9361,6.9361,6.9361,6.9361,6.9361,6.9361,6.9361,6.9361,6.9361,6.9361,6.9361,6.9361,6.9361,6.9361,6.9361,6.9361,6.9361,6.9361,6.9361,6.9361,6.9361,6.9361,6.9361,6.9361,6.9361,6.9361,6.9361,6.9361,6.9361,6.9361,6.9361,6.9361,6.9361,6.9361,6.9361,6.9235,6.9074,6.9074,6.8798,6.8246,6.7995,6.7719,6.7417,6.684,6.6589,6.1423,6.1174,6.0924,6.0841,6.0757,6.0924,6.1837,6.1672,6.1423,6.1647,6.1672,6.1672,6.1647,6.2002,6.253,6.3518,6.4128,6.4655,6.5208,6.576,6.6112,6.6112,6.6112,6.6112,6.6112,6.6112,6.6112,6.6112,6.6112,6.6112,6.6112,6.6112,6.6112,6.6112,6.6112,6.6112,6.6112,6.6112,6.6112,6.6112,6.6112,6.6112,6.6112,6.6112,6.6112,6.6137,6.6714,6.7041,6.7241,6.8221,6.8698,6.8848,6.9275,6.9361,6.9361,6.9361,6.9361,6.9361,6.9361,6.9361,6.9361,6.9361,6.9361,6.9361,6.9361,6.9361,6.9361,6.9361,6.9361,6.9361,6.9361,6.9361,6.9361,6.9361,6.9361,6.9361,6.9361,6.9361,6.9361,6.9361,6.9361,6.9361,6.9361,6.9361,6.9361,6.9361,6.9361,6.9361,6.9361,6.9361,6.9361,6.9361,6.9361,6.9361,6.9361,6.9361,6.9361,6.9361,6.9361,6.9361,6.9361,6.9361,6.9361,6.9361,6.9361,6.925,6.8823,6.8698,6.8396,6.797,6.7417,6.7091,6.1174,6.1174,6.1365,6.0924,6.0507,6.0507,6.1316,6.115,6.1091,6.2002,6.2167,6.2167,6.2167,6.2167,6.253,6.3518,6.4128,6.4655,6.5208,6.576,6.6112,6.6112,6.6112,6.6112,6.6112,6.6112,6.6112,6.6112,6.6112,6.6112,6.6112,6.6112,6.6112,6.6112,6.6112,6.6112,6.6112,6.6112,6.6112,6.6112,6.6112,6.6112,6.6112,6.6112,6.6112,6.6137,6.6714,6.7267,6.7794,6.8371,6.8924,6.9401,6.9336,6.9361,6.9361,6.9361,6.9361,6.9361,6.9361,6.9361,6.9361,6.9361,6.9361,6.9361,6.9361,6.9361,6.9361,6.9361,6.9361,6.9361,6.9361,6.9361,6.9361,6.9361,6.9361,6.9361,6.9361,6.9361,6.9361,6.9361,6.9361,6.9361,6.9361,6.9361,6.9361,6.9361,6.9361,6.9361,6.9361,6.9361,6.9361,6.9361,6.9361,6.9361,6.9361,6.9361,6.9361,6.9361,6.9361,6.9361,6.9361,6.9361,6.9361,6.9361,6.9361,6.9336,6.9285,6.8874,6.8597,6.8547,6.7995,6.7467,6.1008,6.0757,6.0674,6.0757,6.0507,6.0339,6.09,6.09,6.0841,6.0924,6.1423,6.1754,6.1754,6.2167,6.2652,6.2795,6.3736,6.453,6.4756,6.5534,6.6112,6.6112,6.6112,6.6112,6.6112,6.6112,6.6112,6.6112,6.6112,6.6112,6.6112,6.6112,6.6112,6.6112,6.6112,6.6112,6.6112,6.6112,6.6112,6.6112,6.6112,6.6112,6.6112,6.6112,6.6312,6.6689,6.7241,6.7794,6.8346,6.8899,6.925,6.9361,6.9361,6.9361,6.9361,6.9361,6.9361,6.9361,6.9361,6.9361,6.9361,6.9361,6.9361,6.9361,6.9361,6.9361,6.9361,6.9361,6.9361,6.9361,6.9361,6.9361,6.9361,6.9361,6.9361,6.9361,6.9361,6.9361,6.9361,6.9361,6.9361,6.9361,6.9361,6.9361,6.9361,6.9361,6.9361,6.9361,6.9361,6.9361,6.9361,6.9361,6.9361,6.9361,6.9361,6.9361,6.9361,6.9361,6.9361,6.9361,6.9361,6.9361,6.9361,6.9361,6.9361,6.9361,6.9361,6.925,6.9125,6.9125,6.8572,6.8196,6.0924,6.059,6.0423,6.059,6.0507,6.0423,6.059,6.059,6.0674,6.0841,6.1174,6.1614,6.1862,6.2167,6.2413,6.2413,6.3585,6.4454,6.4454,6.5409,6.6112,6.6112,6.6112,6.6112,6.6112,6.6112,6.6112,6.6112,6.6112,6.6112,6.6112,6.6112,6.6112,6.6112,6.6112,6.6112,6.6112,6.6112,6.6112,6.6112,6.6112,6.6112,6.6112,6.6312,6.6614,6.7015,6.7744,6.8271,6.8673,6.9225,6.9361,6.9361,6.9361,6.9361,6.9361,6.9361,6.9361,6.9361,6.9361,6.9361,6.9361,6.9361,6.9361,6.9361,6.9361,6.9361,6.9361,6.9361,6.9361,6.9361,6.9361,6.9361,6.9361,6.9361,6.9361,6.9361,6.9361,6.9361,6.9361,6.9361,6.9361,6.9361,6.9361,6.9361,6.9361,6.9361,6.9361,6.9361,6.9361,6.9361,6.9361,6.9361,6.9361,6.9361,6.9361,6.9361,6.9361,6.9361,6.9361,6.9361,6.9361,6.9361,6.9361,6.9361,6.9361,6.9361,6.9361,6.9361,6.9361,6.9336,6.9049,6.8798,6.0924,6.0817,6.0674,6.0339,6.0507,6.0674,6.0339,6.0171,6.059,6.1919,6.1862,6.1779,6.2659,6.2084,6.1779,6.2659,6.3751,6.4454,6.4454,6.5409,6.6112,6.6112,6.6112,6.6112,6.6112,6.6112,6.6112,6.6112,6.6112,6.6112,6.6112,6.6112,6.6112,6.6112,6.6112,6.6112,6.6112,6.6112,6.6112,6.6112,6.6112,6.6112,6.6137,6.6714,6.699,6.7041,6.8145,6.8622,6.8673,6.9225,6.9361,6.9361,6.9361,6.9361,6.9361,6.9361,6.9361,6.9361,6.9361,6.9361,6.9361,6.9361,6.9361,6.9361,6.9361,6.9361,6.9361,6.9361,6.9361,6.9361,6.9361,6.9361,6.9361,6.9361,6.9361,6.9361,6.9361,6.9361,6.9361,6.9361,6.9361,6.9361,6.9361,6.9361,6.9361,6.9361,6.9361,6.9361,6.9361,6.9361,6.9361,6.9361,6.9361,6.9361,6.9361,6.9361,6.9361,6.9361,6.9361,6.9361,6.9361,6.9361,6.9361,6.9361,6.9361,6.9361,6.9361,6.9361,6.9361,6.9361,6.9361,6.915,6.0507,6.0339,6.0339,6.0255,6.0255,6.0423,6.059,6.0841,6.1365,6.2084,6.2084,6.2084,6.2331,6.2413,6.2413,6.2413,6.3285,6.4053,6.4404,6.5082,6.5685,6.6061,6.6112,6.6112,6.6112,6.6112,6.6112,6.6112,6.6112,6.6112,6.6112,6.6112,6.6112,6.6112,6.6112,6.6112,6.6112,6.6112,6.6112,6.6112,6.6538,6.6714,6.6714,6.689,6.7392,6.8145,6.8472,6.8848,6.9225,6.9285,6.9361,6.9361,6.9361,6.9361,6.9361,6.9361,6.9361,6.9361,6.9361,6.9361,6.9361,6.9361,6.9361,6.9361,6.9361,6.9361,6.9361,6.9361,6.9361,6.9361,6.9361,6.9361,6.9361,6.9361,6.9361,6.9361,6.9361,6.9361,6.9361,6.9361,6.9361,6.9361,6.9361,6.9361,6.9361,6.9361,6.9361,6.9361,6.9361,6.9361,6.9361,6.9361,6.9361,6.9361,6.9361,6.9361,6.9361,6.9361,6.9361,6.9361,6.9361,6.9361,6.9361,6.9361,6.9361,6.9361,6.9361,6.9361,6.9361,6.9361,6.9361,6.9351,6.0423,6.0339,6.0255,6.0423,6.0423,6.059,6.1008,6.1423,6.1837,6.2167,6.2167,6.2249,6.2413,6.2495,6.2495,6.2413,6.316,6.3877,6.4404,6.4931,6.5484,6.6036,6.6112,6.6112,6.6112,6.6112,6.6112,6.6112,6.6112,6.6112,6.6112,6.6112,6.6112,6.6112,6.6112,6.6112,6.6112,6.6112,6.6237,6.6463,6.6815,6.7216,6.7618,6.7618,6.7995,6.8622,6.8848,6.915,6.9361,6.9361,6.9361,6.9361,6.9361,6.9361,6.9361,6.9361,6.9361,6.9361,6.9361,6.9361,6.9361,6.9361,6.9361,6.9361,6.9361,6.9361,6.9361,6.9361,6.9361,6.9361,6.9361,6.9361,6.9361,6.9361,6.9361,6.9361,6.9361,6.9361,6.9361,6.9361,6.9361,6.9361,6.9361,6.9361,6.9361,6.9361,6.9361,6.9361,6.9361,6.9361,6.9361,6.9361,6.9361,6.9361,6.9361,6.9361,6.9361,6.9361,6.9361,6.9361,6.9361,6.9361,6.9361,6.9361,6.9361,6.9361,6.9361,6.9361,6.9361,6.9361,6.9361,6.9361,6.0674,6.0507,6.0339,6.0674,6.0757,6.0924,6.1365,6.1837,6.2167,6.2167,6.2167,6.2331,6.2741,6.2495,6.2331,6.2741,6.3274,6.3802,6.4379,6.4906,6.5434,6.6036,6.6112,6.6112,6.6112,6.6112,6.6112,6.6112,6.6112,6.6112,6.6112,6.6112,6.6112,6.6112,6.6112,6.6112,6.6112,6.6162,6.6463,6.6965,6.7066,6.7643,6.8622,6.8622,6.8648,6.8723,6.9225,6.9361,6.9361,6.9361,6.9361,6.9361,6.9361,6.9361,6.9361,6.9361,6.9361,6.9361,6.9361,6.9361,6.9361,6.9361,6.9361,6.9361,6.9361,6.9361,6.9361,6.9361,6.9361,6.9361,6.9361,6.9361,6.9361,6.9361,6.9361,6.9361,6.9361,6.9361,6.9361,6.9361,6.9361,6.9361,6.9361,6.9361,6.9361,6.9361,6.9361,6.9361,6.9361,6.9361,6.9361,6.9361,6.9361,6.9361,6.9361,6.9361,6.9361,6.9361,6.9361,6.9361,6.9361,6.9361,6.9361,6.9361,6.9361,6.9361,6.9361,6.9361,6.9361,6.9361,6.9361,6.9361,6.0507,6.0507,6.059,6.0423,6.059,6.0841,6.0924,6.1589,6.2167,6.2167,6.2167,6.2331,6.2741,6.2741,6.2659,6.2822,6.2923,6.335,6.4329,6.4555,6.5007,6.5986,6.6112,6.6112,6.6112,6.6112,6.6112,6.6112,6.6112,6.6112,6.6112,6.6112,6.6112,6.6112,6.6112,6.6112,6.6112,6.6564,6.6865,6.699,6.7844,6.8396,6.8622,6.8622,6.8848,6.9275,6.9311,6.9361,6.9361,6.9361,6.9361,6.9361,6.9361,6.9361,6.9361,6.9361,6.9361,6.9361,6.9361,6.9361,6.9361,6.9361,6.9361,6.9361,6.9361,6.9361,6.9361,6.9361,6.9361,6.9361,6.9361,6.9361,6.9361,6.9361,6.9361,6.9361,6.9361,6.9361,6.9361,6.9361,6.9361,6.9361,6.9361,6.9361,6.9361,6.9361,6.9361,6.9361,6.9361,6.9361,6.9361,6.9361,6.9361,6.9361,6.9361,6.9361,6.9361,6.9361,6.9361,6.9361,6.9361,6.9361,6.9361,6.9361,6.9361,6.9361,6.9361,6.9361,6.9361,6.9361,6.9361,6.9361,6.059,6.0507,6.0423,6.0255,6.0507,6.0841,6.0841,6.1174,6.1589,6.1837,6.2167,6.2495,6.2495,6.2659,6.2822,6.2822,6.2822,6.3199,6.4304,6.4454,6.4881,6.5986,6.6112,6.6112,6.6112,6.6112,6.6112,6.6112,6.6112,6.6112,6.6112,6.6112,6.6112,6.6112,6.6112,6.6237,6.6538,6.6815,6.7241,6.7769,6.8346,6.8748,6.9024,6.9024,6.9175,6.9361,6.9361,6.9361,6.9361,6.9361,6.9361,6.9361,6.9361,6.9361,6.9361,6.9361,6.9361,6.9361,6.9361,6.9361,6.9361,6.9361,6.9361,6.9361,6.9361,6.9361,6.9361,6.9361,6.9361,6.9361,6.9361,6.9361,6.9361,6.9361,6.9361,6.9361,6.9361,6.9361,6.9361,6.9361,6.9361,6.9361,6.9361,6.9361,6.9361,6.9361,6.9361,6.9361,6.9361,6.9361,6.9361,6.9361,6.9361,6.9361,6.9361,6.9361,6.9361,6.9361,6.9361,6.9361,6.9361,6.9361,6.9361,6.9361,6.9361,6.9361,6.9361,6.9361,6.9361,6.9361,6.9361,6.9361,6.0674,6.0423,6.0171,6.0171,6.0507,6.0757,6.0757,6.0841,6.1008,6.1199,6.1919,6.2413,6.2167,6.2413,6.2659,6.2659,6.2741,6.3199,6.4304,6.4454,6.4881,6.5986,6.6112,6.6112,6.6112,6.6112,6.6112,6.6112,6.6112,6.6112,6.6112,6.6112,6.6112,6.6112,6.6112,6.6388,6.6965,6.7066,6.7618,6.8622,6.8723,6.8999,6.9361,6.9361,6.9361,6.9361,6.9361,6.9361,6.9361,6.9361,6.9361,6.9361,6.9361,6.9361,6.9361,6.9361,6.9361,6.9361,6.9361,6.9361,6.9361,6.9361,6.9361,6.9361,6.9361,6.9361,6.9361,6.9361,6.9361,6.9361,6.9361,6.9361,6.9361,6.9361,6.9361,6.9361,6.9361,6.9361,6.9361,6.9361,6.9361,6.9361,6.9361,6.9526,6.9602,6.9602,6.9652,6.9727,6.9727,6.9727,6.9702,6.9602,6.9602,6.9551,6.9451,6.9361,6.9361,6.9361,6.9361,6.9361,6.9361,6.9361,6.9361,6.9361,6.9361,6.9361,6.9361,6.9361,6.9361,6.9361,6.9361,6.9361,6.0507,6.0255,6.0171,6.0171,6.0507,6.0674,6.0339,6.0841,6.1199,6.0507,6.0757,6.115,6.1564,6.2002,6.2249,6.2249,6.2577,6.3199,6.4304,6.4454,6.4881,6.5986,6.6112,6.6112,6.6112,6.6112,6.6112,6.6112,6.6112,6.6112,6.6112,6.6112,6.6112,6.6112,6.6112,6.6388,6.6965,6.7442,6.7995,6.8622,6.91,6.9376,6.9361,6.9361,6.9361,6.9361,6.9361,6.9361,6.9361,6.9361,6.9361,6.9361,6.9361,6.9361,6.9361,6.9361,6.9361,6.9361,6.9361,6.9361,6.9361,6.9361,6.9361,6.9361,6.9361,6.9361,6.9361,6.9361,6.9361,6.9361,6.9361,6.9361,6.9361,6.9361,6.9361,6.9361,6.9361,6.9361,6.9361,6.9361,6.9361,6.9361,6.9361,6.9828,7.0154,7.0154,7.0556,7.0857,7.0857,7.0857,7.0681,7.0204,7.0154,6.9953,6.9476,6.9361,6.9361,6.9361,6.9361,6.9361,6.9361,6.9361,6.9361,6.9361,6.9361,6.9361,6.9361,6.9361,6.9361,6.9361,6.9361,6.9361,6.0339,6.0171,6.0171,6.0171,6.0507,6.0674,6.0255,6.0674,6.0924,6.0339,6.0339,6.059,6.0983,6.1754,6.2167,6.2167,6.2852,6.3576,6.4354,6.4731,6.5233,6.6011,6.6112,6.6112,6.6112,6.6112,6.6112,6.6112,6.6112,6.6112,6.6112,6.6112,6.6112,6.6112,6.6438,6.6865,6.7417,6.7995,6.8547,6.9074,6.9325,6.9361,6.9361,6.9361,6.9361,6.9361,6.9361,6.9361,6.9361,6.9361,6.9361,6.9361,6.9361,6.9361,6.9361,6.9361,6.9361,6.9361,6.9361,6.9361,6.9361,6.9361,6.9361,6.9361,6.9361,6.9361,6.9361,6.9361,6.9361,6.9361,6.9361,6.9361,6.9361,6.9361,6.9361,6.9361,6.9361,6.9361,6.9361,6.9361,6.9702,6.9903,6.9903,7.0104,7.0255,7.0255,7.0204,7.0179,7.0179,7.0179,7.0079,6.9828,6.9803,6.9702,6.9451,6.9361,6.9361,6.9361,6.9361,6.9361,6.9361,6.9361,6.9361,6.9361,6.9361,6.9361,6.9361,6.9361,6.9361,6.9361,6.9361,6.9361,6.0171,6.0171,6.0171,6.0171,6.0423,6.059,6.0255,6.0423,6.059,6.0255,6.0171,6.0255,6.059,6.1423,6.2002,6.2002,6.2995,6.3877,6.4404,6.4931,6.5484,6.6036,6.6112,6.6112,6.6112,6.6112,6.6112,6.6112,6.6112,6.6112,6.6112,6.6112,6.6187,6.6338,6.6764,6.7317,6.7995,6.8547,6.9049,6.9361,6.9361,6.9361,6.9361,6.9361,6.9361,6.9361,6.9361,6.9361,6.9361,6.9361,6.9361,6.9361,6.9361,6.9361,6.9361,6.9361,6.9361,6.9361,6.9361,6.9361,6.9361,6.9361,6.9361,6.9361,6.9361,6.9361,6.9361,6.9361,6.9361,6.9361,6.9361,6.9361,6.9361,6.9361,6.9361,6.9361,6.9361,6.9361,6.9361,6.9361,6.9777,7.0054,7.0054,7.0179,7.0255,7.0255,7.0029,6.9853,6.9853,6.9853,6.9803,6.9677,6.9652,6.9602,6.9451,6.9361,6.9361,6.9361,6.9361,6.9361,6.9361,6.9361,6.9361,6.9361,6.9361,6.9361,6.9361,6.9361,6.9361,6.9361,6.9361,6.9361,6.0171,6.0171,6.0171,6.0171,6.0255,6.0255,6.0171,6.0255,6.0255,6.0171,6.0171,6.0171,6.0255,6.0924,6.1506,6.1564,6.2721,6.3877,6.4404,6.4931,6.5484,6.6036,6.6112,6.6112,6.6112,6.6112,6.6112,6.6112,6.6112,6.6112,6.6112,6.6112,6.6363,6.6915,6.6965,6.7493,6.8572,6.9125,6.9336,6.9361,6.9361,6.9361,6.9361,6.9361,6.9361,6.9361,6.9361,6.9361,6.9361,6.9361,6.9361,6.9361,6.9361,6.9361,6.9361,6.9361,6.9361,6.9361,6.9361,6.9361,6.9361,6.9361,6.9361,6.9361,6.9361,6.9361,6.9361,6.9361,6.9361,6.9361,6.9361,6.9361,6.9361,6.9361,6.9361,6.9361,6.9361,6.9361,6.9361,6.9361,6.9476,6.9501,6.9501,6.9928,7.0255,7.0255,7.0681,7.1008,7.1008,7.1008,7.0807,7.028,7.0204,7.0003,6.9501,6.9361,6.9361,6.9361,6.9361,6.9361,6.9361,6.9361,6.9361,6.9361,6.9361,6.9361,6.9361,6.9361,6.9361,6.9361,6.9361,6.9361,6.0171,6.0171,6.0171,6.0171,6.0171,6.0171,6.0171,6.0171,6.0171,6.0171,6.0171,6.0171,6.0171,6.0924,6.1531,6.1506,6.302,6.4254,6.4429,6.5258,6.5886,6.6086,6.6112,6.6112,6.6112,6.6112,6.6112,6.6112,6.6112,6.6112,6.6112,6.6112,6.6388,6.6965,6.7317,6.8045,6.915,6.9351,6.9361,6.9361,6.9361,6.9361,6.9361,6.9361,6.9361,6.9361,6.9361,6.9361,6.9361,6.9361,6.9361,6.9361,6.9361,6.9361,6.9361,6.9361,6.9361,6.9361,6.9361,6.9361,6.9361,6.9361,6.9361,6.9361,6.9361,6.9361,6.9361,6.9361,6.9361,6.9361,6.9361,6.9361,6.9361,6.9361,6.9361,6.9361,6.9361,6.9361,6.9361,6.9361,6.9727,6.9978,6.9978,7.0129,7.0255,7.0255,7.0129,7.0029,7.0029,7.0029,6.9953,6.9752,6.9727,6.9652,6.9451,6.9361,6.9361,6.9361,6.9361,6.9361,6.9361,6.9361,6.9361,6.9361,6.9361,6.9361,6.9361,6.9361,6.9361,6.9361,6.9361,6.9361,6.0171,6.0171,6.0171,6.0171,6.0171,6.0171,6.0171,6.0171,6.0171,6.0171,6.0171,6.0171,6.0171,6.0924,6.1531,6.1506,6.3169,6.4454,6.4454,6.5409,6.6112,6.6112,6.6112,6.6112,6.6112,6.6112,6.6112,6.6112,6.6112,6.6112,6.6112,6.6287,6.6739,6.7493,6.807,6.8698,6.9336,6.9361,6.9361,6.9361,6.9361,6.9361,6.9361,6.9361,6.9361,6.9361,6.9361,6.9361,6.9361,6.9361,6.9361,6.9361,6.9361,6.9361,6.9361,6.9361,6.9361,6.9361,6.9361,6.9361,6.9361,6.9361,6.9361,6.9361,6.9361,6.9361,6.9361,6.9361,6.9361,6.9361,6.9361,6.9361,6.9361,6.9361,6.9361,6.9361,6.9361,6.9361,6.9361,6.9361,6.9727,6.9978,6.9978,6.9978,6.9978,6.9978,6.9677,6.9361,6.9361,6.9361,6.9361,6.9361,6.9361,6.9361,6.9361,6.9361,6.9361,6.9361,6.9361,6.9361,6.9361,6.9361,6.9361,6.9361,6.9361,6.9361,6.9361,6.9361,6.9361,6.9361,6.9361,6.9361,0.0,0.0,0.0,6.0171,6.0171,6.0171,6.0171,6.0171,6.0171,6.0171,6.0171,6.0171,6.0171,6.0924,6.1506,6.1482,6.3144,6.4454,6.4454,6.5409,6.6086,6.6112,6.6112,6.6112,6.6112,6.6112,6.6112,6.6112,6.6112,6.6112,6.6112,6.6664,6.7493,6.8597,6.915,6.9361,6.9361,6.9361,6.9361,6.9361,6.9361,6.9361,6.9361,6.9361,6.9361,6.9361,6.9361,6.9361,6.9361,6.9361,6.9361,6.9361,6.9361,6.9361,6.9361,6.9361,6.9361,6.9361,6.9361,6.9361,6.9361,6.9361,6.9361,6.9361,6.9361,6.9361,6.9361,6.9361,6.9361,6.9361,6.9361,6.9361,6.9361,6.9361,6.9361,6.9361,6.9361,6.9361,6.9361,6.9361,6.9361,6.9361,6.9361,6.9361,6.9361,6.9361,6.9361,6.9361,6.9361,6.9361,6.9361,6.9361,6.9361,6.9361,6.9361,6.9361,6.9361,6.9361,6.9361,6.9361,6.9361,6.9361,6.9361,6.9361,6.9361,6.9361,6.9361,6.9361,6.9361,6.9361,6.9361,6.9361,6.0267,0.0,0.0,0.0,0.0,0.0,6.0171,6.0171,6.0171,6.0171,6.0171,6.0171,6.0171,6.0924,6.1506,6.1506,6.2846,6.4028,6.4404,6.5082,6.566,6.6061,6.6112,6.6112,6.6112,6.6112,6.6112,6.6112,6.6112,6.6112,6.6112,6.7041,6.7894,6.8597,6.915,6.9361,6.9361,6.9361,6.9361,6.9361,6.9361,6.9361,6.9361,6.9361,6.9361,6.9361,6.9361,6.9361,6.9361,6.9361,6.9361,6.9361,6.9361,6.9361,6.9361,6.9361,6.9361,6.9361,6.9361,6.9361,6.9361,6.9361,6.9361,6.9361,6.9361,6.9361,6.9361,6.9361,6.9361,6.9361,6.9361,6.9361,6.9361,6.9361,6.9361,6.9361,6.9361,6.9361,6.9361,6.9361,6.9361,6.9361,6.9361,6.9361,6.9361,6.9361,6.9361,6.9361,6.9361,6.9361,6.9361,6.9361,6.9361,6.9361,6.9361,6.9361,6.9361,6.9361,6.9361,6.9361,6.9361,6.9361,6.9361,6.9361,6.9361,6.9361,6.9361,6.9361,6.9361,6.9361,6.9361,6.9361,6.0652,6.0508,6.046,6.0219,0.0,0.0,6.0171,6.0171,6.0171,6.0171,6.0171,6.0171,6.0171,6.0924,6.158,6.1801,6.2871,6.3877,6.4404,6.5132,6.576,6.6061,6.6112,6.6112,6.6112,6.6112,6.6112,6.6112,6.6112,6.6312,6.6789,6.7442,6.817,6.8949,6.9275,6.9361,6.9361,6.9361,6.9361,6.9361,6.9361,6.9361,6.9361,6.9361,6.9361,6.9361,6.9361,6.9361,6.9361,6.9361,6.9361,6.9361,6.9361,6.9361,6.9361,6.9361,6.9361,6.9361,6.9361,6.9361,6.9361,6.9361,6.9361,6.9361,6.9361,6.9361,6.9361,6.9361,6.9361,6.9361,6.9361,6.9361,6.9361,6.9361,6.9361,6.9361,6.9361,6.9361,6.9361,6.9361,6.9361,6.9361,6.9361,6.9361,6.9361,6.9361,6.9361,6.9361,6.9361,6.9361,6.9361,6.9361,6.9361,6.9361,6.9361,6.9361,6.9361,6.9361,6.9361,6.9361,6.9361,6.9361,6.9361,6.9361,6.9361,6.9361,6.9361,6.9361,6.9361,6.9361,6.9361,6.9361,6.1205,6.1061,6.0917,6.0388,6.0267,0.0,6.0195,6.0171,6.0171,6.0171,6.0171,6.0171,6.0171,6.0841,6.1595,6.2037,6.3011,6.3952,6.4479,6.5409,6.6036,6.6112,6.6112,6.6112,6.6112,6.6112,6.6112,6.6112,6.6112,6.6614,6.7744,6.7794,6.8296,6.9401,6.9361,6.9361,6.9361,6.9361,6.9361,6.9361,6.9361,6.9361,6.9361,6.9361,6.9361,6.9361,6.9361,6.9361,6.9361,6.9361,6.9361,6.9361,6.9361,6.9361,6.9361,6.9361,6.9361,6.9361,6.9361,6.9361,6.9361,6.9361,6.9361,6.9361,6.9361,6.9361,6.9361,6.9361,6.9361,6.9361,6.9361,6.9361,6.9361,6.9361,6.9361,6.9361,6.9361,6.9361,6.9361,6.9361,6.9361,6.9361,6.9361,6.9361,6.9361,6.9361,6.9361,6.9361,6.9361,6.9361,6.9361,6.9361,6.9361,6.9361,6.9361,6.9361,6.9361,6.9361,6.9361,6.9361,6.9361,6.9361,6.9361,6.9361,6.9361,6.9361,6.9361,6.9361,6.9361,6.9361,6.9361,6.9361,6.1782,6.1638,6.1494,6.0941,6.0796,0.0,6.0267,6.0171,6.0171,6.0171,6.0171,6.0171,6.0171,6.059,6.0949,6.1046,6.2559,6.4084,6.5057,6.5308,6.5609,6.6061,6.6112,6.6112,6.6112,6.6112,6.6112,6.6112,6.6112,6.6614,6.7744,6.7794,6.8296,6.9401,6.9361,6.9361,6.9361,6.9361,6.9361,6.9361,6.9361,6.9361,6.9361,6.9361,6.9361,6.9361,6.9361,6.9361,6.9361,6.9361,6.9361,6.9361,6.9361,6.9361,6.9361,6.9361,6.9361,6.9361,6.9361,6.9361,6.9361,6.9361,6.9361,6.9361,6.9361,6.9361,6.9361,6.9361,6.9361,6.9361,6.9361,6.9361,6.9361,6.9361,6.9361,6.9361,6.9361,6.9361,6.9361,6.9361,6.9361,6.9361,6.9361,6.9361,6.9361,6.9361,6.9361,6.9361,6.9361,6.9361,6.9361,6.9361,6.9361,6.9361,6.9361,6.9361,6.9361,6.9361,6.9361,6.9361,6.9361,6.9361,6.9361,6.9361,6.9361,6.9361,6.9361,6.9361,6.9361,6.9361,6.9361,6.9361,6.2336,6.2191,6.2071,6.1518,6.1374,0.0,0.0,6.0772,6.058,6.058,6.0364,6.0171,6.0171,6.0507,6.0914,6.1206,6.2672,6.398,6.4527,6.5253,6.581,6.6086,6.6112,6.6112,6.6112,6.6112,6.6112,6.6112,6.6112,6.6614,6.7744,6.7794,6.8296,6.9401,6.9361,6.9361,6.9361,6.9361,6.9361,6.9361,6.9361,6.9361,6.9361,6.9361,6.9361,6.9361,6.9361,6.9361,6.9361,6.9361,6.9361,6.9361,6.9361,6.9361,6.9361,6.9361,6.9361,6.9361,6.9361,6.9361,6.9361,6.9361,6.927,6.9089,6.9361,6.9361,6.9361,6.9361,6.9361,6.9361,6.9361,6.9361,6.9361,6.9361,6.9361,6.9361,6.9361,6.9361,6.9361,6.9361,6.9361,6.9361,6.9361,6.9361,6.9361,6.9361,6.9361,6.9361,6.9361,6.9361,6.9361,6.9361,6.9361,6.9361,6.9361,6.9361,6.9361,6.9361,6.9361,6.9361,6.9361,6.9361,6.9361,6.9361,6.9361,6.9361,6.9361,6.9361,6.9361,6.9361,6.9361,6.9361,6.2841,6.272,6.26,6.2071,6.1951,6.1927,0.0,0.0,0.0,6.1133,6.0772,6.0484,6.0484,6.0737,6.1086,6.151,6.2773,6.3655,6.3633,6.4913,6.5853,6.5853,6.6026,6.6026,6.594,6.6026,6.6112,6.6112,6.6112,6.6614,6.7744,6.7794,6.8296,6.9401,6.9361,6.9361,6.9361,6.9361,6.9361,6.9361,6.9361,6.9361,6.9361,6.9361,6.9361,6.9361,6.9361,6.9361,6.9361,6.9361,6.9361,6.9361,6.9361,6.9361,6.9361,6.9361,6.9361,6.9361,6.9361,6.9361,6.9361,6.9361,6.918,6.8908,6.927,6.9361,6.9361,6.9361,6.9361,6.9361,6.9361,6.9361,6.9361,6.9361,6.9361,6.9361,6.9361,6.9361,6.9361,6.9361,6.9361,6.9361,6.9361,6.9361,6.9361,6.9361,6.9361,6.9361,6.9361,6.9361,6.9361,6.9361,6.9361,6.9361,6.9361,6.9361,6.9361,6.9361,6.9361,6.9361,6.9361,6.9361,6.9361,6.9361,6.9361,6.9361,6.9361,6.9361,6.9361,6.9361,6.9361,6.9361,6.3274,6.3249,6.3129,6.2624,6.2504,6.2384,6.1903,0.0,6.171,6.171,0.0,6.1614,6.1614,0.0,0.0,6.1122,6.2323,6.3202,6.2678,6.3914,6.4876,6.4876,6.5594,6.594,6.5508,6.5853,6.6112,6.6112,6.6112,6.6614,6.7744,6.7794,6.8296,6.9401,6.9361,6.9361,6.9361,6.9361,6.9361,6.9361,6.9361,6.9361,6.9361,6.9361,6.9361,6.9361,6.9361,6.9361,6.9361,6.9361,6.9361,6.9361,6.9361,6.9361,6.9361,6.9361,6.9361,6.9361,6.9361,6.9361,6.9361,6.9361,6.9361,6.9361,6.9361,6.9361,6.9361,6.9361,6.9361,6.9361,6.9361,6.9361,6.9361,6.9361,6.9361,6.9361,6.9361,6.9361,6.9361,6.9361,6.9361,6.9361,6.9361,6.9361,6.9361,6.9361,6.9361,6.9361,6.9361,6.9361,6.9361,6.9361,6.9361,6.9361,6.9361,6.9361,6.9361,6.9361,6.9361,6.9361,6.9361,6.9361,6.9361,6.9361,6.9361,6.9361,6.9361,6.9361,6.9361,6.9361,6.9361,6.9361,6.3346,6.3346,6.3298,6.3081,6.3033,6.2961,6.2744,6.2456,6.2263,6.2263,0.0,0.0,0.0,0.0,0.0,0.0,6.2503,6.3089,6.2635,6.3801,6.4702,6.4702,6.505,6.5335,6.5421,6.5594,6.5767,6.6112,6.5853,6.6354,6.7744,6.7794,6.8296,6.9401,6.9361,6.9361,6.9361,6.9361,6.9361,6.9361,6.9361,6.9361,6.9361,6.9361,6.9361,6.9361,6.9361,6.927,6.8999,6.8999,6.8999,6.8999,6.8999,6.918,6.9361,6.9361,6.9361,6.9361,6.9361,6.9361,6.9361,6.9089,6.918,6.9361,6.9089,6.918,6.9361,6.9361,6.9361,6.9361,6.9361,6.9361,6.9361,6.9361,6.9361,6.9361,6.9361,6.9361,6.9361,6.9361,6.9361,6.9361,6.9361,6.9361,6.9361,6.9361,6.9361,6.9361,6.9361,6.9361,6.9361,6.9361,6.9361,6.9361,6.9361,6.9361,6.9361,6.9361,6.9361,6.9361,6.9361,6.9361,6.9361,6.9361,6.9361,6.9361,6.9361,6.9361,6.9361,6.9361,6.9361,6.9361,6.3346,6.3346,6.3346,6.3346,6.3346,6.3346,6.3346,6.3057,6.2793,6.2793,6.248,0.0,0.0,0.0,6.2167,6.2047,0.0,6.3181,6.2687,6.3623,6.4353,6.4353,6.444,6.4702,6.5161,6.5248,6.5421,6.5853,6.5594,6.6093,6.7744,6.7794,6.8296,6.9401,6.9361,6.9361,6.9361,6.9361,6.9361,6.9361,6.9361,6.9361,6.9361,6.9361,6.9361,6.9361,6.9361,6.9089,6.8726,6.8726,6.8635,6.8544,6.8544,6.8726,6.9089,6.9361,6.9361,6.9361,6.9361,6.9361,6.9361,6.8999,6.9089,6.9361,6.8999,6.9089,6.9361,6.9361,6.9361,6.9361,6.9361,6.9361,6.9361,6.9361,6.9361,6.9361,6.9361,6.9361,6.9361,6.9361,6.9361,6.9361,6.9361,6.9361,6.9361,6.9361,6.9361,6.9361,6.9361,6.9361,6.9361,6.9361,6.9361,6.9361,6.9361,6.9361,6.9361,6.9361,6.9361,6.9361,6.9361,6.9361,6.9361,6.9361,6.9361,6.9361,6.9361,6.9361,6.9361,6.9361,6.9361,6.9361,6.3346,6.3346,6.3346,6.3346,6.3346,6.3346,6.3346,6.3322,6.3322,6.3322,6.3298,6.3298,6.3298,6.3298,6.3129,6.2648,6.2985,0.0,0.0,6.3033,6.3346,6.3346,6.3763,6.4178,6.4702,6.4702,6.4876,6.5421,6.5421,6.6093,6.7744,6.7794,6.8296,6.9401,6.9361,6.9361,6.9361,6.9361,6.9361,6.9361,6.9361,6.9361,6.9361,6.9361,6.9361,6.9361,6.9361,6.9089,6.8726,6.8726,6.8453,6.8063,6.8063,6.8063,6.8154,6.9064,6.9361,6.9361,6.9361,6.9361,6.9361,6.9361,6.9361,6.9361,6.9361,6.9361,6.9361,6.9361,6.9361,6.9361,6.9361,6.9361,6.9361,6.9361,6.9361,6.9361,6.9361,6.9361,6.9361,6.9361,6.9361,6.9361,6.9361,6.9361,6.9361,6.9361,6.9361,6.9361,6.9361,6.9361,6.9361,6.9361,6.9361,6.9361,6.9361,6.9361,6.9361,6.9361,6.9361,6.9361,6.9361,6.9361,6.9361,6.9361,6.9361,6.9361,6.9361,6.9361,6.9361,6.9361,6.9361,6.9361,6.3346,6.3346,6.3346,6.3346,6.3346,6.3346,6.3346,6.3346,6.3346,6.3346,6.3346,6.3346,6.3346,6.3346,6.3298,6.3105,6.3225,6.3274,0.0,6.3225,6.3346,6.3346,6.3675,6.4178,6.4615,6.4702,6.505,6.5767,6.5594,6.6093,6.7744,6.7794,6.8296,6.9401,6.9361,6.9361,6.9361,6.9361,6.9361,6.9361,6.9361,6.9361,6.9361,6.9361,6.9361,6.9361,6.9361,6.9089,6.8726,6.8726,6.8453,6.7971,6.7971,6.7971,6.8063,6.8726,6.8908,6.8999,6.927,6.9361,6.9361,6.9361,6.9361,6.9361,6.9361,6.9361,6.9361,6.9361,6.9361,6.9361,6.9361,6.9361,6.9361,6.9361,6.9361,6.9361,6.9361,6.9361,6.9361,6.9361,6.9361,6.9361,6.9361,6.9361,6.9361,6.9361,6.9361,6.9361,6.9361,6.9361,6.9361,6.9361,6.9361,6.9361,6.9361,6.9361,6.9361,6.9361,6.9361,6.9361,6.9361,6.9361,6.9361,6.9361,6.9361,6.9361,6.9361,6.9361,6.9361,6.9361,6.9361,6.9361,6.3394,6.3346,6.3346,6.3346,6.3346,6.3346,6.3346,6.3346,6.3346,6.3346,6.3346,6.3346,6.3346,6.3346,6.3346,0.0,0.0,0.0,0.0,6.3346,6.3346,6.3346,6.3586,6.3939,6.444,6.444,6.4789,6.5767,6.5594,6.6093,6.7744,6.7794,6.8296,6.9401,6.9361,6.9361,6.9361,6.9361,6.9361,6.9361,6.9652,6.9727,6.9752,6.9953,6.9937,6.9755,6.9555,6.9091,6.845,6.8436,6.8063,6.7513,6.7672,6.758,6.7513,6.8246,6.8453,6.8519,6.8792,6.8883,6.8883,6.9089,6.9089,6.8883,6.9089,6.8999,6.8908,6.9089,6.918,6.918,6.9361,6.9361,6.9361,6.9361,6.9361,6.9361,6.9361,6.9361,6.9361,6.9361,6.9361,6.9361,6.9361,6.9361,6.9361,6.9361,6.9361,6.9361,6.9361,6.9361,6.9361,6.9361,6.9361,6.9361,6.9361,6.9361,6.9361,6.9361,6.9361,6.9361,6.9361,6.9361,6.9526,6.9727,6.9551,6.9551,6.9727,6.9526,6.9361,6.9361,6.9361,6.9361]}]]